[[{"header":{"parameterUnit":"m.s-1","parameterCategory":1,"la1":30.6,"la2":28.766,"lo1":-90.7593,"lo2":-88.6598,"dy":0.0162,"dx":0.0183,"nx":116,"ny":114,"refTime":"2023-08-18T12:00:00:Z","depth":0,"parameterNumber":2,"parameterNumberName":"U-component_of_WINDS"},"data":[0.0,0.0,0.0,0.0,0.0,0.0,0.0,0.0,0.0,0.0,0.0,0.0,0.0,0.0,0.0,0.0,0.0,0.0,0.0,0.0,0.0,0.0,0.0,0.0,0.0,0.0,0.0,0.0,0.0,0.0,0.0,0.0,0.0,0.0,0.0,0.0,0.0,0.0,0.0,0.0,0.0,0.0,0.0,0.0,0.0,0.0,0.0,0.0,0.0,0.0,0.0,0.0,0.0,0.0,0.0,0.0,0.0,0.0,0.0,0.0,0.0,0.0,0.0,0.0,0.0,0.0,0.0,0.0,0.0,0.0,0.0,0.0,0.0,0.0,0.0,0.0,0.0,0.0,0.0,0.0,0.0,0.0,0.0,0.0,0.0,0.0,0.0,0.0,0.0,0.0,0.0,0.0,0.0,0.0,0.0,0.0,0.0,0.0,0.0,0.0,0.0,0.0,0.0,0.0,0.0,0.0,0.0,0.0,0.0,0.0,0.0,0.0,0.0,0.0,0.0,0.0,0.0,0.0,0.0,0.0,0.0,0.0,0.0,0.0,0.0,0.0,0.0,0.0,0.0,0.0,0.0,0.0,0.0,0.0,0.0,0.0,0.0,0.0,0.0,0.0,0.0,0.0,0.0,0.0,0.0,0.0,0.0,0.0,0.0,0.0,0.0,0.0,0.0,0.0,0.0,0.0,0.0,0.0,0.0,0.0,0.0,0.0,0.0,0.0,0.0,0.0,0.0,0.0,0.0,0.0,0.0,0.0,0.0,0.0,0.0,0.0,0.0,0.0,0.0,0.0,0.0,0.0,0.0,0.0,0.0,0.0,0.0,0.0,0.0,0.0,0.0,0.0,0.0,0.0,0.0,0.0,0.0,0.0,0.0,0.0,0.0,0.0,0.0,0.0,0.0,0.0,0.0,0.0,0.0,0.0,0.0,0.0,0.0,0.0,0.0,0.0,0.0,0.0,0.0,0.0,0.0,0.0,0.0,0.0,0.0,0.0,0.0,0.0,0.0,0.0,0.0,0.0,0.0,0.0,0.0,0.0,0.0,0.0,0.0,0.0,0.0,0.0,0.0,0.0,0.0,0.0,0.0,0.0,0.0,0.0,0.0,0.0,0.0,0.0,0.0,0.0,0.0,0.0,0.0,0.0,0.0,0.0,0.0,0.0,0.0,0.0,0.0,0.0,0.0,0.0,0.0,0.0,0.0,0.0,0.0,0.0,0.0,0.0,0.0,0.0,0.0,0.0,0.0,0.0,0.0,0.0,0.0,0.0,0.0,0.0,0.0,0.0,0.0,0.0,0.0,0.0,0.0,0.0,0.0,0.0,0.0,0.0,0.0,0.0,0.0,0.0,0.0,0.0,0.0,0.0,0.0,0.0,0.0,0.0,0.0,0.0,0.0,0.0,0.0,0.0,0.0,0.0,0.0,0.0,0.0,0.0,0.0,0.0,0.0,0.0,0.0,0.0,0.0,0.0,0.0,0.0,0.0,0.0,0.0,0.0,0.0,0.0,0.0,0.0,0.0,0.0,0.0,0.0,0.0,0.0,0.0,0.0,0.0,0.0,0.0,0.0,0.0,0.0,0.0,0.0,0.0,0.0,0.0,0.0,0.0,0.0,0.0,0.0,0.0,0.0,0.0,0.0,0.0,0.0,0.0,0.0,0.0,0.0,0.0,0.0,0.0,0.0,0.0,0.0,0.0,0.0,0.0,0.0,0.0,0.0,0.0,0.0,0.0,0.0,0.0,0.0,0.0,0.0,0.0,0.0,0.0,0.0,0.0,0.0,0.0,0.0,0.0,0.0,0.0,0.0,0.0,0.0,0.0,0.0,0.0,0.0,0.0,0.0,0.0,0.0,0.0,0.0,0.0,0.0,0.0,0.0,0.0,0.0,0.0,0.0,0.0,0.0,0.0,0.0,0.0,0.0,0.0,0.0,0.0,0.0,0.0,0.0,0.0,0.0,0.0,0.0,0.0,0.0,0.0,0.0,0.0,0.0,0.0,0.0,0.0,0.0,0.0,0.0,0.0,0.0,0.0,0.0,0.0,0.0,0.0,0.0,0.0,0.0,0.0,0.0,0.0,0.0,0.0,0.0,0.0,0.0,0.0,0.0,0.0,0.0,0.0,0.0,0.0,0.0,0.0,0.0,0.0,0.0,0.0,0.0,0.0,0.0,0.0,0.0,0.0,0.0,0.0,0.0,0.0,0.0,0.0,0.0,0.0,0.0,0.0,0.0,0.0,0.0,0.0,0.0,0.0,0.0,0.0,0.0,0.0,0.0,0.0,0.0,0.0,0.0,0.0,0.0,0.0,0.0,0.0,0.0,0.0,0.0,0.0,0.0,0.0,0.0,0.0,0.0,0.0,0.0,0.0,0.0,0.0,0.0,0.0,0.0,0.0,0.0,0.0,0.0,0.0,0.0,0.0,0.0,0.0,0.0,0.0,0.0,0.0,0.0,0.0,0.0,0.0,0.0,0.0,0.0,0.0,0.0,0.0,0.0,0.0,0.0,0.0,0.0,0.0,0.0,0.0,0.0,0.0,0.0,0.0,0.0,0.0,0.0,0.0,0.0,0.0,0.0,0.0,0.0,0.0,0.0,0.0,0.0,0.0,0.0,0.0,0.0,0.0,0.0,0.0,0.0,0.0,0.0,0.0,0.0,0.0,0.0,0.0,0.0,0.0,0.0,0.0,0.0,0.0,0.0,0.0,0.0,0.0,0.0,0.0,0.0,0.0,0.0,0.0,0.0,0.0,0.0,0.0,0.0,0.0,0.0,0.0,0.0,0.0,0.0,0.0,0.0,0.0,0.0,0.0,0.0,0.0,0.0,0.0,0.0,0.0,0.0,0.0,0.0,0.0,0.0,0.0,0.0,0.0,0.0,0.0,0.0,0.0,0.0,0.0,0.0,0.0,0.0,0.0,0.0,0.0,0.0,0.0,0.0,0.0,0.0,0.0,0.0,0.0,0.0,0.0,0.0,0.0,0.0,0.0,0.0,0.0,0.0,0.0,0.0,0.0,0.0,0.0,0.0,0.0,0.0,0.0,0.0,0.0,0.0,0.0,0.0,0.0,0.0,0.0,0.0,0.0,0.0,0.0,0.0,0.0,0.0,0.0,0.0,0.0,0.0,0.0,0.0,0.0,0.0,0.0,0.0,0.0,0.0,0.0,0.0,0.0,0.0,0.0,0.0,0.0,0.0,0.0,0.0,0.0,0.0,0.0,0.0,0.0,0.0,0.0,0.0,0.0,0.0,0.0,0.0,0.0,0.0,0.0,0.0,0.0,0.0,0.0,0.0,0.0,0.0,0.0,0.0,0.0,0.0,0.0,0.0,0.0,0.0,0.0,0.0,0.0,0.0,0.0,0.0,0.0,0.0,0.0,0.0,0.0,0.0,0.0,0.0,0.0,0.0,0.0,0.0,0.0,0.0,0.0,0.0,0.0,0.0,0.0,0.0,0.0,0.0,0.0,0.0,0.0,0.0,0.0,0.0,0.0,0.0,0.0,0.0,0.0,0.0,0.0,0.0,0.0,0.0,0.0,0.0,0.0,0.0,0.0,0.0,0.0,0.0,0.0,0.0,0.0,0.0,0.0,0.0,0.0,0.0,0.0,0.0,0.0,0.0,0.0,0.0,0.0,0.0,0.0,0.0,0.0,0.0,0.0,0.0,0.0,0.0,0.0,0.0,0.0,0.0,0.0,0.0,0.0,0.0,0.0,0.0,0.0,0.0,0.0,0.0,0.0,0.0,0.0,0.0,0.0,0.0,0.0,0.0,0.0,0.0,0.0,0.0,0.0,0.0,0.0,0.0,0.0,0.0,0.0,0.0,0.0,0.0,0.0,0.0,0.0,0.0,0.0,0.0,0.0,0.0,0.0,0.0,0.0,0.0,0.0,0.0,0.0,0.0,0.0,0.0,0.0,0.0,0.0,0.0,0.0,0.0,0.0,0.0,0.0,0.0,0.0,0.0,0.0,0.0,0.0,0.0,0.0,0.0,0.0,0.0,0.0,0.0,0.0,0.0,0.0,0.0,0.0,0.0,0.0,0.0,0.0,0.0,0.0,0.0,0.0,0.0,0.0,0.0,0.0,0.0,0.0,0.0,0.0,0.0,0.0,0.0,0.0,0.0,0.0,0.0,0.0,0.0,0.0,0.0,0.0,0.0,0.0,0.0,0.0,0.0,0.0,0.0,0.0,0.0,0.0,0.0,0.0,0.0,0.0,0.0,0.0,0.0,0.0,0.0,0.0,0.0,0.0,0.0,0.0,0.0,0.0,0.0,0.0,0.0,0.0,0.0,0.0,0.0,0.0,0.0,0.0,0.0,0.0,0.0,0.0,0.0,0.0,0.0,0.0,0.0,0.0,0.0,0.0,0.0,0.0,0.0,0.0,0.0,0.0,0.0,0.0,0.0,0.0,0.0,0.0,0.0,0.0,0.0,0.0,0.0,0.0,0.0,0.0,0.0,0.0,0.0,0.0,0.0,0.0,0.0,0.0,0.0,0.0,0.0,0.0,0.0,0.0,0.0,0.0,0.0,0.0,0.0,0.0,0.0,0.0,0.0,0.0,0.0,0.0,0.0,0.0,0.0,0.0,0.0,0.0,0.0,0.0,0.0,0.0,0.0,0.0,0.0,0.0,0.0,0.0,0.0,0.0,0.0,0.0,0.0,0.0,0.0,0.0,0.0,0.0,0.0,0.0,0.0,0.0,0.0,0.0,0.0,0.0,0.0,0.0,0.0,0.0,0.0,0.0,0.0,0.0,0.0,0.0,0.0,0.0,0.0,0.0,0.0,0.0,0.0,0.0,0.0,0.0,0.0,0.0,0.0,0.0,0.0,0.0,0.0,0.0,0.0,0.0,0.0,0.0,0.0,0.0,0.0,0.0,0.0,0.0,0.0,0.0,0.0,0.0,0.0,0.0,0.0,0.0,0.0,0.0,0.0,0.0,0.0,0.0,0.0,0.0,0.0,0.0,0.0,0.0,0.0,0.0,0.0,0.0,0.0,0.0,0.0,0.0,0.0,0.0,0.0,0.0,0.0,0.0,0.0,0.0,0.0,0.0,0.0,0.0,0.0,0.0,0.0,0.0,0.0,0.0,0.0,0.0,0.0,0.0,0.0,0.0,0.0,0.0,0.0,0.0,0.0,0.0,0.0,0.0,0.0,0.0,0.0,0.0,0.0,0.0,0.0,0.0,0.0,0.0,0.0,0.0,0.0,0.0,0.0,0.0,0.0,0.0,0.0,0.0,0.0,0.0,0.0,0.0,0.0,0.0,0.0,0.0,0.0,0.0,0.0,0.0,0.0,0.0,0.0,0.0,0.0,0.0,0.0,0.0,0.0,0.0,0.0,0.0,0.0,0.0,0.0,0.0,0.0,0.0,0.0,0.0,0.0,0.0,0.0,0.0,0.0,0.0,0.0,0.0,0.0,0.0,0.0,0.0,0.0,0.0,0.0,0.0,0.0,0.0,0.0,0.0,0.0,0.0,0.0,0.0,0.0,0.0,0.0,0.0,0.0,0.0,0.0,0.0,0.0,0.0,0.0,0.0,0.0,0.0,0.0,0.0,0.0,0.0,0.0,0.0,0.0,0.0,0.0,0.0,0.0,0.0,0.0,0.0,0.0,0.0,0.0,0.0,0.0,0.0,0.0,0.0,0.0,0.0,0.0,0.0,0.0,0.0,0.0,0.0,0.0,0.0,0.0,0.0,0.0,0.0,0.0,0.0,0.0,0.0,0.0,0.0,0.0,0.0,0.0,0.0,0.0,0.0,0.0,0.0,0.0,0.0,0.0,0.0,0.0,0.0,0.0,0.0,0.0,0.0,0.0,0.0,0.0,0.0,0.0,0.0,0.0,0.0,0.0,0.0,0.0,0.0,0.0,0.0,0.0,0.0,0.0,0.0,0.0,0.0,0.0,0.0,0.0,0.0,0.0,0.0,0.0,0.0,0.0,0.0,0.0,0.0,0.0,0.0,0.0,0.0,0.0,0.0,0.0,0.0,0.0,0.0,0.0,0.0,0.0,0.0,0.0,0.0,0.0,0.0,0.0,0.0,0.0,0.0,0.0,0.0,0.0,0.0,0.0,0.0,0.0,0.0,0.0,0.0318,0.0,0.0,0.0,0.0,0.0,0.0,0.0,0.0,0.0,0.0,0.0,0.0,0.0,0.0,0.0,0.0,0.0,0.0,0.0,0.0,0.0,0.0,0.0,0.0,0.0,0.0,0.0,0.0,0.0,0.0,0.0,0.0,0.0,0.0,0.0,0.0,0.0,0.0,0.0,0.0,0.0,0.0,0.0,0.0,0.0,0.0,0.0,0.0,0.0,0.0,0.0,0.0,0.0,0.0,0.0,0.0,0.0,0.0,0.0,0.0,0.0,0.0,0.0,0.0,0.0,0.0,0.0,0.0,0.0,0.0,0.0,0.0,0.0,0.0,0.0,0.0,0.0,0.0,0.0,0.0,0.0,0.0,0.0,0.0,0.0,0.0,0.0,0.0,0.0,0.0,0.0,0.0,0.0,0.0,0.0,0.0,0.0,0.0,0.0,0.0,0.0,0.0,0.0,0.0,0.0,0.0,0.0,0.0,0.0,0.0,0.0,0.0,0.0,0.0,0.0,0.0,0.0479,0.0,0.0,0.0,0.0,0.0,0.0,0.0,0.0,0.0,0.0,0.0,0.0,0.0,0.0,0.0,0.0,0.0,0.0,0.0,0.0,0.0,0.0,0.0,0.0,0.0,0.0,0.0,0.0,0.0,0.0,0.0,0.0,0.0,0.0,0.0,0.0,0.0,0.0,0.0,0.0,0.0,0.0,0.0,0.0,0.0,0.0,0.0,0.0,0.0,0.0,0.0,0.0,0.0,0.0,0.0,0.0,0.0,0.0,0.0,0.0,0.0,0.0,0.0,0.0,0.0,0.0,0.0,0.0,0.0,0.0,0.0,0.0,0.0,0.0,0.0,0.0,0.0,0.0,0.0,0.0,0.0,0.0,0.0,0.0,0.0,0.0,0.0,0.0,0.0,0.0,0.0,0.0,0.0,0.0,0.0,0.0,0.0,0.0,0.0,0.0,0.0,0.0,0.0,0.0,0.0,0.0,0.0,0.0,0.3946,0.3913,0.5028,0.393,0.3104,0.2473,0.1472,0.0583,-0.0211,-0.0261,0.0,0.0,0.0,0.0,0.0,0.0,0.0,0.0,0.0,0.0,0.0,0.0,0.0,0.0,0.0,0.0,0.0,0.0,0.0,0.0,0.0,0.0,0.0,0.0,0.0,0.0,0.0,0.0,0.0,0.0,0.0,0.0,0.0,0.0,0.0,0.0,0.0,0.0,0.6488,0.7268,0.7869,0.8283,0.8417,0.0,0.0,0.0,0.0,0.0,0.0,0.0,0.0,0.0,0.0,0.0,0.0,0.0,0.0,0.0,0.0,0.0,0.0,0.0,0.0,0.0,0.0,0.0,0.0,0.0,0.0,0.0,0.0,0.0,0.0,0.0,0.0,0.0,0.0,0.0,0.0,0.0,0.0,0.0,0.0,0.0,0.0,0.0,0.4061,0.4669,0.0,0.0,0.0,0.0,0.0,0.0,0.0,0.0,0.0,0.0,0.0,0.0,0.0,0.4516,0.5207,0.5346,0.5727,0.6471,0.641,0.6444,0.659,0.6554,0.5852,0.4659,0.3769,0.0,-0.092,-0.0293,0.0,0.0,0.0,0.0,0.0,0.0,0.0,0.0,0.0,0.0,0.0,0.0,0.0,0.0,0.0,0.0,0.0,0.0,0.0,0.0,0.0,0.0,0.0,0.0,0.0,0.0,0.0,0.0,0.0,0.0,0.0,0.0,0.0,0.0,0.0,0.0,0.461,0.5376,0.625,0.6788,0.7637,0.8651,0.8305,0.8398,0.876,0.821,0.0,0.0,0.0,0.0,0.0,0.0,0.0,0.0,0.0,0.0,0.0,0.0,0.0,0.0,0.0,0.0,0.0,0.0,0.0,0.0,0.0,0.0,0.0,0.0,0.0,0.0,0.0,0.0,0.0,0.0,0.0,0.0,0.0,0.0,0.0,0.0,0.0,0.0,0.0,0.4333,0.4576,0.4742,0.4621,0.4348,0.0,0.0,0.0,0.0,0.0,0.0,0.0,0.0,0.0,0.4951,0.509,0.5489,0.6041,0.6251,0.6548,0.6953,0.7195,0.7389,0.7563,0.7818,0.7601,0.7003,0.6813,0.5822,0.438,0.2082,0.2712,0.4784,0.0,0.0,0.0,0.0,0.3654,0.4558,0.0,0.0,0.0,0.0,0.0,0.0,0.0,0.0,0.0,0.0,0.0,0.0,0.0,0.0,0.0,0.3006,0.0,0.0,0.0,0.0,0.0,0.0,0.0,0.0,0.0,0.0,0.0,0.0,0.4665,0.5225,0.6139,0.662,0.7486,0.8639,0.8253,0.8571,0.9381,0.838,0.7836,0.0,0.0,0.0,0.0,0.0,0.0,0.0,0.0,0.0,0.0,0.0,0.0,0.0,0.0,0.0,0.0,0.0,0.0,0.0,0.0,0.0,0.0,0.0,0.0,0.0,0.0,0.0,0.0,0.0,0.0,0.0,0.0,0.0,0.0,0.0,0.0,0.0,0.0,0.4884,0.5012,0.4962,0.4917,0.4745,0.0,0.0,0.0,0.0,0.0,0.0,0.5192,0.5444,0.5644,0.594,0.6121,0.6457,0.6871,0.7139,0.7343,0.7489,0.7741,0.7959,0.8163,0.8459,0.8594,0.8495,0.822,0.8448,0.8687,0.5273,0.4306,0.502,0.5101,0.3786,0.2078,0.3283,0.4577,0.5502,0.0,0.0,0.0,0.0,0.0,0.0,0.0,0.0,0.0,0.0,0.0,0.0,0.0,0.0,0.3285,0.4058,0.4306,0.418,0.0,0.0,0.0,0.0,0.0,0.0,0.0,0.0,0.0,0.5067,0.5067,0.5517,0.6416,0.7262,0.7846,0.8228,0.8797,0.8959,0.8734,0.7501,0.662,0.6095,0.0,0.0,0.0,0.0,0.0,0.0,0.0,0.0,0.0,0.0,0.0,0.0,0.0,0.0,0.0,0.0,0.0,0.0,0.0,0.0,0.0,0.0,0.0,0.0,0.0,0.0,0.0,0.0,0.0,0.0,0.0,0.0,0.0,0.0,0.0,0.0,0.0,0.0,0.0,0.5715,0.5767,0.0,0.0,0.0,0.0,0.5722,0.5587,0.5643,0.593,0.6154,0.6469,0.6783,0.7309,0.7678,0.7957,0.8123,0.8275,0.8414,0.8438,0.8452,0.8465,0.8628,0.8605,0.852,0.6864,0.7194,0.8838,0.8643,0.8234,0.7661,0.5813,0.4627,0.4031,0.3948,0.3513,0.3291,0.0,0.0,0.0,0.0,0.0,0.0,0.0,0.0,0.0,0.0,0.0,0.0,0.0,0.3355,0.4416,0.4293,0.5655,0.5835,0.416,0.0,0.0,0.0,0.0,0.0,0.0,0.0,0.381,0.4496,0.4669,0.5057,0.5786,0.6254,0.6974,0.795,0.7752,0.8006,0.8513,0.7882,0.7407,0.7028,0.6258,0.6003,0.0,0.0,0.0,0.0,0.0,0.0,0.0,0.0,0.0,0.0,0.0,0.0,0.0,0.0,0.0,0.0,0.0,0.0,0.0,0.0,0.0,0.0,0.0,0.0,0.0,0.0,0.0,0.0,0.0,0.0,0.0,0.0,0.0,0.0,0.0,0.0,0.0,0.5789,0.5895,0.0,0.5689,0.5806,0.5864,0.589,0.6231,0.6579,0.687,0.7259,0.754,0.7787,0.8035,0.8218,0.8323,0.8381,0.8431,0.8482,0.8581,0.8628,0.8635,0.8788,0.892,0.8917,0.7014,0.7241,0.914,0.904,0.88,0.8343,0.7456,0.7018,0.6642,0.4663,0.3758,0.3985,0.0,0.0,0.0,0.0,0.0,0.0,0.0,0.0,0.0,0.0,0.0,0.1564,0.2218,0.3961,0.4986,0.4655,0.6182,0.6345,0.4395,0.0,0.0,0.0,0.0,0.0,0.0,0.3725,0.3966,0.4321,0.4619,0.5058,0.5447,0.5796,0.646,0.7356,0.7049,0.7371,0.8012,0.7928,0.7693,0.7292,0.6463,0.6126,0.6166,0.0,0.0,0.0,0.0,0.0,0.0,0.0,0.0,0.0,0.0,0.0,0.0,0.0,0.0,0.0,0.0,0.0,0.0,0.0,0.0,0.0,0.0,0.0,0.0,0.0,0.0,0.0,0.0,0.0,0.0,0.0,0.0,0.0,0.0,0.0,0.593,0.601,0.6354,0.6531,0.6405,0.6452,0.6612,0.6671,0.7141,0.7512,0.7807,0.8055,0.8282,0.8489,0.8587,0.8659,0.871,0.871,0.871,0.871,0.876,0.8788,0.8791,0.8893,0.9001,0.9004,0.7763,0.7986,0.9117,0.9157,0.9005,0.874,0.852,0.7858,0.6872,0.6004,0.4365,0.294,0.0,0.0,0.0,0.0,0.0,0.0,0.0,0.0,0.0,0.0,0.0414,0.1754,0.3735,0.4396,0.4872,0.5238,0.5841,0.5585,0.4257,0.3808,0.0,0.0,0.0,0.0,0.3217,0.3951,0.4373,0.4546,0.5143,0.545,0.562,0.6061,0.6349,0.6512,0.6953,0.7238,0.7394,0.7543,0.7272,0.6688,0.646,0.6217,0.5998,0.0,0.0,0.0,0.0,0.0,0.0,0.0,0.0,0.0,0.0,0.0,0.0,0.0,0.0,0.0,0.0,0.0,0.0,0.0,0.0,0.0,0.0,0.0,0.0,0.0,0.0,0.0,0.0,0.0,0.0,0.0,0.0,0.0,0.525,0.6025,0.6499,0.6572,0.7166,0.7563,0.7421,0.7797,0.8116,0.8272,0.8289,0.8418,0.871,0.8587,0.8645,0.8944,0.8954,0.9018,0.9157,0.9161,0.9161,0.9157,0.9018,0.8954,0.8954,0.8954,0.8967,0.8886,0.9117,0.91,0.889,0.912,0.9057,0.895,0.895,0.7103,0.4923,0.7606,0.4947,-0.0,0.0,0.0,0.0,0.0,0.0,0.0,0.0,0.0,0.0,0.0,0.0285,0.1551,0.2841,0.4172,0.4915,0.4746,0.5246,0.5039,0.3752,0.0,0.0,0.0,0.0,0.0,0.4004,0.4359,0.4789,0.5178,0.5393,0.5715,0.6081,0.6308,0.6607,0.6966,0.7204,0.7451,0.7692,0.7736,0.7719,0.7617,0.7101,0.6734,0.6518,0.0,0.0,0.0,0.0,0.0,0.0,0.0,0.0,0.0,0.0,0.0,0.0,0.0,0.0,0.0,0.0,0.0,0.0,0.0,0.0,0.0,0.0,0.0,0.0,0.0,0.0,0.0,0.0,0.0,0.0,0.0,0.0,0.5811,0.5806,0.6361,0.6854,0.7272,0.776,0.8109,0.817,0.8289,0.8425,0.8577,0.8693,0.8835,0.9022,0.9096,0.9174,0.9256,0.9259,0.9279,0.9317,0.9317,0.9317,0.9317,0.9279,0.9259,0.9259,0.9259,0.9323,0.9435,0.9469,0.9466,0.9435,0.9469,0.9354,0.9047,0.8964,0.8406,0.7257,0.3793,0.1369,-0.0,0.0,0.0,0.0,0.0,0.0,0.0,0.0,0.0,0.0,0.0,0.0405,0.1741,0.3026,0.4002,0.4485,0.4398,0.4655,0.4401,0.3427,0.0,0.0,0.0,0.0,0.3915,0.4445,0.471,0.5067,0.5457,0.5606,0.5908,0.6352,0.6498,0.6807,0.7244,0.74,0.7631,0.7913,0.7974,0.8055,0.8109,0.7821,0.7396,0.694,0.6798,0.6639,0.6601,0.6595,0.6604,0.6603,0.6128,0.0,0.0,0.0,0.0,0.0,0.0,0.0,0.0,0.0,0.0,0.0,0.0,0.0,0.0,0.0,0.0,0.0,0.0,0.0,0.0,0.0,0.0,0.0,0.0,0.5889,0.6572,0.6773,0.7045,0.7354,0.7855,0.8221,0.8486,0.857,0.8689,0.8801,0.8889,0.9035,0.9188,0.9337,0.9367,0.9439,0.9561,0.9507,0.9507,0.9564,0.9507,0.9476,0.9476,0.9412,0.9381,0.9381,0.9381,0.9432,0.9517,0.9581,0.9537,0.9422,0.9486,0.9378,0.0,0.0,0.0,0.0,0.0,-0.0,-0.0,0.0,0.0,0.0,0.0,0.0,0.0,0.0,0.0,0.0,0.0,0.0,0.1998,0.3651,0.3851,0.3897,0.4117,0.4174,0.3883,0.0,0.0,0.0,0.3503,0.3965,0.4352,0.4762,0.5053,0.5348,0.564,0.58,0.6091,0.6502,0.6671,0.698,0.7404,0.7556,0.7787,0.8075,0.8211,0.8279,0.8306,0.8431,0.8096,0.7499,0.7088,0.6896,0.6747,0.6801,0.6756,0.6644,0.6517,0.0,0.0,0.0,0.0,0.0,0.0,0.0,0.0,0.0,0.0,0.0,0.0,0.0,0.0,0.0,0.0,0.0,0.0,0.0,0.0,0.0,0.0,0.0,0.0,0.6319,0.7302,0.7798,0.7953,0.8052,0.8292,0.8581,0.876,0.876,0.9015,0.9188,0.9205,0.933,0.9473,0.9625,0.0,0.0,0.0,0.0,0.9693,0.9819,0.9696,0.9635,0.9632,0.9496,0.9432,0.9432,0.9432,0.9432,0.9439,0.9557,0.9456,0.9215,0.9334,0.9306,0.885,0.535,0.394,0.3661,0.1031,-0.0,-0.0,0.0,0.0,0.0,0.0,0.0,0.0,0.0,0.0,0.0,-0.192,-0.0169,0.1543,0.2825,0.3573,0.396,0.3894,0.3997,0.3664,0.0,0.0,0.3202,0.3818,0.4326,0.477,0.5223,0.5521,0.5759,0.5945,0.6213,0.6451,0.6661,0.6929,0.7234,0.756,0.7706,0.794,0.8228,0.8258,0.8336,0.8442,0.8472,0.8309,0.8144,0.8055,0.7828,0.754,0.7483,0.7507,0.7504,0.6994,0.6641,0.643,0.6118,0.0,0.0,0.0,0.0,0.0,0.0,0.0,0.0,0.0,0.0,0.0,0.0,0.0,0.0,0.0,0.0,0.0,0.0,0.0,0.0,0.684,0.7551,0.8139,0.8662,0.8821,0.8825,0.8648,0.8886,0.9069,0.9069,0.9232,0.9388,0.951,0.9547,0.9629,0.9771,0.9751,0.9764,0.9819,0.9795,0.9791,0.9822,0.9795,0.9781,0.9781,0.0,0.0,0.9737,0.9737,0.9737,0.973,0.9646,0.9578,0.9513,0.9418,0.9306,0.8609,0.3099,0.092,0.0802,0.0226,-0.0,-0.0,0.0,0.0,0.0,0.0,0.0,0.0,0.0,0.0,0.0,0.0,-0.0924,0.0307,0.1367,0.1972,0.236,0.2475,0.276,0.0,0.0,0.3158,0.3896,0.4163,0.4607,0.5016,0.5467,0.562,0.5803,0.603,0.6257,0.6481,0.6709,0.7004,0.7305,0.7607,0.7746,0.794,0.8163,0.8313,0.8418,0.8496,0.8648,0.8669,0.8587,0.8435,0.8282,0.813,0.7987,0.798,0.7974,0.7616,0.7319,0.7204,0.6997,0.6227,0.5259,0.0,0.0,0.0,0.0,0.0,0.0,0.0,0.0,0.0,0.0,0.0,0.0,0.0,0.0,0.5286,0.0,0.0,0.7036,0.7582,0.8314,0.8791,0.9015,0.9239,0.9269,0.8967,0.913,0.9266,0.9266,0.9405,0.9527,0.9605,0.9676,0.9747,0.9819,0.9822,0.9822,0.9822,0.9822,0.9822,0.9822,0.9822,0.9822,0.9822,0.9822,0.9822,0.9822,0.9822,0.9822,0.9819,0.9747,0.9676,0.9591,0.9361,0.9171,0.8714,0.5703,0.2605,-0.0,-0.0,-0.0,-0.0,0.0,0.0,0.0,0.0,0.0,0.0,0.0,0.0,0.0,0.0,-0.1619,-0.0944,-0.0,0.0124,0.0271,0.0,0.0,0.0,0.0,0.307,0.4134,0.4546,0.48,0.5145,0.562,0.563,0.5789,0.6115,0.6271,0.6495,0.6793,0.7088,0.7377,0.7648,0.7821,0.7984,0.814,0.8381,0.8499,0.8547,0.8764,0.8849,0.8821,0.8574,0.8482,0.8469,0.8353,0.8218,0.7989,0.8052,0.7801,0.763,0.7729,0.7289,0.6476,0.5202,0.4991,0.0,0.0,0.0,0.0,0.0,0.0,0.0,0.0,0.0,0.4751,0.5325,0.578,0.612,0.65,0.7253,0.796,0.8204,0.8762,0.9252,0.9279,0.9496,0.9557,0.9313,0.9391,0.9456,0.9429,0.9561,0.9649,0.9649,0.9754,0.9822,0.9822,0.9822,0.9822,0.9822,0.9849,0.9849,0.9822,0.9849,0.9849,0.9822,0.9822,0.9822,0.9822,0.9822,0.9822,0.9819,0.9791,0.9683,0.9503,0.9289,0.903,0.8865,0.8904,0.5958,0.1565,0.0448,-0.0,-0.0,0.0,0.0,0.0,0.0,0.0,0.0,0.0,0.0,0.0,0.0,0.0,0.0,0.0,0.0,0.0,0.0,0.0,0.0,0.1456,0.1858,0.2883,0.4699,0.4989,0.5267,0.5766,0.5779,0.5989,0.6424,0.6576,0.6803,0.7099,0.7404,0.7634,0.7801,0.8089,0.8299,0.8435,0.8469,0.856,0.8676,0.8574,0.8533,0.853,0.8496,0.8482,0.8479,0.8465,0.7832,0.7063,0.7815,0.7475,0.7044,0.7932,0.7607,0.6789,0.6261,0.0,0.4529,0.4159,0.5086,0.5723,0.4364,0.4478,0.5174,0.0,0.0,0.6615,0.7674,0.8166,0.8354,0.827,0.8629,0.9103,0.9256,0.9435,0.9602,0.9727,0.9774,0.9785,0.9751,0.9761,0.9724,0.9595,0.9713,0.9798,0.9798,0.9812,0.9822,0.9822,0.9822,0.9822,0.9822,0.9951,0.9958,0.9822,0.9958,0.9958,0.9822,0.9822,0.9822,0.9822,0.9822,0.9822,0.9815,0.9686,0.9469,0.9211,0.9215,0.9124,0.8927,0.894,0.8448,0.7312,0.1905,-0.0,-0.0,0.0,0.0,0.0,0.0,0.0,0.0,0.0,0.0,0.0,0.0,0.0,0.0,0.0,0.0,0.0,0.0,0.0,0.0,0.0274,0.0572,0.1102,0.1955,0.4003,0.524,0.5534,0.5691,0.5983,0.6349,0.6583,0.6851,0.7146,0.7455,0.7675,0.7821,0.8038,0.817,0.8235,0.8408,0.852,0.8587,0.8703,0.8696,0.8615,0.8615,0.8397,0.8079,0.7793,0.7376,0.0,0.0,0.699,0.6983,0.7771,0.7325,0.6452,0.601,0.5314,0.0,0.4921,0.5023,0.5147,0.0,0.5704,0.6207,0.7165,0.7654,0.7968,0.8574,0.9032,0.9337,0.9273,0.949,0.9696,0.0,0.9747,0.9754,0.9812,0.9822,0.9758,0.9585,0.9642,0.9707,0.973,0.9785,0.9822,0.9822,0.9822,0.9822,0.9822,0.9822,0.9822,0.9822,0.9971,1.0019,0.9954,1.0019,1.0019,0.9951,0.9863,0.9822,0.9822,0.9822,0.9822,0.9819,0.9758,0.9666,0.9561,0.9432,0.9372,0.9395,0.906,0.8876,0.8124,0.2252,-0.0,-0.0,0.0,0.0,0.0,0.0,0.0,0.0,0.0,0.0,0.0,0.0,0.0,0.0,0.0,0.0,0.0,0.0,0.0,0.0,0.0,-0.023,-0.0,-0.0,0.2851,0.4756,0.5454,0.5661,0.5969,0.6318,0.6576,0.6851,0.7146,0.7414,0.7634,0.7818,0.797,0.8062,0.8116,0.8333,0.8425,0.8438,0.8618,0.8598,0.8452,0.837,0.7942,0.7338,0.7123,0.6872,0.0,0.0,0.6085,0.6129,0.6788,0.6471,0.5808,0.5531,0.4959,0.454,0.5025,0.0,0.0,0.6231,0.6737,0.7214,0.8022,0.8615,0.9025,0.9259,0.9615,0.9883,0.9883,0.9941,0.9985,0.9985,0.9893,0.9822,0.9822,0.9751,0.9622,0.9405,0.9408,0.9466,0.9568,0.969,0.9764,0.9764,0.9798,0.9822,0.9822,0.9822,0.9822,0.9822,1.0012,1.0093,1.0049,1.0131,1.0131,1.0046,0.9937,0.9863,0.9822,0.9822,0.9822,0.9822,0.9829,0.9815,0.967,0.9623,0.955,0.9453,0.9039,0.7873,0.5954,0.1578,-0.0,-0.0,0.0,0.0,0.0,0.0,0.0,0.0,0.0,0.0,0.0,0.0,0.0,0.0,0.0,0.0,0.0,0.0,0.0,0.0,0.0,-0.0311,-0.0,-0.0,0.1755,0.3658,0.5669,0.5735,0.602,0.6464,0.6624,0.6851,0.7143,0.7302,0.7533,0.7818,0.797,0.8123,0.8265,0.8272,0.8279,0.8265,0.8123,0.7974,0.7807,0.7522,0.6944,0.6391,0.6926,0.0,0.0,0.0,0.4585,0.401,0.4785,0.4885,0.0,0.5012,0.439,0.3734,0.0,0.0,0.5291,0.6444,0.7504,0.8428,0.9167,0.9462,0.9707,1.0148,1.0134,1.0042,1.0042,0.9924,0.9829,0.9829,0.9825,0.9822,0.9822,0.9574,0.9391,0.9384,0.913,0.896,0.0,0.9361,0.9615,0.9615,0.9744,0.9822,0.9822,0.9822,0.9822,0.9822,1.0117,1.0202,1.0049,1.0334,1.0334,1.0049,1.0042,0.9964,0.9822,0.9822,0.9822,0.9822,0.9846,0.9654,0.9543,0.9731,0.9427,0.8931,0.8848,0.5328,0.0224,0.0112,-0.0,-0.0,0.0,0.0,0.0,0.0,0.0,0.0,0.0,0.0,0.0,0.0,0.0,0.0,0.0,0.0,0.0,0.0,0.0,0.0,0.0,-0.0785,-0.0,-0.0,0.0609,0.2334,0.5442,0.5681,0.5846,0.6061,0.628,0.6645,0.7062,0.7011,0.7153,0.7536,0.7682,0.7828,0.798,0.8184,0.8272,0.8255,0.8102,0.7593,0.6884,0.6793,0.601,0.4986,0.0,0.0,0.0,0.0,0.0,0.0,0.4558,0.0,0.3518,0.3588,0.3839,0.4244,0.5118,0.0,0.6563,0.7648,0.8454,0.91,0.9452,0.9805,1.0039,0.9988,0.9439,0.9111,0.9912,0.8518,0.7783,0.949,0.9039,0.874,0.9533,0.9676,0.9527,0.9133,0.9083,0.0,0.0,0.0,0.0,0.9306,0.954,0.968,0.968,0.9771,0.9822,0.9822,1.0019,1.0103,1.0049,1.0148,1.0148,1.0046,0.9944,0.9869,0.9822,0.9822,0.9822,0.9822,0.9846,0.8468,0.6595,0.8903,0.7072,0.297,0.2988,0.1761,-0.0,-0.0,-0.0,-0.0,0.0,0.0,0.0,0.0,0.0,0.0,0.0,0.0,0.0,0.0,0.0,0.0,0.0,0.0,0.0,0.0,0.0,0.0,0.0,0.0,-0.0994,-0.0677,-0.045,0.0866,0.3337,0.3928,0.4256,0.4406,0.5061,0.561,0.5953,0.5721,0.6199,0.7182,0.7368,0.7616,0.792,0.8135,0.7801,0.709,0.6998,0.6474,0.579,0.5411,0.4785,0.0,0.0,0.0,0.0,0.0,0.0,0.0,0.0,0.3115,0.2648,0.3097,0.3747,0.4568,0.5899,0.6743,0.7522,0.8625,0.9215,0.9591,0.9802,1.0029,0.9985,0.9316,0.8696,0.8301,0.8467,0.7371,0.6797,0.85,0.8387,0.843,0.9288,0.9432,0.9344,0.9123,0.9039,0.8866,0.0,0.0,0.0,0.9076,0.9456,0.9663,0.9612,0.9744,0.9822,0.9822,0.9971,1.0049,1.0049,1.0103,1.0103,1.0046,0.9893,0.9822,0.9822,0.9822,0.9825,0.9836,0.9741,0.8634,0.666,0.6427,0.3793,-0.0,-0.0,-0.0,-0.0,-0.0,-0.0,-0.0,0.0,0.0,0.0,0.0,0.0,0.0,0.0,0.0,0.0,0.0,0.0,0.0,0.0,0.0,0.0,0.0,0.0,0.0,0.0,0.0,0.0,-0.2009,-0.1364,-0.0803,-0.0344,0.0764,0.1427,0.1701,0.2997,0.3643,0.3634,0.3493,0.4474,0.6314,0.663,0.713,0.7621,0.7641,0.6565,0.4799,0.492,0.473,0.4349,0.3582,0.0,0.0,0.0,0.0,0.0,0.0,0.0,0.0,0.0,0.1847,0.2314,0.3693,0.4263,0.4792,0.6534,0.749,0.8238,0.9369,0.9734,0.9907,1.0192,1.0124,0.9549,0.8423,0.7913,0.7379,0.0,0.0,0.6796,0.6893,0.7979,0.8944,0.9123,0.893,0.8913,0.0,0.0,0.0,0.0,0.0,0.0,0.895,0.0,0.9744,0.9615,0.9744,0.9822,0.9822,0.9961,1.0036,1.0036,1.0181,1.0181,1.0036,0.989,0.9822,0.9822,0.9822,0.9836,0.9856,0.9771,0.9798,0.9312,0.2716,-0.0,-0.0,-0.0,-0.0,-0.0,-0.0,-0.0,-0.0,0.0,0.0,0.0,0.0,0.0,0.0,0.0,0.0,0.0,0.0,0.0,0.0,0.0,0.0,0.0,0.0,0.0,0.0,0.0,0.0,0.0,0.0,0.0,0.0,0.0,0.0,0.0,0.0,0.0,0.0682,-0.0167,0.0509,0.0953,0.1159,0.2369,0.2877,0.2884,0.3149,0.3147,0.2947,0.0,0.2586,0.2257,0.0,0.0,0.0,0.0,0.0,0.0,0.0,0.0,0.0,0.0,0.3497,0.4456,0.5579,0.6186,0.6734,0.8229,0.8911,0.9364,0.9747,0.9964,0.9981,0.9947,0.9171,0.8283,0.7888,0.6497,0.5438,0.0,0.0,0.0,0.5021,0.6463,0.0,0.9134,0.9357,0.0,0.9381,0.0,0.914,0.8957,0.914,0.0,0.0,0.9344,0.9527,0.9605,0.9744,0.9822,0.9822,0.9859,0.988,0.988,0.9917,0.9917,0.988,0.9839,0.9822,0.9822,0.9839,0.9849,0.9859,0.9787,0.9811,0.9312,0.2716,-0.0,-0.0,-0.0,-0.0,-0.0,-0.0,-0.0,-0.0,0.0,0.0,0.0,0.0,0.0,0.0,0.0,0.0,0.0,0.0,0.0,0.0,0.0,0.0,0.0,0.0,0.0,0.0,0.0,0.0,0.0,0.0,0.0,0.0,0.0,0.0,0.0,0.0,0.0,0.0,0.0,-0.1519,-0.1609,-0.2048,-0.1736,-0.1472,-0.1189,-0.1123,0.0,0.0,0.0,0.0,0.0,0.0,0.0,0.0,0.0,0.0,0.0,0.0,0.0,0.3315,0.4457,0.572,0.6864,0.7218,0.0,0.7833,0.9144,0.9774,1.0137,1.0222,1.0195,0.9932,0.9219,0.8875,0.8235,0.6524,0.5497,0.0,0.4087,0.0,0.0,0.0,0.0,0.0,0.8913,0.9178,0.9357,0.0,0.9483,0.0,0.9337,0.9422,0.9469,0.0,0.9527,0.9585,0.9608,0.9744,0.9822,0.9822,0.9822,0.9822,0.9822,0.9822,0.9822,0.9822,0.9822,0.9822,0.9822,0.9846,0.8989,0.7752,0.0,0.8181,0.5192,0.1481,-0.0,-0.0,-0.0,-0.0,-0.0,-0.0,-0.0,-0.0,0.0,0.0,0.0,0.0,0.0,0.0,0.0,0.0,0.0,0.0,0.0,0.0,0.0,0.0,0.0,0.0,0.0,0.0,0.0,0.0,0.0,0.0,0.0,0.0,0.0,0.0,0.0,0.0,0.0,0.0,0.0,0.0,0.0,0.0,0.0,0.0,0.0,0.0,0.0,0.0,0.0,0.0,0.0,0.0,0.0,0.0,0.0,0.0,0.0,0.0,0.1793,0.253,0.5494,0.7639,0.8868,0.8734,0.8487,0.8603,0.961,1.0195,1.0514,1.0473,1.0341,0.981,0.8389,0.869,0.8347,0.4874,0.0,0.4201,0.2429,0.3074,0.4212,0.5289,0.0,0.7885,0.8476,0.8771,0.9106,0.9557,0.9608,0.9666,0.9805,0.971,0.969,0.9812,0.9822,0.9768,0.9646,0.9754,0.9822,0.9822,0.9822,0.9822,0.9822,0.9822,0.9822,0.9822,0.9822,0.9822,0.9825,0.9849,0.825,0.5663,0.7672,0.5315,-0.0,-0.0,-0.0,-0.0,-0.0,-0.0,-0.0,-0.0,-0.0,0.0113,0.0,0.0,0.0,0.0,0.0,0.0,0.0,0.0,0.0,0.0,-0.6466,-0.6083,0.0,0.0,0.0,0.0,0.0,0.0,0.0,0.0,0.0,0.0,0.0,0.0,0.0,0.0,0.0,0.0,0.0,0.0,0.0,0.0,0.0,0.0,0.0,0.0,0.0,0.0,0.0,0.0,0.0,0.0,0.0,0.0,0.0,0.0,0.0,0.0,0.0,0.0,0.1499,0.1719,0.4366,0.7044,0.9117,0.924,0.9319,0.9623,1.0103,1.0436,1.0622,1.0378,1.0107,0.9499,0.8118,0.7376,0.0,0.0,0.2504,0.1403,0.2559,0.2517,0.3349,0.6305,0.0,0.0,0.0,0.0,0.9106,0.0,0.0,0.0,0.0,0.0,0.0,0.0,0.0,0.9812,0.9785,0.9805,0.9822,0.9822,0.9822,0.9822,0.9822,0.9822,0.9822,0.9822,0.9822,0.9832,0.9849,0.9761,0.9536,0.8676,0.3828,0.0,-0.0,-0.0,-0.0,-0.0,-0.0,-0.0,-0.0,-0.0,-0.0,0.0803,0.0,0.0,0.0,0.0,0.0,0.0,0.0,0.0,-0.6726,-0.485,-0.4803,-0.5076,-0.5392,-0.5309,0.0,0.0,0.0,0.0,0.0,0.0,0.0,0.0,0.0,0.0,0.0,0.0,0.0,0.0,0.0,0.0,0.0,0.0,0.0,0.0,0.0,0.0,0.0,0.0,0.0,0.0,0.0,0.0,0.0,0.0,0.0,0.0,0.0,0.0,0.0,0.0,0.1591,0.1503,0.2096,0.5511,0.91,0.8376,0.8994,0.9798,0.9342,0.9999,1.0666,1.0446,1.0103,0.9222,0.7155,0.0,0.0,0.0,0.1106,0.0344,0.1169,0.0,0.0,0.0,0.0,0.0,0.0,0.0,0.0,0.0,0.0,0.0,0.0,0.0,0.0,0.0,0.0,0.9822,0.9822,0.9822,0.9822,0.9822,0.9822,0.9822,0.9822,0.9822,0.9822,0.9822,0.9822,0.9832,0.9734,0.8011,0.8158,0.9439,0.284,-0.0,-0.0,-0.0,-0.0,0.0353,0.377,0.5114,0.4903,0.3146,0.2571,0.3025,0.0,0.0,0.0,0.0,0.0,0.0,0.0,-0.6594,-0.5868,-0.3092,-0.3208,-0.3851,-0.4613,-0.4554,-0.4622,0.0,0.0,0.0,0.0,0.0,0.0,0.0,0.0,0.0,0.0,0.0,0.0,-0.2394,0.0,0.0,0.0,0.0,0.0,0.0,0.0,0.0,0.0,0.0,0.0,0.0,0.0,0.0,0.0,0.0,0.0,0.0,0.0,0.0,0.0,0.0,0.196,0.1702,0.0875,0.4245,0.8301,0.7411,0.8295,0.9395,0.8819,0.9558,1.0626,1.0443,1.0036,0.8913,0.6287,0.5472,0.0,0.0,0.0339,0.0065,-0.0,0.0,0.3573,0.0,0.0,0.0,0.0,0.0,0.0,0.0,0.0,0.0,0.0,0.0,0.0,0.0,0.0,0.0,0.9822,0.9822,0.9822,0.9822,0.9822,0.9822,0.9822,0.9822,0.9822,0.9822,0.9822,0.9836,0.9741,0.6394,0.5916,0.7431,0.2222,-0.0,-0.0,-0.0,0.0717,0.2474,0.7718,0.9778,0.9512,0.6955,0.592,0.5915,0.0,0.0,0.0,0.0,0.0,0.0,0.0,-0.5981,-0.4923,-0.3348,-0.3104,-0.3153,-0.3359,-0.3412,-0.3932,0.0,0.0,0.0,0.0,0.0,0.0,0.0,0.0,0.0,0.0,0.0,0.0,-0.2654,-0.2245,0.0,0.0,0.0,0.0,0.0,0.0,-0.2549,0.0,0.0,0.0,0.0,0.0,0.0,0.0,0.0,0.0,0.0,0.0,0.0,0.0,0.0,0.0,0.2594,0.2672,0.3986,0.5804,0.7425,0.0,0.0,0.9404,1.0137,1.0443,1.0161,0.9649,0.8638,0.6139,0.0,0.0,0.1178,0.0453,0.0369,0.0356,0.0365,0.1089,0.0,0.0,0.3528,0.0,0.0,0.0,0.0,0.0,0.0,0.0,0.0,0.0,0.0,0.0,0.0,0.9822,0.9822,0.9822,0.9822,0.9822,0.9822,0.9822,0.9822,0.9822,0.9822,0.9822,0.9849,0.9652,0.6403,0.3446,0.0864,0.0247,-0.0,0.0,-0.0,0.3226,0.8175,0.9394,0.9745,0.9752,0.946,0.9405,0.9307,0.0,0.0,0.0,0.0,0.0,0.0,0.0,-0.5433,-0.4481,-0.1374,-0.2018,-0.2487,-0.1766,-0.2126,-0.3086,0.0,0.0,0.0,0.0,0.0,0.0,0.0,0.0,0.0,0.0,0.0,0.0,-0.2337,-0.2162,0.0,0.0,0.0,0.0,0.0,0.0,-0.1836,-0.1728,0.0,0.0,0.0,0.0,0.0,0.0,0.0,0.0,0.0,0.0,0.0,0.0,0.0,0.0,0.0,0.268,0.3125,0.0,0.0,0.5896,0.769,0.7419,0.87,1.0175,0.9964,0.9327,0.8302,0.6579,0.0,0.0,0.1441,0.1363,0.1615,0.1062,0.0833,0.1161,0.0,0.0,0.0,0.0,0.0,0.0,0.0,0.0,0.0,0.0,0.0,0.0,0.0,0.0,0.0,0.9822,0.9822,0.9822,0.9822,0.9822,0.9822,0.9822,0.9822,0.9822,0.9822,0.9836,0.9741,0.9777,0.8453,0.499,-0.0,-0.0,0.2293,0.0,0.1675,0.1428,0.3938,0.7957,0.9615,0.9769,0.9771,0.9819,0.9774,0.0,0.0,0.0,0.0,0.0,-0.6693,-0.4929,-0.4967,-0.3996,-0.0619,-0.1396,-0.1884,-0.0868,-0.1727,-0.2822,-0.39,0.0,0.0,0.0,0.0,0.0,0.0,0.0,0.0,0.0,0.0,-0.1931,-0.1891,-0.1828,-0.177,0.0,0.0,-0.198,-0.1946,0.0,0.0,0.0,0.0,0.0,0.0,0.0,0.0,0.0,0.0,0.0,0.0,0.0,0.0,0.0,0.0,0.0,0.0,0.0,0.0,0.0,0.0,0.4281,0.6498,0.6271,0.7738,0.9354,0.9618,0.8836,0.7672,0.0,0.0,0.0,0.143,0.1546,0.1861,0.1337,0.1278,0.1354,0.0,0.0,0.2662,0.3491,0.0,0.0,0.0,0.0,0.0,0.0,0.0,0.0,0.0,0.0,0.0,0.9822,0.9822,0.9822,0.9822,0.9822,0.9822,0.9822,0.9829,0.9832,0.9832,0.9859,0.9741,0.9849,0.9805,0.7294,0.2772,0.0834,0.2632,0.0,0.4061,0.2385,0.2042,0.7386,0.958,0.9796,0.9781,0.9822,0.9822,0.0,0.0,0.0,0.0,0.0,0.0,0.0,-0.4658,-0.3326,-0.1961,-0.1614,-0.1356,-0.0933,-0.2631,-0.34,-0.241,0.0,0.0,0.0,0.0,0.0,0.0,0.0,0.0,0.0,0.0,-0.1082,-0.1405,-0.1198,-0.0983,-0.0714,-0.0916,-0.0916,-0.0715,0.0,0.0,0.0,0.0,0.0,0.0,0.0,0.0,0.0,0.0,0.0,0.0,0.0,0.0,0.0,0.0,0.0,0.0,0.0,0.0,0.0,0.0,0.393,0.4451,0.6721,0.7542,0.7852,0.8937,0.8059,0.6608,0.0,0.0,0.3046,0.1134,0.0574,0.0561,0.1123,0.1123,0.1376,0.2137,0.1971,0.0,0.2452,0.0,0.0,0.0,0.0,0.0,0.0,0.0,0.0,0.0,0.0,0.0,0.9822,0.9822,0.9822,0.9822,0.9822,0.9822,0.9822,0.9842,0.9856,0.9856,0.9767,0.9842,0.9844,0.9751,0.9734,0.9346,0.2773,-0.0,0.0,0.7054,0.7733,0.5172,0.856,0.9754,0.9629,0.9768,0.9822,0.9822,0.0,0.0,0.0,0.0,0.0,0.0,0.0,-0.6021,-0.5286,-0.3889,-0.3055,-0.2186,-0.1088,-0.0,0.0485,0.0063,0.0,0.0,0.0,0.0,0.0,0.0,0.0,0.0,0.0,0.0,-0.0644,-0.0505,-0.0778,-0.0758,-0.049,-0.0379,-0.0245,-0.0067,0.0268,0.0,0.0,0.0,0.0,0.0,0.0,0.0,0.0,0.0,0.0,0.0,0.0,0.0,0.0,0.0,0.0,0.0,0.0,0.0,0.0,0.0,0.0,0.0,0.4765,0.5927,0.7293,0.8895,0.8785,0.7696,0.5442,0.0,0.0,0.1333,0.1286,0.1684,0.2048,0.2002,0.2103,0.2543,0.2495,0.0,0.0,0.0,0.0,0.0,0.0,0.0,0.0,0.0,0.0,0.0,0.0,0.0,0.9822,0.9822,0.9822,0.9822,0.9822,0.9822,0.9822,0.9842,0.9856,0.9856,0.966,0.9617,0.9593,0.5154,0.5333,0.9049,0.7469,0.6667,0.6437,0.6485,0.7145,0.8311,0.9342,0.9822,0.9781,0.9808,0.9822,0.9822,0.0,0.0,0.0,0.0,0.0,0.0,0.0,-0.5716,-0.4846,-0.413,-0.3187,-0.1876,-0.0061,0.1186,0.1941,0.1998,0.0,0.0,0.0,0.0,0.0,0.0,0.0,0.0,0.0,0.0353,-0.0,0.0205,-0.0065,-0.0111,0.0067,0.0311,0.0468,0.0557,0.0938,0.1252,0.0,0.0,0.0,0.0,0.0,0.0,0.2027,0.0,0.0,0.0,0.0,0.0,0.0,0.0,0.0,0.0,0.0,0.0,0.0,0.0,0.2053,0.0,0.0,0.3542,0.4737,0.6566,0.6885,0.0,0.0,0.0,0.0,0.1495,0.1676,0.2085,0.2318,0.2387,0.2487,0.2917,0.2932,0.0,0.0,0.0,0.0,0.0,0.0,0.0,0.0,0.0,0.0,0.0,0.0,0.0,0.9822,0.9822,0.9822,0.9822,0.9822,0.9822,0.9822,0.9842,0.9329,0.8533,0.7911,0.833,0.9288,0.4025,0.4462,0.9083,0.9367,0.9462,0.0,0.7514,0.7845,0.9852,0.9846,0.9842,0.9839,0.9825,0.9822,0.9822,0.0,0.0,0.0,0.0,0.0,0.0,0.0,0.0,0.0,-0.3194,-0.2372,-0.0844,0.1471,0.1152,0.1497,0.3304,0.0,0.0,0.0,0.0,0.0,0.0,0.0,0.0,0.0,0.1091,0.0721,0.0729,0.0778,0.0825,0.0825,0.1033,0.1145,0.1161,0.1477,0.1724,0.0,0.0,0.0,0.0,0.0,0.0,0.0,0.0,0.0,0.0,0.0,0.0,0.0,0.0,0.0,0.0,0.0,0.0,0.0,0.0,0.0,0.0,0.0,0.0,0.0,0.0,0.0,0.0,0.0,0.0,0.0,0.0,0.0,0.0,0.2265,0.2447,0.2757,0.3261,0.0,0.0,0.0,0.0,0.0,0.0,0.0,0.0,0.0,0.0,0.0,0.0,0.0,0.0,0.9805,0.9815,0.9815,0.9805,0.9805,0.9805,0.9805,0.9829,0.8657,0.6595,0.5591,0.6471,0.8892,0.604,0.6537,0.0,0.9066,0.9238,0.9802,0.9551,0.9608,0.9849,0.9829,0.9822,0.9822,0.9822,0.9822,0.9822,0.0,0.0,0.0,0.0,0.0,0.0,0.0,0.0,0.0,0.0,-0.3201,-0.1734,-0.0997,0.1093,0.2615,0.0,0.0,0.0,0.0,0.0,0.0,0.0,0.0,0.0,0.0,0.1322,0.1,0.0996,0.0974,0.1005,0.1118,0.1307,0.1488,0.1629,0.1782,0.1916,0.0,0.0,0.0,0.0,0.0,0.0,0.0,0.0,0.0,0.0,0.2908,0.2936,0.0,0.0,0.0,0.0,0.0,0.0,0.0,0.0,0.137,0.1019,0.0434,0.0,0.0703,0.1618,0.1814,0.1822,0.0,0.0,0.0,0.0,0.0,0.0,0.0,0.0,0.0,0.0,0.0,0.0,0.0,0.0,0.0,0.0,0.0,0.0,0.0,0.0,0.0,0.0,0.0,0.9659,0.9659,0.9764,0.9771,0.9663,0.9659,0.9659,0.9659,0.9563,0.943,0.9029,0.8248,0.8417,0.9278,0.8491,0.8499,0.91,0.9406,0.9503,0.9503,0.9663,0.9768,0.9829,0.9822,0.9822,0.9822,0.9822,0.9822,0.9822,0.0,0.0,0.0,0.0,0.0,0.0,0.0,0.0,0.0,0.0,0.0,0.0,0.0,0.0,0.0,0.0,0.0,0.0,0.0,0.0,0.0,0.0,0.0,0.0,0.2407,0.1754,0.1441,0.1462,0.1462,0.1449,0.143,0.1738,0.1875,0.1898,0.2184,0.2449,0.0,0.0,0.0,0.0,0.3402,0.0,0.0,0.0,0.0,0.0,0.3017,0.2896,0.0,0.2456,0.2377,0.2336,0.0,0.0,0.0,0.0,0.1644,0.1391,0.0977,0.0832,0.0912,0.1419,0.1697,0.1826,0.0,0.0,0.0,0.0,0.0,0.0,0.0,0.0,0.0,0.0,0.0,0.0,0.0,0.0,0.0,0.0,0.0,0.0,0.0,0.0,0.0,0.0,0.0,0.9537,0.9605,0.9683,0.969,0.9612,0.9608,0.9608,0.9608,0.9551,0.9486,0.9538,0.9205,0.9138,0.9218,0.9154,0.9091,0.9072,0.9395,0.9513,0.95,0.9659,0.9724,0.9724,0.9724,0.9683,0.9618,0.9618,0.9618,0.9618,0.0,0.0,0.0,0.0,0.0,0.0,0.0,0.0,0.0,0.0,0.0,0.0,0.0,0.0,0.0,0.0,0.0,0.0,0.0,0.0,0.0,0.0,0.0,0.272,0.3108,0.2387,0.2022,0.2044,0.2094,0.2042,0.184,0.2237,0.2314,0.2172,0.2648,0.3011,0.0,0.0,0.3257,0.3227,0.3686,0.0,0.0,0.0,0.0,0.0,0.0,0.0,0.0,0.2422,0.2339,0.2317,0.2045,0.0,0.0,0.0,0.0,0.0,0.2001,0.1698,0.1447,0.1886,0.2271,0.2459,0.0,0.0,0.0,0.0,0.0,0.0,0.0,0.0,0.0,0.0,0.0,0.0,0.0,0.0,0.0,0.0,0.0,0.0,0.0,0.0,0.0,0.0,0.0,0.9401,0.9534,0.9561,0.9564,0.954,0.954,0.954,0.954,0.9412,0.9283,0.9154,0.9262,0.9195,0.8977,0.9096,0.914,0.9123,0.0,0.0,0.954,0.9564,0.9574,0.9574,0.9574,0.9496,0.9381,0.9381,0.9381,0.9381,0.0,0.0,0.0,0.0,0.0,0.0,0.0,0.0,0.0,0.0,0.0,0.0,0.0,0.0,0.0,0.0,0.0,0.0,0.0,0.0,0.0,0.0,0.482,0.3724,0.4087,0.3373,0.2889,0.2661,0.2729,0.2664,0.2473,0.2815,0.2931,0.2852,0.3048,0.3135,0.3138,0.3302,0.3478,0.3624,0.3711,0.0,0.0,0.0,0.0,0.0,0.0,0.0,0.0,0.2501,0.2589,0.2683,0.2411,0.0,0.0,0.0,0.0,0.0,0.2623,0.2499,0.2485,0.3202,0.3169,0.3061,0.3263,0.0,0.0,0.0,0.0,0.0,0.0,0.0,0.0,0.0,0.0,0.0,0.0,0.0,0.0,0.0,0.0,0.0,0.0,0.0,0.0,0.0,0.0,0.9198,0.9222,0.9347,0.9357,0.9225,0.9222,0.9222,0.9222,0.9201,0.9174,0.915,0.9055,0.9049,0.912,0.9144,0.9086,0.8984,0.0,0.93,0.9235,0.9364,0.9415,0.9415,0.9415,0.9401,0.9381,0.9381,0.9381,0.9381,0.0,0.0,0.0,0.0,0.0,0.0,0.0,0.0,0.0,0.0,0.0,0.0,0.0,0.0,0.0,0.0,0.0,0.0,0.0,0.0,0.0,0.7456,0.6383,0.5528,0.4952,0.4229,0.3605,0.306,0.3168,0.3079,0.2831,0.3074,0.3338,0.3607,0.3584,0.3612,0.3654,0.3688,0.373,0.3759,0.0,0.0,0.0,0.0,0.0,0.0,0.0,0.0,0.0,0.0,0.2946,0.3142,0.2907,0.0,0.0,0.0,0.0,0.0,0.3457,0.3605,0.3839,0.466,0.4179,0.3614,0.4195,0.0,0.0,0.0,0.0,0.0,0.0,0.0,0.0,0.0,0.0,0.0,0.0,0.0,0.0,0.0,0.0,0.0,0.0,0.0,0.0,0.0,0.0,0.0,0.915,0.9218,0.9225,0.9154,0.9154,0.9117,0.9039,0.9035,0.9035,0.9035,0.8971,0.8974,0.9035,0.9035,0.9001,0.895,0.0,0.9218,0.9164,0.9317,0.9334,0.9259,0.9259,0.9211,0.9144,0.9144,0.9144,0.9154,0.0,0.0,0.0,0.0,0.0,0.0,0.0,0.0,0.0,0.0,0.0,0.0,0.0,0.0,0.0,0.0,0.0,0.0,0.0,0.0,0.8663,0.7879,0.7643,0.69,0.5552,0.4934,0.4285,0.3601,0.3643,0.3529,0.323,0.3329,0.3632,0.4059,0.4002,0.4054,0.4163,0.4155,0.4094,0.398,0.0,0.0,0.0,0.0,0.0,0.0,0.0,0.0,0.0,0.0,0.0,0.0,0.0,0.0,0.0,0.3574,0.3759,0.4033,0.4289,0.4496,0.4819,0.5689,0.0,0.4556,0.5546,0.0,0.0,0.0,0.0,0.0,0.0,0.0,0.0,0.0,0.0,0.0,0.0,0.0,0.0,0.0,0.0,0.0,0.0,0.0,0.0,0.0,0.8886,0.8947,0.9096,0.9103,0.9103,0.9103,0.9103,0.9049,0.894,0.8903,0.8903,0.894,0.894,0.894,0.894,0.894,0.894,0.8944,0.9055,0.9103,0.9113,0.9228,0.9208,0.9103,0.9103,0.9035,0.8933,0.8899,0.891,0.8964,0.0,0.0,0.0,0.0,0.0,0.0,0.0,0.0,0.0,0.0,0.0,0.0,0.0,0.0,0.0,0.0,0.0,0.0,0.0,0.0,0.9492,0.9183,0.8159,0.6966,0.5624,0.5355,0.4992,0.451,0.427,0.4076,0.3918,0.3761,0.3754,0.3921,0.4173,0.431,0.4389,0.4567,0.4615,0.4524,0.4338,0.0,0.0,0.0,0.0,0.0,0.0,0.0,0.0,0.0,0.0,0.0,0.0,0.0,0.4403,0.4281,0.4352,0.4573,0.5065,0.4909,0.4824,0.5747,0.0,0.0,0.7749,0.8235,0.0,0.0,0.0,0.0,0.0,0.0,0.0,0.0,0.0,0.0,0.0,0.0,0.0,0.0,0.0,0.0,0.0,0.0,0.0,0.8716,0.8726,0.8794,0.8947,0.8954,0.8954,0.8954,0.8954,0.895,0.894,0.8798,0.8798,0.894,0.894,0.894,0.894,0.894,0.894,0.894,0.895,0.8954,0.8954,0.8964,0.8964,0.8954,0.8954,0.8947,0.892,0.8777,0.8828,0.8863,0.0,0.0,0.0,0.0,0.0,0.0,0.0,0.0,0.0,0.0,0.0,0.0,0.0,0.0,0.0,0.0,0.0,0.0,0.0,0.0,0.9549,0.8785,0.8129,0.7266,0.613,0.561,0.5011,0.4293,0.4269,0.4228,0.4133,0.4304,0.4473,0.4663,0.4759,0.4811,0.4824,0.4774,0.4724,0.4635,0.4394,0.4224,0.0,0.0,0.0,0.0,0.0,0.0,0.0,0.0,0.4146,0.4329,0.4431,0.4588,0.4763,0.4777,0.485,0.4957,0.5316,0.5636,0.593,0.6264,0.0,0.0,0.0,0.0,0.0,0.0,0.0,0.0,0.0,0.0,0.0,0.0,0.0,0.0,0.0,0.0,0.0,0.0,0.0,0.0,0.0,1.0172,0.975,0.9711,0.8984,0.8594,0.8652,0.8655,0.8655,0.8655,0.8655,0.8655,0.8655,0.8598,0.8598,0.8655,0.8655,0.8655,0.8659,0.8754,0.8798,0.8798,0.8798,0.8798,0.8791,0.8696,0.8655,0.8655,0.8655,0.8723,0.8702,0.8642,0.8732,0.8883,0.0,0.0,0.0,0.0,0.0,0.0,0.0,0.0,0.0,0.0,0.0,0.0,0.0,0.0,0.0,0.0,0.0,0.0,0.0,0.9814,0.9581,0.8928,0.8629,0.7962,0.6866,0.6306,0.5554,0.4576,0.4663,0.4644,0.4508,0.4909,0.5127,0.5206,0.5202,0.5211,0.5251,0.5016,0.4893,0.4814,0.4555,0.4435,0.0,0.0,0.0,0.0,0.0,0.0,0.0,0.0,0.4502,0.4591,0.4816,0.5043,0.5258,0.5331,0.5404,0.5558,0.589,0.6241,0.6575,0.0,0.0,0.0,0.0,0.0,0.0,0.0,0.0,0.0,0.0,0.0,0.0,0.0,0.0,0.0,0.0,0.0,0.0,0.0,0.0,1.1309,1.2287,1.142,1.0901,1.0959,0.9741,0.9046,0.91,0.8689,0.8482,0.8482,0.8482,0.8482,0.8482,0.8438,0.8414,0.8414,0.8364,0.8391,0.8486,0.8591,0.8638,0.8638,0.8638,0.8638,0.8628,0.8526,0.8482,0.8476,0.8431,0.852,0.8558,0.8508,0.8716,0.8879,0.0,0.0,0.0,0.0,0.0,0.0,0.0,0.0,0.0,0.0,0.0,0.0,0.0,0.0,0.0,0.0,0.0,0.0,0.9286,0.9496,0.9727,0.9967,0.9793,0.9091,0.7811,0.7522,0.6815,0.559,0.5595,0.547,0.5204,0.5556,0.559,0.5415,0.5409,0.5495,0.5574,0.533,0.5159,0.5088,0.4882,0.4762,0.4691,0.0,0.0,0.0,0.0,0.0,0.0,0.0,0.4677,0.457,0.4985,0.0,0.5981,0.5937,0.6092,0.6413,0.6851,0.665,0.6497,0.0,0.0,0.0,0.0,0.0,0.0,0.0,0.0,0.0,0.0,0.0,0.0,0.0,0.0,0.0,0.0,0.0,0.0,0.0,1.2114,1.2031,1.2243,1.2071,1.2036,1.2248,1.0961,1.0238,1.0427,0.9201,0.8476,0.8476,0.8476,0.8479,0.8479,0.834,0.8269,0.8269,0.8113,0.8194,0.8479,0.8479,0.8479,0.8479,0.8479,0.8479,0.8479,0.8479,0.8479,0.8465,0.8323,0.837,0.8604,0.8343,0.8522,0.8807,0.0,0.0,0.0,0.0,0.0,0.0,0.0,0.0,0.0,0.0,0.0,0.0,0.0,0.0,0.0,0.0,0.0,0.0,0.925,0.9668,0.9661,0.9167,0.878,0.8198,0.7402,0.7121,0.6403,0.5257,0.5291,0.5317,0.5293,0.5902,0.6117,0.5977,0.6166,0.61,0.5868,0.5596,0.5338,0.5088,0.4932,0.4794,0.4684,0.0,0.0,0.0,0.0,0.0,0.0,0.0,0.0,0.0,0.5738,0.0,0.6263,0.6159,0.6283,0.652,0.6555,0.6996,0.0,0.0,0.0,0.0,0.0,0.0,0.0,0.0,0.0,0.0,0.0,0.0,0.0,0.0,0.0,0.0,0.0,0.0,0.0,1.3302,1.3385,1.3715,1.4672,1.3829,1.3329,1.3397,1.2134,1.1382,1.1444,1.0258,0.9566,0.9566,0.8668,0.817,0.817,0.813,0.8109,0.8106,0.8062,0.8085,0.8174,0.8286,0.8333,0.8333,0.8333,0.8333,0.8326,0.8214,0.817,0.8167,0.8143,0.8129,0.816,0.8117,0.577,0.2666,0.0,0.0,0.0,0.0,0.0,0.0,0.0,0.0,0.0,0.0,0.0,0.0,0.0,0.0,0.0,0.0,0.0,0.0,0.0,0.0,0.9863,0.9026,0.9448,0.9167,0.8064,0.7698,0.7156,0.6411,0.6179,0.5955,0.5758,0.652,0.6739,0.6484,0.679,0.6778,0.6512,0.6256,0.5967,0.5645,0.5538,0.543,0.5334,0.0,0.0,0.0,0.0,0.0,0.0,0.0,0.0,0.0,0.0,0.0,0.0,0.6666,0.6786,0.6956,0.7126,0.0,0.0,0.0,0.0,0.0,0.0,0.0,0.0,0.0,0.0,0.0,0.0,0.0,0.0,0.0,1.3262,1.3322,1.3476,1.3499,0.0,1.4561,1.4657,1.4949,1.573,1.514,1.4657,1.4657,1.3397,1.2716,1.2716,1.097,0.9998,0.9998,0.8726,0.8038,0.8038,0.8038,0.8038,0.8038,0.8038,0.8038,0.8041,0.8136,0.8177,0.8177,0.8177,0.8177,0.817,0.8079,0.8038,0.8041,0.7955,0.761,0.6972,0.6559,0.506,0.2922,0.0,0.0,0.0,0.0,0.0,0.0,0.0,0.0,0.0,0.0,0.0,0.0,0.0,0.0,0.0,0.0,0.0,0.0,0.0,0.0,1.0227,0.9266,1.0747,1.0808,0.9139,0.8756,0.8552,0.8461,0.7787,0.7175,0.6643,0.7312,0.7428,0.7079,0.7348,0.7466,0.7386,0.7184,0.6874,0.6571,0.6484,0.6436,0.6353,0.6397,0.0,0.0,0.0,0.0,0.0,0.0,0.0,0.0,0.6559,0.6745,0.6915,0.7319,0.7448,0.7566,0.8135,0.0,0.0,0.0,0.0,0.0,0.0,0.0,0.0,0.0,0.0,0.0,0.0,0.0,0.0,0.0,1.5792,1.5798,1.5825,1.5832,1.5832,1.5832,1.5832,1.5832,1.5832,1.5832,1.5832,1.5832,1.4752,1.407,1.407,1.1745,1.0293,1.0194,0.8924,0.8134,0.8134,0.8038,0.8038,0.8134,0.8038,0.8038,0.8038,0.8038,0.8038,0.8038,0.8038,0.8038,0.8038,0.8038,0.8038,0.8038,0.8041,0.7033,0.5525,0.4722,0.5648,0.6687,0.0,0.0,0.0,0.0,0.0,0.0,0.0,0.0,0.0,0.0,0.0,0.0,0.0,0.0,0.0,0.0,0.0,0.0,0.0,0.0,1.0389,0.8672,0.808,0.772,0.7573,0.8249,0.8688,0.8869,0.8257,0.8074,0.8283,0.7965,0.8004,0.8301,0.8174,0.815,0.8229,0.786,0.7481,0.7131,0.7048,0.6931,0.6752,0.6609,0.6301,0.0,0.0,0.0,0.0,0.0,0.0,0.0,0.6994,0.7081,0.7207,0.7592,0.7767,0.7834,0.0,0.8609,0.0,0.0,0.0,0.0,0.0,0.0,0.0,0.0,0.0,0.0,0.0,0.0,0.0,1.5431,1.5491,1.5571,1.5798,1.5832,1.5832,1.5832,1.5832,1.5832,1.5832,1.5832,1.5832,1.5832,1.554,1.5439,1.5439,1.3878,1.2619,1.1556,1.019,0.9608,0.9608,0.8531,0.8531,0.9509,0.8528,0.8038,0.8038,0.8038,0.8038,0.8038,0.8038,0.8038,0.8038,0.8038,0.8038,0.8041,0.7969,0.7775,0.7372,0.7184,0.4849,0.2121,0.0,0.0,0.0,0.0,0.0,0.0,0.0,0.0,0.0,0.0,0.0,0.0,0.0,0.0,0.0,0.0,0.0,0.0,0.0,0.0,0.0,1.0838,0.9195,0.8634,0.9286,1.0098,1.0556,1.0674,0.9781,0.9166,0.0,0.0,0.879,0.8567,0.8957,0.9052,0.8942,0.8853,0.856,0.8168,0.8193,0.7993,0.771,0.774,0.7236,0.661,0.7239,0.0,0.0,0.0,0.0,0.0,0.0,0.0,0.74,0.7734,0.797,0.8177,0.0,0.0,0.0,0.0,0.0,0.0,0.0,0.0,0.0,0.0,0.0,0.0,0.0,0.0,1.5017,1.5164,1.519,1.5244,1.5391,1.5418,1.5418,1.5418,1.5418,1.5471,1.5611,1.5625,1.5678,1.5818,1.5832,1.5765,1.5631,1.4487,1.3239,1.1783,1.0631,0.9661,0.8995,0.822,0.822,0.8897,0.822,0.797,0.8038,0.8038,0.8038,0.8038,0.8038,0.8038,0.8038,0.7952,0.7955,0.7959,0.7982,0.7169,0.625,0.75,0.6279,0.384,0.0,0.0,0.0,0.0,0.0,0.0,0.0,0.0,0.0,0.0,0.0,0.0,0.0,0.0,0.0,0.0,0.0,0.0,0.0,0.0,0.0,1.3063,1.1311,1.0722,1.1543,1.2074,1.2304,1.2254,1.1384,0.0,0.0,0.0,0.0,0.8879,0.9701,0.9926,0.9688,0.9912,0.9745,0.9384,0.9492,0.9266,0.8883,0.9104,0.8424,0.7488,0.8263,0.7803,0.6915,0.7488,0.0,0.0,0.0,0.0,0.7595,0.7879,0.8093,0.8341,0.0,0.0,0.0,0.0,0.0,0.0,0.0,0.0,0.0,0.0,0.0,0.0,0.0,1.4816,1.483,1.4877,1.4883,1.4903,1.4957,1.4963,1.4963,1.4963,1.4963,1.5057,1.5297,1.5317,1.5424,1.5665,1.5678,1.5578,1.5337,1.4497,1.3259,1.1546,1.0679,0.9538,0.8151,0.787,0.788,0.8097,0.7907,0.7879,0.8001,0.8001,0.8014,0.8038,0.8041,0.8045,0.8045,0.7969,0.7769,0.7363,0.7785,0.6659,0.483,0.6171,0.6586,0.5974,0.0,0.0,0.0,0.0,0.0,0.0,0.0,0.0,0.0,0.0,0.0,0.0,0.0,0.0,0.0,0.0,0.0,0.0,0.9521,0.0,0.0,1.1812,1.1176,1.0882,1.1008,1.1198,1.1271,1.1203,0.0,0.0,0.0,0.0,0.0,1.063,0.0,0.0,1.0869,1.0788,1.0651,1.0472,1.0445,1.0209,0.9906,0.988,0.9292,0.8536,0.8942,0.8507,0.7747,0.7914,0.8013,0.0,0.0,0.0,0.7822,0.8088,0.7992,0.7971,0.0,0.0,0.0,0.0,0.0,0.0,0.0,0.0,0.0,0.0,0.0,0.0,1.4249,1.4202,1.4289,1.4543,1.4583,1.4669,1.493,1.4963,1.4963,1.4963,1.4963,1.4977,1.5017,1.5023,1.5037,1.5077,1.5077,1.5064,1.5023,1.496,1.3756,1.1415,1.1169,1.052,0.9279,0.8182,0.8251,0.9523,0.8383,0.7821,0.7841,0.7841,0.7916,0.8041,0.7959,0.7969,0.7969,0.7982,0.6653,0.4724,0.7083,0.7811,0.6989,0.2624,0.1111,0.101,0.0,0.0,0.0,0.0,0.0,0.0,0.0,0.0,0.0,0.0,0.0,0.0,0.0,0.0,0.0,0.72,0.8688,1.0151,1.1207,1.1604,1.2325,1.3456,1.277,1.2543,1.297,1.2913,1.2805,1.2617,0.0,0.0,0.0,1.0324,1.0088,0.0,0.0,0.0,0.0,1.0957,1.0847,1.0597,1.0594,1.0434,1.021,1.0248,0.9702,0.8888,0.9062,0.8608,0.7884,0.7888,0.7966,0.7966,0.7578,0.0,0.0,0.0,0.7947,0.0,0.9187,0.0,0.0,0.0,0.0,0.0,0.0,0.0,0.0,0.0,0.0,1.3748,1.3621,1.3601,1.3634,1.3768,1.3788,1.3888,1.4182,1.4222,1.4289,1.4449,1.4476,1.4536,1.4696,1.4716,1.4783,1.495,1.4963,1.4615,1.3806,1.395,1.2773,1.019,1.0205,0.9657,0.8375,0.7742,0.7777,0.8489,0.7932,0.7695,0.7702,0.7702,0.774,0.7814,0.7994,0.7174,0.5858,0.7337,0.7273,0.6064,0.4274,0.3503,0.3232,0.0909,-0.0,-0.0,0.0,0.0,0.0,0.0,0.0,0.0,0.0,0.0,0.0,0.0,0.0,0.0,0.0,0.0,0.0,0.0,0.9612,1.0418,1.1778,1.2256,1.3011,1.4221,1.396,1.3913,1.4209,1.4077,1.3764,0.0,0.0,0.0,1.2305,1.1597,1.1148,0.0,1.1639,0.0,0.0,0.0,0.0,0.0,1.092,1.0753,1.0584,1.0663,1.0248,0.9601,0.9543,0.9108,0.8475,0.8202,0.8127,0.8078,0.7686,0.7812,0.0,0.0,0.0,0.0,0.0,0.0,0.0,0.0,0.0,0.0,0.0,0.0,0.0,0.0,0.0,1.2752,1.2752,1.3006,1.3213,1.3213,1.3213,1.3287,1.35,1.3594,1.3701,1.3848,1.3995,1.4142,1.4282,1.4369,1.4502,1.4723,1.4464,1.3818,1.2715,1.2568,1.1421,0.9089,0.9169,0.8639,0.7312,0.7353,0.7353,0.7316,0.7475,0.7536,0.7506,0.697,0.6973,0.7536,0.7845,0.6857,0.5054,0.5724,0.5961,0.5567,0.1558,-0.0,-0.0,-0.0,-0.0,-0.0,0.0,0.0,0.0,0.0,0.0,0.0,0.0,0.0,0.0,0.0,0.0,0.0,0.0,0.9353,0.9492,0.9399,0.9688,0.9877,0.9849,1.1287,1.216,1.2244,1.3733,0.0,1.319,1.3227,0.0,0.0,0.0,0.0,1.1848,1.2498,1.2874,1.3031,1.2765,1.2687,1.2803,0.0,0.0,0.0,0.0,0.0,0.0,0.0,1.1256,1.1229,1.0865,1.0498,1.0053,0.9283,0.8961,0.8725,0.8009,0.7937,0.8052,0.0,0.0,0.0,0.0,0.0,0.0,0.0,0.0,0.0,0.0,0.0,0.0,0.0,0.0,1.1516,1.1516,1.2445,1.3213,1.3213,1.3213,1.3213,1.3233,1.3467,1.3547,1.3287,1.3748,1.3981,1.3714,1.3941,1.4115,1.4135,1.307,1.2448,1.2345,1.1196,1.0079,0.8986,0.8824,0.8217,0.7149,0.7299,0.7299,0.7153,0.7333,0.7339,0.7022,0.4849,0.5038,0.7175,0.7768,0.7896,0.7393,0.2481,0.0382,0.0382,0.0095,-0.0,-0.0,-0.0,-0.0,-0.0,0.0,0.0,0.0,0.0,0.0,0.0,0.0,0.0,0.0,0.0,0.0,0.0,0.0,0.9629,0.9708,0.9657,1.0076,1.0308,1.0228,1.168,1.2626,1.2804,1.3791,1.4256,1.4062,1.3925,0.0,0.0,0.0,1.2588,1.1698,1.2486,1.31,1.3501,1.3133,1.2855,1.2655,1.2679,0.0,0.0,0.0,0.0,0.0,0.0,0.0,0.0,0.0,0.0,1.0439,0.997,0.9627,0.9367,0.9106,0.88,0.8511,0.8349,0.0,0.0,0.0,0.0,0.0,0.0,0.0,0.0,0.0,0.0,0.0,0.0,1.1125,1.1149,1.1149,1.165,1.2064,1.2064,1.2225,1.2418,1.2599,1.2879,1.3106,1.32,1.3394,1.3554,1.3552,1.3741,1.3881,1.4075,1.2872,1.1905,1.1203,0.9839,0.8729,0.7742,0.7598,0.7375,0.7004,0.6963,0.6919,0.6871,0.7022,0.7035,0.7097,0.6268,0.6319,0.7112,0.7774,0.6023,0.2759,0.0837,-0.0,-0.0,-0.0,-0.0,-0.0,-0.0,-0.0,-0.0,0.0,0.0,0.0,0.0,0.0,0.0,0.0,0.0,0.0,0.0,0.0,0.0,0.0,0.0,1.0126,1.026,1.0428,1.0453,1.0236,1.1459,1.2317,1.2575,1.3099,1.3557,1.3955,1.3822,1.3374,0.0,0.0,0.0,0.0,1.2796,1.3252,1.3744,1.3315,1.3179,0.0,0.0,0.0,1.1959,0.0,0.0,1.1644,0.0,0.0,0.0,0.0,0.0,0.0,1.0685,1.0283,0.9915,0.9746,0.9333,0.0,0.0,0.0,0.0,1.0144,0.0,0.0,0.0,0.0,0.0,0.0,0.0,0.0,0.0,1.1211,1.1219,1.1219,1.1199,1.1283,1.1764,1.2006,1.2213,1.2407,1.2566,1.2639,1.2746,1.3026,1.3247,1.3333,1.3104,1.3078,1.3271,1.1763,0.0,0.987,0.8538,0.753,0.6987,0.6902,0.6854,0.6858,0.6756,0.6771,0.674,0.6881,0.6895,0.6874,0.7038,0.6236,0.4758,0.5107,0.3333,-0.0,-0.0,-0.0,-0.0,-0.0,-0.0,-0.0,-0.0,-0.0,-0.0,0.0,0.0,0.0,0.0,0.0,0.0,0.0,0.0,0.0,0.0,0.0,0.0,0.0,0.0,0.0,1.1135,1.0705,1.019,0.9697,1.0491,1.1107,1.1369,1.1594,1.2044,1.2723,1.2803,1.275,0.0,0.0,0.0,0.0,0.0,1.3489,1.386,1.3333,1.377,1.4819,0.0,1.3627,1.3014,0.0,1.1968,1.1916,0.0,0.0,0.0,1.2443,1.2213,0.0,1.1489,0.0,0.0,0.0,0.0,0.0,0.0,0.0,0.0,0.0,0.0,0.0,0.0,0.0,0.0,1.1731,0.0,0.0,0.0,1.1513,1.1639,1.1655,1.1174,1.116,1.2446,1.2676,1.2617,1.2617,1.2402,1.2171,1.1891,1.2625,1.3046,1.2759,1.212,1.1644,1.1662,0.9614,0.8393,0.8401,0.7349,0.6698,0.6695,0.6695,0.6698,0.6791,0.6705,0.6723,0.668,0.6936,0.6771,0.614,0.6639,0.4393,-0.0,-0.0,-0.0,-0.0,-0.0,-0.0,-0.0,-0.0,-0.0,-0.0,-0.0,-0.0,-0.0,0.0,0.0,0.0,0.0,0.0,0.0,0.0,0.0,0.0,0.0,0.0,0.0,0.0,0.0,1.04,1.0601,1.0664,1.0206,0.9049,0.9923,1.0668,1.1028,1.1709,1.2602,1.3756,1.3649,1.3257,1.2602,0.0,0.0,0.0,0.0,0.0,0.0,1.3444,1.356,1.3919,1.3482,0.0,0.0,1.2047,1.1678,0.0,0.0,0.0,0.0,0.0,1.2155,1.2423,0.0,1.1287,1.0678,0.0,0.0,0.0,0.0,0.0,0.0,1.0507,0.0,0.0,0.0,0.0,0.0,0.0,0.0,0.0,1.1493,1.1156,1.0841,1.1304,1.1501,1.1696,1.2089,1.1556,1.1189,1.1189,1.1438,1.1637,1.1557,1.177,1.1755,1.1396,1.1193,1.0927,0.0,0.9167,0.8265,0.8393,0.7349,0.6651,0.6539,0.6634,0.6673,0.6648,0.4946,0.4899,0.6377,0.6458,0.4805,0.1747,0.1871,0.1233,-0.0,-0.0,-0.0,-0.0,-0.0,-0.0,-0.0,-0.0,-0.0,-0.0,-0.0,-0.0,-0.0,0.0,0.0,0.0,0.0,0.0,0.0,0.0,0.0,0.0,0.0,0.0,0.0,0.0,0.0,1.0784,1.1266,1.0963,1.0458,0.9713,1.0277,1.0793,1.1168,1.1202,1.1901,1.3394,1.2966,1.2495,1.2016,0.0,0.0,0.0,0.0,0.0,0.0,0.0,0.0,0.0,0.0,0.0,0.0,1.2042,0.0,0.0,1.1599,1.1677,0.0,0.0,0.0,1.1862,1.1495,1.1212,0.0,0.0,0.0,0.0,0.0,0.0,0.0,0.0,0.0,0.0,0.0,0.0,0.0,1.1528,1.0902,1.0517,0.0,1.1247,1.0923,1.1601,1.1467,1.1288,1.118,1.0602,1.0227,1.0646,1.0771,1.0791,1.0578,1.0625,1.0516,0.9986,0.9601,0.9326,0.9053,0.8034,0.7478,0.7651,0.6961,0.6519,0.6579,0.6527,0.651,0.6444,0.5106,0.4204,0.3661,0.3638,0.2376,-0.0,-0.0,-0.0,-0.0,-0.0,-0.0,-0.0,-0.0,-0.0,-0.0,-0.0,-0.0,-0.0,-0.0,-0.0,-0.0,0.0,0.0,0.0,0.0,0.0,0.0,0.0,0.0,0.0,0.0,0.0,0.0,0.0,0.0,0.0,0.0,1.1409,1.0807,1.0857,1.0978,1.1209,1.1556,1.0472,1.0627,1.229,1.1601,1.1242,1.1312,0.0,0.0,0.0,0.0,0.0,0.0,0.0,0.0,0.0,0.0,0.0,1.239,1.2064,1.2162,0.0,0.0,1.1616,1.1665,1.0965,1.0762,1.0762,1.0661,1.0722,0.0,0.0,0.0,0.0,0.0,0.9766,0.0,0.0,0.0,0.0,0.0,0.0,0.0,1.0801,1.056,1.0481,1.1554,1.1435,1.1302,1.1953,1.1064,1.0202,1.0,0.9563,0.957,1.0576,1.0338,0.9855,0.9289,0.9474,0.9321,0.8662,0.7892,0.7367,0.7314,0.6659,0.6274,0.6182,0.6071,0.6067,0.6281,0.6318,0.6263,0.6286,0.5836,0.373,-0.0,-0.0,-0.0,-0.0,-0.0,-0.0,-0.0,-0.0,-0.0,-0.0,-0.0,-0.0,-0.0,-0.0,-0.0,-0.0,-0.0,-0.0,-0.0,0.7032,0.0,0.0,0.0,0.0,0.0,0.0,0.0,0.0,0.0,0.0,0.0,0.0,0.0,0.0,0.0,1.1253,1.0972,1.0079,1.0444,1.0905,1.1341,1.0553,1.0831,1.2346,1.2109,1.1981,1.1915,0.0,0.0,0.0,0.0,0.0,0.0,0.0,0.0,0.0,0.0,0.0,1.1926,1.173,0.0,1.1022,1.099,1.0661,1.0218,1.0064,1.0364,1.0661,0.9673,0.9718,1.0084,0.0,0.0,0.0,1.0065,0.0,0.0,0.0,0.0,0.0,0.0,0.0,0.0,0.9993,0.971,0.9692,0.0,1.0401,1.0127,1.0495,0.9815,0.9061,0.8666,0.8416,0.8554,0.9411,0.9694,0.9545,0.8819,0.8863,0.8471,0.7202,0.7069,0.676,0.619,0.6103,0.5399,0.3863,0.3773,0.3773,0.3793,0.5433,0.6332,0.6321,0.2909,0.0798,-0.0,-0.0,-0.0,-0.0,-0.0,-0.0,-0.0,-0.0,-0.0,-0.0,-0.0,-0.0,-0.0,-0.0,-0.0,-0.0,-0.0,-0.0,-0.0,0.6837,0.0,0.0,0.0,0.0,0.0,0.0,0.0,0.0,0.0,0.0,0.0,0.0,0.0,0.0,0.0,0.0,1.0275,1.034,1.0504,1.0835,1.1384,1.0602,1.0632,1.1627,1.1368,1.101,1.0606,0.0,0.0,0.0,0.0,0.0,0.0,0.0,0.0,0.0,0.0,1.1634,1.1785,1.1644,0.0,1.1814,1.1297,1.083,1.0364,0.9969,0.9814,0.9681,0.9085,0.9197,0.0,0.9224,0.9003,0.8911,0.0,0.9114,0.8583,0.0,0.0,0.0,0.8736,0.0,0.0,0.0,0.8731,0.8715,0.9245,0.9015,0.8856,0.9225,0.0,0.8088,0.7806,0.7548,0.7387,0.7565,0.8211,0.844,0.7816,0.7464,0.6899,0.5868,0.5986,0.6033,0.58,0.604,0.5693,0.4775,0.273,0.1549,0.1571,0.2614,0.3161,0.3161,0.1052,-0.0,-0.0,-0.0,-0.0,-0.0,-0.0,-0.0,-0.0,-0.0,-0.0,-0.0,-0.0,-0.0,-0.0,-0.0,-0.0,-0.0,-0.0,-0.0,-0.0,0.6484,0.0,0.0,0.0,0.0,0.0,0.0,0.0,0.0,0.0,0.0,0.0,0.0,0.0,0.0,0.0,0.0,0.0,0.0,1.0441,1.0599,1.1066,1.0401,1.0219,1.0673,1.0351,0.9931,0.9399,0.0,0.0,0.0,0.0,0.0,0.0,0.0,0.0,0.0,0.0,0.0,1.1861,0.0,1.2066,1.2528,1.163,1.099,1.042,0.9843,0.9263,0.8785,0.8622,0.881,0.9075,0.8943,0.8514,0.0,0.0,0.0,0.0,0.0,0.0,0.0,0.0,0.0,0.7937,0.0,0.0,0.0,0.773,0.7631,0.0,0.0,0.0,0.0,0.0,0.0,0.0,0.0,0.6591,0.0,0.6524,0.6039,0.5522,0.4819,0.4813,0.5101,0.5709,0.6005,0.5807,0.5127,0.1855,-0.0,-0.0,-0.0,-0.0,-0.0,-0.0,-0.0,-0.0,-0.0,-0.0,-0.0,-0.0,-0.0,-0.0,-0.0,-0.0,-0.0,-0.0,-0.0,-0.0,-0.0,-0.0,-0.0,-0.0,-0.0,-0.0,0.535,0.6429,0.0,0.0,0.0,0.0,0.0,0.0,0.0,0.0,0.0,0.0,0.0,0.0,0.0,0.0,0.0,0.0,0.9274,0.0,0.0,0.9647,0.9704,0.9784,0.9828,1.0017,1.0251,1.0535,0.0,0.0,0.0,0.0,0.0,0.0,1.1199,0.0,0.0,0.0,1.1365,0.0,1.2017,1.1525,0.0,1.0889,0.9973,0.8783,0.886,0.8857,0.8699,0.0,0.8387,0.8745,0.0,0.7812,0.7588,0.7443,0.0,0.0,0.0,0.0,0.0,0.0,0.6603,0.0,0.0,0.0,0.7077,0.6447,0.0,0.0,0.0,0.0,0.0,0.0,0.0,0.0,0.444,0.5068,0.5481,0.4915,0.5362,0.5284,0.4182,0.3468,0.3663,0.5337,0.5472,0.4072,0.0873,0.025,-0.0,-0.0,-0.0,-0.0,-0.0,-0.0,-0.0,-0.0,-0.0,-0.0,-0.0,-0.0,-0.0,-0.0,-0.0,-0.0,-0.0,-0.0,-0.0,-0.0,-0.0,-0.0,-0.0,-0.0,-0.0,-0.0,0.5703,0.6357,0.0,0.0,0.0,0.0,0.0,0.0,0.0,0.0,0.0,0.0,0.0,0.0,0.0,0.0,0.0,0.7734,0.0,0.0,0.0,0.9613,0.9141,0.9124,0.9623,0.9513,0.9551,0.9714,1.0314,0.0,0.0,0.0,0.0,0.0,1.1016,0.0,1.1363,0.0,1.1554,0.0,0.0,0.0,0.0,1.147,1.113,0.9721,0.9065,0.8804,0.8699,0.0,0.7777,0.0,0.0,0.0,0.0,0.6376,0.0,0.0,0.0,0.0,0.0,0.0,0.0,0.0,0.59,0.0,0.5678,0.0,0.0,0.0,0.0,0.0,0.0,0.0,0.3844,0.0,0.0,0.0,0.3936,0.0,0.0,0.0,0.2994,0.1889,0.0774,-0.017,0.1303,0.1587,0.0057,-0.0,-0.0,-0.0,-0.0,-0.0,-0.0,-0.0,-0.0,-0.0,-0.0,-0.0,-0.0,-0.0,-0.0,-0.0,-0.0,-0.0,-0.0,-0.0,-0.0,-0.0,-0.0,-0.0,-0.0,-0.0,-0.0,-0.0,0.5425,0.0,0.0,0.0,0.0,0.0,0.0,0.0,0.0,0.0,0.0,0.0,0.6384,0.6657,0.0,0.0,0.6356,0.676,0.0,0.0,0.7703,0.0,0.0,0.0,0.8834,0.877,0.8664,0.856,0.0,0.0,0.0,0.0,0.0,0.0,0.0,1.0871,1.0992,0.0,1.1616,1.1158,1.1326,1.0722,0.9874,1.1177,1.1098,1.0115,0.9159,0.8646,0.8427,0.7883,0.7348,0.0,0.6597,0.6003,0.5372,0.0,0.0,0.0,0.4428,0.0,0.0,0.0,0.0,0.0,0.0,0.0,0.0,0.0,0.0,0.0,0.0,0.0,0.0,0.0,0.0,0.2103,0.0,0.1725,0.0,0.0,0.0,0.0,0.0,-0.0,-0.1672,-0.4317,-0.2489,-0.0881,-0.0053,-0.0,-0.0,-0.0,-0.0,-0.0,-0.0,-0.0,-0.0,-0.0,-0.0,-0.0,-0.0,-0.0,-0.0,-0.0,-0.0,-0.0,-0.0,-0.0,-0.0,-0.0,-0.0,-0.0,-0.0,-0.0,-0.0,-0.0,0.3797,0.477,0.0,0.0,0.0,0.0,0.0,0.0,0.0,0.0,0.0,0.0,0.0,0.0,0.0,0.0,0.0,0.593,0.6165,0.0,0.6318,0.0,0.0,0.773,0.0,0.7657,0.7845,0.7446,0.0,0.0,0.0,0.0,0.0,0.0,0.0,0.995,1.0651,1.0985,1.1376,1.1778,1.1765,1.1366,1.0596,0.0,0.8755,0.8857,0.8804,0.0,0.0,0.7723,0.7235,0.0,0.0,0.0,0.0,0.0,0.0,0.0,0.0,0.0,0.0,0.3685,0.0,0.0,0.0,0.0,0.3734,0.0,0.0,0.0,0.0,0.0,0.0,0.0,0.0,0.0,0.0,0.0,0.0,0.0,0.0,0.0,0.0,-0.2409,-0.3118,-0.4823,-0.4598,-0.3091,-0.0158,-0.0,-0.0,-0.0,-0.0,-0.0,-0.0,-0.0,-0.0,-0.0,-0.0,-0.0,-0.0,-0.0,-0.0,-0.0,-0.0,-0.0,-0.0,-0.0,-0.0,-0.0,-0.0,-0.0,-0.0,-0.0,-0.0,-0.0,0.2522,0.0,0.0,0.0,0.0,0.0,0.0,0.6171,0.0,0.0,0.6137,0.0,0.0,0.547,0.5517,0.0,0.0,0.5523,0.5873,0.5713,0.0,0.0,0.0,0.6276,0.0,0.0,0.0,0.0,0.0,0.0,0.0,0.0,0.0,0.0,0.0,0.9609,0.0,0.0,0.0,0.0,0.0,0.8878,0.7827,0.0,0.9023,0.9361,0.8415,0.7937,0.0,0.6578,0.6086,0.5786,0.5136,0.4885,0.4709,0.3969,0.4023,0.3869,0.0,0.0,0.1008,0.2167,0.0,0.0,0.0,0.0,0.0,0.0,0.0,0.0,0.0,0.0,0.0,0.0,0.0,0.0,0.0,0.0,0.0,0.0,0.0,0.0,0.0,0.0,-0.2996,-0.4168,-0.4504,-0.4125,-0.305,-0.1095,-0.0,-0.0,-0.0,-0.0,-0.0,-0.0,-0.0,-0.0,-0.0,-0.0,-0.0,-0.0,-0.0,-0.0,-0.0,-0.0,-0.0,-0.0,-0.0,-0.0,-0.0,-0.0,-0.0,-0.0,-0.0,-0.0,0.1422,0.0,0.0,0.0,0.0,0.0,0.0,0.0,0.0,0.0,0.5587,0.0,0.4892,0.0,0.5296,0.0,0.5051,0.5229,0.5545,0.5311,0.0,0.5819,0.5897,0.582,0.0,0.0,0.0,0.0,0.0,0.4593,0.0,0.0,0.0,0.0,0.0,0.8345,0.8918,0.0,0.9883,0.0,0.0,0.6933,0.0,0.0,0.78,0.8252,0.0,0.7122,0.6794,0.5814,0.5328,0.5081,0.4752,0.4562,0.4343,0.3387,0.3746,0.4125,0.2361,0.0968,0.0,0.0928,0.1252,0.0,0.1863,0.0,-0.0,0.0,0.0,0.0,0.0,0.0,0.0,0.0,0.0,0.0,0.0,-0.1859,0.0,0.0,0.0,0.0,0.0,-0.2694,-0.3226,-0.387,-0.4428,-0.4701,0.0,-0.2247,-0.0606,-0.0,-0.0,-0.0,-0.0,-0.0,-0.0,-0.0,-0.0,-0.0,-0.0,-0.0,-0.0,-0.0,-0.0,-0.0,-0.0,-0.0,-0.0,-0.0,-0.0,-0.0,-0.0,-0.0,-0.0,-0.0,0.0465,0.0,0.0,0.0,0.4297,0.0,0.0,0.0,0.5,0.0,0.495,0.5043,0.4529,0.4873,0.5109,0.5131,0.5142,0.5091,0.5085,0.4925,0.0,0.0,0.5419,0.6077,0.6398,0.0,0.0,0.0,0.0,0.0,0.0,0.0,0.0,0.0,0.5442,0.0,0.6683,0.7868,0.8358,0.8193,0.6742,0.5736,0.5182,0.5065,0.5254,0.5675,0.6303,0.6091,0.5487,0.5487,0.5011,0.448,0.4421,0.4432,0.4209,0.2736,0.3268,0.4281,0.4266,0.2173,-0.0,-0.0,-0.0229,0.0,0.0,0.0,0.0278,0.0,0.0,0.0,0.0,0.0,0.0,0.0,0.0,0.0,0.0,0.0,-0.2234,0.0,0.0,0.0,0.0,-0.3348,-0.377,-0.3973,-0.4407,-0.4765,0.0,-0.3314,-0.1675,-0.0056,-0.0,-0.0,-0.0,-0.0,-0.0,-0.0,-0.0,-0.0,-0.0,-0.0,-0.0,-0.0,-0.0,-0.0,-0.0,-0.0,-0.0,-0.0,-0.0,-0.0,-0.0,-0.0,-0.0,-0.0,-0.0683,0.111,0.2667,0.0,0.4033,0.4757,0.0,0.0,0.0,0.0,0.4968,0.4969,0.5104,0.5265,0.5329,0.5311,0.5315,0.0,0.0,0.0,0.0,0.4725,0.3765,0.3251,0.3319,0.1541,-0.0263,-0.1992,0.0,0.0,-0.019,0.0,0.0,0.0,0.0,0.0,0.5338,0.5278,0.5613,0.612,0.6367,0.5813,0.4871,0.0,0.4746,0.4064,0.5324,0.5773,0.5681,0.4967,0.4646,0.432,0.3128,0.3585,0.4396,0.4048,0.2597,0.1133,0.118,0.0568,-0.0,-0.0,-0.0057,-0.0059,0.0,0.0,0.0,0.0,0.0,0.0,0.0,0.0,0.0,0.0,0.0,0.0,0.0,0.0,0.0,-0.3191,0.0,-0.258,-0.2253,-0.2363,-0.2804,-0.3565,-0.4057,0.0,0.0,0.0,-0.1527,-0.0052,-0.0,-0.0,-0.0,-0.0,-0.0,-0.0,-0.0,-0.0,-0.0,-0.0,-0.0,-0.0,-0.0,-0.0,-0.0,-0.0,-0.0,-0.0,-0.0,-0.0,-0.0,-0.0,-0.0,-0.0,-0.1286,0.0,0.0,0.2417,0.0,0.0,0.4551,0.4615,0.0,0.4797,0.4955,0.0,0.5001,0.5225,0.5379,0.5386,0.47,0.0,0.5335,0.0,0.0,0.0823,0.117,0.1037,0.0279,-0.0985,0.0,-0.2981,0.0,0.0,-0.1505,0.0,0.0,0.0,0.0,0.2754,0.3567,0.4029,0.4227,0.4274,0.5075,0.4752,0.0,0.4029,0.4008,0.3863,0.4006,0.4563,0.5089,0.391,0.3925,0.433,0.3477,0.2916,0.2525,0.2525,0.1345,-0.0,-0.0,-0.0,-0.0,-0.0,-0.0,-0.0,-0.0,-0.0236,-0.0483,0.0,-0.1074,-0.2251,0.0,0.0,0.0,0.0,0.0,0.0,0.0,0.0,0.0,0.0,-0.3082,-0.2753,-0.2457,-0.2572,-0.2958,-0.3662,-0.4084,0.0,0.0,0.0,-0.2399,-0.121,-0.0439,-0.0225,-0.0687,-0.0229,-0.0,-0.0,-0.0,-0.0,-0.0,-0.0,-0.0,-0.0,-0.0,-0.0,-0.0,-0.0,-0.0,-0.0,-0.0,-0.0,-0.0,-0.0,-0.0,-0.0,-0.171,0.0,0.0,0.0,0.0,0.0,0.0,0.3758,0.0,0.4136,0.0,0.4602,0.3988,0.44,0.4666,0.4669,0.0,0.292,0.424,0.1603,-0.1373,-0.4355,-0.1818,-0.1034,-0.2458,-0.3641,-0.3984,0.0,0.0,0.0,0.0,0.0,0.0,0.0,0.0,0.0,0.0,0.3417,0.3614,0.283,0.3639,0.3535,0.2799,0.2447,0.3211,0.4327,0.2963,0.3357,0.4268,0.2963,0.3137,0.3884,0.3884,0.185,-0.0617,-0.0617,-0.0448,-0.028,-0.028,-0.028,-0.028,-0.028,-0.0115,-0.0058,-0.0227,-0.0462,-0.0531,-0.0355,-0.0288,-0.149,-0.5411,0.0,0.0,0.0,0.0,0.0,0.0,0.0,0.0,0.0,0.0,0.0,-0.3232,-0.3359,-0.3594,-0.3932,-0.4345,0.0,0.0,0.0,-0.3641,-0.285,-0.1217,-0.0678,-0.141,-0.0762,-0.0294,-0.0,-0.0,-0.0,-0.0,-0.0,-0.0,-0.0,-0.0,-0.0,-0.0,-0.0,-0.0,-0.0,-0.0,-0.0,-0.0,-0.0,-0.0,-0.0,-0.2268,0.0,0.0,0.0,0.0,-0.0387,-0.012,0.1163,0.2519,0.3582,0.2795,0.1754,0.0893,0.0896,0.0966,0.0967,0.0676,0.0,0.0,0.0,0.0,-0.4424,-0.394,-0.3826,-0.4098,-0.4154,-0.4373,0.0,0.0,0.0,0.0,0.0,0.0,0.0,0.0,0.0,0.1134,0.2214,0.0,0.2811,0.394,0.4291,0.4017,0.2705,0.3151,0.4452,0.4166,0.4281,0.4452,0.4166,0.2637,0.0784,0.0784,-0.1288,-0.3713,-0.3713,-0.2802,-0.1842,-0.1842,-0.1842,-0.1842,-0.1842,-0.0916,-0.0293,-0.1514,-0.2813,-0.333,-0.2064,-0.1843,-0.2585,-0.52,0.0,0.0,0.0,0.0,0.0,0.0,0.0,0.0,0.0,0.0,-0.4809,-0.45,-0.3703,-0.3309,-0.3651,0.0,0.0,0.0,0.0,-0.3887,0.0,-0.2706,-0.1607,0.0,0.0,-0.1746,-0.0,-0.0,-0.0,-0.0,-0.0,-0.0,-0.0,-0.0,-0.0,-0.0,-0.0,-0.0,-0.0,-0.0,-0.0,-0.0,-0.0,-0.0,-0.0,0.0,0.0,0.0,0.0,0.0,0.0,0.0,-0.2091,-0.0983,0.1246,0.0975,-0.0,-0.1422,-0.1474,-0.1809,-0.272,-0.2786,-0.3147,-0.4028,-0.3739,-0.3877,-0.4636,-0.4536,-0.4495,-0.448,-0.4421,-0.4567,-0.4982,0.0,0.0,0.0,0.0,0.0,0.0,0.0,-0.1033,0.0,0.0,0.0,0.2291,0.3016,0.3808,0.4448,0.3649,0.3881,0.4064,0.095,-0.0168,-0.0168,-0.0168,-0.1119,-0.2188,-0.1398,-0.2125,-0.3477,-0.4274,-0.3987,-0.3413,-0.3413,-0.3413,-0.3429,-0.3548,-0.3078,-0.2536,-0.2457,-0.3515,-0.4271,-0.354,-0.3401,-0.3817,-0.531,-0.551,0.0,0.0,0.0,0.0,0.0,0.0,-0.4847,0.0,0.0,0.0,0.0,0.0,0.0,0.0,0.0,0.0,0.0,0.0,-0.4275,0.0,0.0,0.0,-0.0939,0.0,-0.1318,-0.0801,-0.0243,-0.0,-0.0,-0.0,-0.0,-0.0,-0.0,-0.0,-0.0,-0.0,-0.0,-0.0,-0.0,-0.0,-0.0,-0.0,-0.0,-0.0,0.0,-0.4766,0.0,0.0,-0.4558,0.0,-0.4354,-0.5126,-0.4722,-0.192,-0.1545,-0.2129,-0.3618,-0.3518,-0.3879,-0.531,-0.5426,-0.5389,-0.5389,-0.5038,-0.4809,-0.4809,-0.4629,-0.4519,-0.4519,-0.4519,-0.4685,0.0,0.0,0.0,0.0,0.0,0.0,0.0,0.0,0.0,0.0,0.0,0.1703,0.1452,0.1672,0.2289,0.3084,0.3084,0.3088,0.2469,-0.2296,-0.4222,-0.4511,-0.4507,-0.4507,-0.4278,-0.3077,-0.2679,-0.2903,-0.415,-0.449,-0.449,-0.449,-0.449,-0.4584,-0.48,-0.4875,-0.4601,-0.3416,-0.3909,-0.4539,-0.4539,-0.4589,-0.4791,-0.5378,-0.5355,0.0,0.0,0.0,0.0,0.0,0.0,-0.5144,0.0,0.0,0.0,-0.5976,0.0,0.0,0.0,0.0,0.0,-0.5633,0.0,0.0,0.0,0.0,-0.2934,-0.1816,0.0,-0.0799,-0.1245,-0.0374,-0.0,-0.0,-0.0,-0.0,-0.0,-0.0,-0.0,-0.0,-0.0,-0.0,-0.0,-0.0,-0.0,-0.0,-0.0,-0.0,-0.0,0.0,0.0,0.0,0.0,0.0,-0.7256,-0.6447,-0.7122,-0.7253,-0.594,-0.5771,-0.5774,-0.6012,-0.5686,-0.5519,-0.5669,-0.5538,-0.5432,-0.5432,-0.5084,-0.4921,-0.4921,-0.4626,-0.4519,-0.4519,-0.4519,-0.4691,0.0,0.0,-0.5507,0.0,0.0,0.0,0.0,0.0,0.0,0.0,-0.051,-0.0286,0.0167,0.0223,-0.0501,-0.1561,-0.1561,-0.1561,-0.1672,-0.2232,-0.3302,-0.4497,-0.4487,-0.449,-0.4497,-0.4324,-0.4262,-0.4311,-0.448,-0.4473,-0.4522,-0.4522,-0.4522,-0.456,-0.4657,-0.4773,-0.4809,-0.4733,-0.475,-0.4766,-0.4694,-0.4792,-0.4948,-0.5097,-0.5461,-0.5956,0.0,0.0,0.0,0.0,0.0,-0.5623,-0.5672,0.0,0.0,-0.5819,-0.6608,0.0,0.0,-0.589,0.0,0.0,0.0,0.0,-0.6634,-0.4296,-0.2634,-0.1802,-0.2235,-0.1703,-0.0129,-0.0064,-0.0,-0.0,-0.0,-0.0,-0.0,-0.0,-0.0,-0.0,-0.0,-0.0,-0.0,-0.0,-0.0,-0.0,-0.0,-0.0,-0.0,0.0,0.0,0.0,0.0,0.0,0.0,0.0,-0.9154,-0.8871,-0.8524,-0.7202,-0.6274,-0.6274,-0.6081,-0.5842,-0.5751,-0.562,-0.546,-0.5432,-0.5162,-0.5006,-0.4921,-0.4714,-0.4558,-0.4519,-0.4519,-0.4782,0.0,0.0,0.0,0.0,0.0,0.0,0.0,0.0,-0.3256,-0.1857,-0.1739,-0.1552,-0.1393,-0.2343,-0.3074,-0.3593,-0.3781,-0.3812,-0.3809,-0.3803,-0.4152,-0.4666,-0.456,-0.4477,-0.4484,-0.4477,-0.4473,-0.4525,-0.4525,-0.4522,-0.4519,-0.4519,-0.4519,-0.4556,-0.4653,-0.4707,-0.4803,-0.4979,-0.4863,-0.4783,-0.4809,-0.4877,-0.4948,-0.5102,-0.5224,-0.5761,-0.6822,0.0,0.0,0.0,0.0,0.0,-0.55,0.0,-0.5405,-0.6213,-0.6906,0.0,0.0,0.0,0.0,0.0,0.0,0.0,-0.6328,0.0,-0.4609,-0.389,-0.2034,-0.1234,-0.1613,-0.0526,-0.0,-0.0,-0.0,-0.0,-0.0,-0.0,-0.0,-0.0,-0.0,-0.0,-0.0,-0.0,-0.0,-0.0,-0.0,-0.0,-0.0,-1.1459,0.0,-1.0599,0.0,-1.0906,-1.0627,-1.0762,-1.0537,-1.0127,-0.9746,-0.8247,-0.7173,-0.7173,-0.6899,-0.666,-0.6302,-0.6069,-0.5762,-0.55,-0.5203,-0.5023,-0.4921,-0.4728,0.0,-0.4519,-0.4563,-0.4784,-0.519,-0.6105,0.0,0.0,0.0,0.0,0.0,-0.475,-0.4296,-0.353,-0.313,-0.298,-0.306,-0.4151,-0.4582,-0.4623,-0.4758,-0.4824,-0.489,-0.4731,-0.4725,-0.4738,-0.4573,-0.4522,-0.4473,-0.4519,-0.4519,-0.4519,-0.4519,-0.4519,-0.4519,-0.4519,-0.4519,-0.4556,-0.4653,-0.4657,-0.4701,-0.4999,-0.487,-0.4745,-0.4942,-0.4982,-0.5026,-0.5172,-0.5199,-0.5546,-0.6729,0.0,0.0,0.0,-0.7532,0.0,-0.6045,-0.6255,-0.639,-0.6487,-0.6906,0.0,0.0,0.0,0.0,0.0,0.0,0.0,0.0,0.0,0.0,-0.5831,-0.2483,-0.1186,-0.1872,-0.0598,-0.0,-0.0,-0.0,-0.0,-0.0,-0.0,-0.0,-0.0,-0.0,-0.0,-0.0,-0.0,-0.0,-0.0,-0.0,-0.0,-0.0,-1.3419,-1.2824,-1.228,-1.2647,-1.2698,-1.2114,-1.0587,-1.1091,-1.1078,-0.9514,-0.9301,-0.9296,-0.9296,-0.8824,-0.8293,-0.7547,-0.6979,-0.641,-0.5645,-0.5169,-0.4921,0.0,0.0,-0.4519,-0.4519,-0.4609,-0.4616,-0.4519,0.0,0.0,-0.5312,0.0,-0.5558,-0.5093,-0.5227,-0.5087,-0.479,-0.4819,-0.4857,-0.4766,-0.4766,-0.4848,-0.488,-0.4579,-0.4653,-0.4877,-0.4575,-0.4562,-0.4667,-0.457,-0.4519,-0.4519,-0.4519,-0.4519,-0.4519,-0.4519,-0.4519,-0.4519,-0.4519,-0.4519,-0.4556,-0.4653,-0.4575,-0.4601,-0.4853,-0.4802,-0.4772,-0.5067,-0.5128,-0.5176,-0.5328,-0.5425,-0.5636,-0.6295,0.0,0.0,0.0,-0.7835,0.0,-0.7723,-0.7042,-0.6482,-0.6392,-0.6627,0.0,0.0,0.0,0.0,0.0,0.0,0.0,-0.5444,-0.5297,0.0,-0.7065,-0.4125,-0.1812,-0.0065,-0.0,-0.0,-0.0,-0.0,-0.0,-0.0,-0.0,-0.0,-0.0,-0.0,-0.0,-0.0,-0.0,-0.0,-0.0,-0.0,-0.0,-0.0,-1.3828,-1.3705,-1.3523,-1.3616,-1.3635,-1.3421,-1.2628,-1.2644,-1.2504,-1.1808,-1.1515,-1.1329,-1.1329,-0.9983,-0.8841,0.0,-0.812,-0.7773,0.0,-0.7099,-0.6871,-0.6533,-0.6456,-0.626,-0.5941,-0.5624,-0.5404,-0.5401,0.0,0.0,0.0,-0.5653,-0.5467,-0.5269,-0.5227,-0.5092,-0.4985,-0.4928,-0.4901,-0.4853,-0.4853,-0.4816,-0.4765,-0.4772,-0.4769,-0.4752,-0.4653,-0.465,-0.4667,-0.457,-0.4519,-0.4519,-0.4519,-0.4519,-0.4519,-0.4519,-0.4519,-0.4519,-0.4519,-0.4519,-0.4529,-0.4577,-0.4575,-0.467,-0.4874,-0.4955,-0.4989,-0.4989,-0.5064,-0.5179,-0.5332,-0.5274,-0.5442,-0.627,-0.5732,0.0,-0.7547,0.0,-0.6439,-0.7208,-0.6773,-0.6245,-0.5806,-0.6231,0.0,0.0,0.0,0.0,0.0,0.0,0.0,0.0,-0.5553,0.0,-0.5307,-0.5157,-0.3361,-0.0,-0.0,-0.0,-0.0,-0.0,-0.0,-0.0,-0.0,-0.0,-0.0,-0.0,-0.0,-0.0,-0.0,-0.0,-0.0,-0.0,-0.0,-0.0,-1.4015,-1.4088,-1.4088,-1.4088,-1.3995,-1.3821,-1.3527,-1.3227,-1.2926,-1.2619,-1.2418,-1.2305,-1.2305,-1.1174,0.0,-0.947,-0.9206,-0.8764,-0.8292,-0.8037,-0.7767,-0.7486,-0.7395,-0.7226,-0.6951,-0.6634,0.0,-0.6288,-0.6002,-0.5779,-0.5638,-0.5321,-0.5196,-0.5192,-0.5094,-0.505,-0.505,-0.5013,-0.4999,-0.4992,-0.4942,-0.4894,-0.4847,-0.4775,-0.4758,-0.4821,-0.4926,-0.5037,-0.5074,-0.5027,-0.4949,-0.4853,-0.464,-0.4563,-0.4519,-0.4519,-0.4519,-0.4519,-0.4519,-0.4519,-0.4519,-0.4519,-0.4579,-0.4731,-0.4884,-0.4989,-0.504,-0.5006,-0.5114,-0.5247,-0.5411,-0.5284,-0.5389,-0.5832,-0.5366,-0.5463,-0.6952,-0.6065,-0.5723,-0.6966,-0.6488,-0.5869,-0.5492,-0.5885,-0.5963,0.0,0.0,0.0,0.0,0.0,-0.4264,-0.449,-0.441,-0.4508,-0.4807,-0.5328,-0.3694,-0.0,-0.0,-0.0,-0.0,-0.0,-0.0,-0.0,-0.0,-0.0,-0.0,-0.0,-0.0,-0.0,-0.0,-0.0,-0.0,-0.0,-0.0,-0.0,-1.4088,-1.4088,-1.4088,0.0,-1.3841,-1.3547,-1.3253,-1.2946,-1.2714,-1.2345,-1.2305,-1.2291,-1.2271,-1.2291,-1.1909,-1.0959,0.0,0.0,-0.8777,-0.8187,-0.7881,-0.7866,-0.7733,-0.7677,-0.7661,-0.774,-0.7516,-0.711,-0.6319,-0.5608,-0.4992,-0.4992,-0.4999,-0.4948,-0.4938,-0.4935,-0.4942,-0.5074,-0.5125,-0.5104,-0.4982,-0.4999,-0.5053,-0.4636,-0.4704,-0.4966,-0.5394,-0.5656,-0.587,-0.5883,-0.5711,-0.5428,-0.4941,-0.4659,-0.4532,-0.4532,-0.4525,-0.4519,-0.4529,-0.4525,-0.4519,-0.4532,-0.4602,-0.4758,-0.4901,-0.4942,-0.4986,-0.5104,-0.5254,-0.5428,-0.5428,-0.5411,-0.5284,-0.5138,-0.5098,-0.5403,-0.6263,-0.5455,-0.5297,-0.6818,0.0,0.0,-0.5297,-0.5571,-0.5624,0.0,0.0,0.0,0.0,0.0,-0.2511,-0.135,-0.2388,-0.3737,-0.5363,-0.4841,-0.3082,-0.0,-0.0,-0.0,-0.0,-0.0,-0.0,-0.0,-0.0,-0.0,-0.0,-0.0,-0.0,-0.0,-0.0,-0.0,-0.0,-0.0,-0.0,-0.0,0.0,0.0,-1.4088,-1.4088,-1.3841,-1.3547,-1.3253,-1.2946,-1.2714,-1.2345,-1.2305,-1.2218,-1.1997,-1.2171,-1.2045,-1.1313,-1.1093,-1.0754,-1.0192,-0.9983,-0.9775,-0.956,-0.949,-0.9364,-0.9214,-0.854,-0.7855,-0.7106,-0.7089,-0.67,-0.5884,-0.5884,-0.5706,-0.525,-0.5131,-0.5081,-0.5084,-0.5114,-0.5067,-0.4975,-0.505,-0.4965,-0.4782,-0.4677,-0.4944,-0.539,-0.5466,-0.5905,-0.6469,-0.669,-0.6312,-0.5734,-0.5805,-0.5276,-0.4636,-0.4636,-0.4555,-0.4543,-0.4606,-0.4551,-0.4546,-0.4609,-0.4833,-0.5036,-0.5074,-0.5172,-0.5233,-0.5148,-0.5254,-0.5428,-0.5428,-0.5176,-0.5009,-0.4975,-0.4772,-0.489,-0.5522,-0.5314,-0.5286,0.0,-0.5651,-0.5372,-0.4862,-0.5008,-0.514,0.0,0.0,-0.367,-0.5648,-0.5542,-0.388,-0.0438,-0.3682,-0.5624,-0.6072,-0.593,-0.3932,-0.0,-0.0,-0.0,-0.0,-0.0,-0.0,-0.0,-0.0,-0.0,-0.0,-0.0,-0.0,-0.0,-0.0,-0.0,-0.0,-0.0,-0.0,-0.0,-1.4088,-1.4088,-1.4088,-1.4088,-1.3734,-1.3394,-1.3233,-1.2832,-1.2485,-1.2325,-1.2305,-1.2191,-1.1904,-1.2011,-1.1864,-1.1276,-1.1349,-1.1236,-1.0788,-1.0698,-1.0488,-1.0327,-1.0321,-1.0247,-1.0087,-0.9515,-0.8723,-0.7779,-0.7903,-0.7598,-0.6805,-0.683,-0.6493,-0.5834,-0.5815,-0.5574,-0.5131,-0.5131,-0.5273,-0.5562,-0.5495,-0.5584,-0.5885,-0.581,-0.5884,-0.6046,-0.6579,-0.6887,-0.7182,-0.7581,-0.7047,-0.6276,-0.6267,-0.5576,-0.4718,-0.4853,-0.4687,-0.4553,-0.465,-0.4629,-0.4619,-0.4836,-0.4962,-0.507,-0.5206,-0.5247,-0.525,-0.524,-0.5304,-0.5428,-0.5428,-0.5172,-0.4996,-0.4928,-0.4951,-0.5098,-0.5293,-0.5405,-0.5458,-0.5458,-0.5401,-0.525,-0.4891,-0.5094,-0.5233,-0.5254,-0.4375,0.0,-0.4304,-0.5369,-0.4579,-0.1546,-0.3632,-0.4848,-0.482,-0.5788,-0.4163,-0.0,-0.0,-0.0,-0.0,-0.0,-0.0,-0.0,-0.0,-0.0,-0.0,-0.0,-0.0,-0.0,-0.0,-0.0,-0.0,-0.0,-0.0,-0.0,-1.4166,-1.4088,-1.4088,-1.4088,-1.3634,-1.326,-1.3365,-1.2802,-1.2425,-1.2526,-1.2372,-1.2191,-1.1904,-1.187,-1.165,-1.1102,-1.1243,-1.1236,-1.0949,-1.0759,-1.0624,-1.0624,-1.0624,-1.0624,-1.0624,-1.0314,-0.9713,-0.8786,-0.8828,-0.8427,-0.7714,-0.7838,-0.7451,-0.6624,-0.6845,-0.6359,-0.5505,-0.553,-0.5955,-0.6564,-0.6206,-0.6569,-0.7333,-0.7208,-0.7053,-0.6937,-0.7862,-0.8056,-0.7961,-0.8425,-0.7866,-0.6919,-0.6679,-0.5766,-0.4809,-0.5084,-0.4863,-0.4565,-0.4714,-0.4758,-0.4816,-0.5067,-0.5057,-0.505,-0.5304,-0.526,-0.5203,-0.5335,-0.5428,-0.5428,-0.5428,-0.5216,-0.5067,-0.5149,-0.5392,-0.5612,-0.5559,0.0,-0.5649,-0.5649,-0.5352,-0.5176,-0.5196,-0.5457,-0.5583,-0.5488,-0.5724,-0.5161,-0.3601,-0.4896,-0.5064,-0.3605,-0.3582,-0.3583,-0.3603,-0.5061,-0.4197,-0.0914,-0.0311,-0.0,-0.0,-0.0,-0.0,-0.0,-0.0,-0.0,-0.0,-0.0,-0.0,-0.0,-0.0,-0.0,-0.0,-0.0,-0.0,-0.0,-1.425,-1.4088,-1.4088,-1.4088,-1.3801,-1.3722,-1.4308,-1.3425,-1.2887,-1.3419,-1.2806,-1.2191,-1.1904,-1.187,-1.173,-1.139,-1.1176,-1.0935,-1.0712,-1.0651,-1.0624,-1.0624,-1.0624,-1.0624,-1.0624,-1.0577,-1.0227,-0.9505,-0.9748,-0.9423,-0.8615,-0.8588,-0.8283,-0.7782,-0.7817,-0.7639,-0.7317,-0.7506,-0.7443,-0.736,-0.7411,-0.7426,-0.7478,-0.7441,-0.7638,-0.7996,-0.8155,-0.8385,-0.8731,-0.9308,-0.8405,-0.7146,-0.758,-0.6531,-0.5098,-0.5274,-0.5101,-0.4877,-0.5023,-0.506,-0.5074,-0.5121,-0.5213,-0.5304,-0.5418,-0.5345,-0.5332,-0.5422,-0.5428,-0.5428,-0.5428,-0.5138,-0.5229,-0.6017,-0.5875,-0.5931,-0.6577,0.0,-0.5887,-0.5763,-0.5519,-0.5376,-0.5508,-0.5671,-0.5817,-0.5935,-0.5962,-0.5835,-0.5542,-0.5942,-0.6027,-0.5567,-0.5679,-0.5773,-0.5829,-0.4353,-0.4213,-0.526,-0.1725,-0.0,-0.0,-0.0,-0.0,-0.0,-0.0,-0.0,-0.0,-0.0,-0.0,-0.0,-0.0,-0.0,-0.0,-0.0,-0.0,-0.0,-1.5137,-1.4977,-1.4817,-1.4166,-1.4324,-1.4384,-1.4083,-1.3804,-1.3511,-1.3219,-1.2695,-1.2191,-1.1904,-1.187,-1.175,-1.145,-1.1156,-1.0935,-1.0802,-1.0712,-1.0624,-1.0624,-1.0624,-1.0551,-1.0321,-1.0481,-1.0409,-0.992,-1.0214,-1.0161,-0.9768,-0.9768,-0.9397,-0.8683,-0.8683,-0.8344,-0.7685,-0.7792,-0.8032,-0.8331,-0.8242,-0.8408,-0.8669,-0.8669,-0.8594,-0.853,-0.8675,-0.8773,-0.8871,-0.9299,-0.8722,-0.7887,-0.8296,-0.7516,-0.6539,-0.6737,-0.6285,-0.5728,-0.5801,-0.5821,-0.584,-0.5932,-0.5694,-0.5428,-0.5428,-0.5423,-0.5484,-0.5484,-0.5545,-0.5599,-0.5599,-0.5359,-0.5495,-0.6523,-0.6157,-0.6125,-0.7126,-0.6599,-0.6133,-0.6157,-0.5942,-0.5749,-0.582,-0.5962,-0.6081,-0.6156,-0.6162,-0.6132,-0.6139,-0.627,-0.6276,-0.6132,-0.6287,-0.629,-0.6285,-0.4144,-0.3051,-0.2904,-0.0942,-0.0,-0.0,-0.0,-0.0,-0.0,-0.0,-0.0,-0.0,-0.0,-0.0,-0.0,-0.0,-0.0,-0.0,-0.0,-0.0,-0.0,-1.6273,-1.6108,-1.5764,-1.4885,-1.5227,-1.5348,-1.4649,-1.4525,-1.4275,-1.3668,-1.288,-1.2318,-1.2098,-1.1951,-1.1804,-1.1643,-1.1303,-1.1096,-1.1096,-1.0822,-1.0698,-1.0624,-1.0624,-1.0454,-1.0221,-1.0441,-1.0448,-1.0221,-1.0448,-1.0624,-1.0624,-1.0624,-1.0238,-0.9594,-0.9594,-0.915,-0.8386,-0.8386,-0.8765,-0.9383,-0.918,-0.9398,-0.988,-0.9813,-0.9506,-0.9132,-0.9285,-0.9198,-0.9058,-0.9345,-0.8881,-0.8246,-0.8746,-0.8261,-0.754,-0.7911,-0.7585,-0.7016,-0.6827,-0.6763,-0.6808,-0.7064,-0.6366,-0.5704,-0.5847,-0.5733,-0.5599,-0.5633,-0.5725,-0.58,-0.58,-0.5589,-0.5755,-0.6789,0.0,-0.6349,-0.7321,-0.6811,-0.638,-0.6371,-0.6154,-0.6044,-0.6078,-0.6193,-0.6338,-0.6338,-0.6338,-0.6338,-0.6338,-0.6338,-0.6338,-0.6338,-0.6338,-0.6268,-0.6278,-0.4693,-0.2812,-0.0704,-0.0235,-0.0,-0.0,-0.0,-0.055,-0.1489,-0.1433,-0.1213,-0.0704,-0.0752,-0.0455,-0.0,-0.0,-0.0,-0.0,-0.0,-0.0,-0.0,-1.7415,-1.7172,-1.7065,-1.6555,-1.6553,-1.6743,-1.7348,-1.5787,-1.4911,-1.5807,-1.4092,-1.2782,-1.2761,-1.2191,-1.1971,-1.2211,-1.1724,-1.1396,-1.1396,-1.1122,-1.0842,-1.0631,-1.0624,-1.0611,-1.0591,-1.0611,-1.0611,-1.0591,-1.0611,-1.0624,-1.0624,-1.0624,-1.0561,-1.0498,-1.0498,-1.0478,-1.0395,-1.0395,-1.0395,-1.0458,-1.0438,-1.0494,-1.053,-1.0194,-1.006,-0.9987,-0.974,-0.9639,-0.9666,-0.9953,-0.8949,-0.7768,-0.8902,-0.813,-0.6963,-0.7762,-0.8538,-0.8918,-0.813,-0.7872,-0.7927,-0.8209,-0.7446,-0.668,-0.7089,-0.6367,-0.5627,-0.5759,-0.5793,-0.58,-0.58,-0.5677,-0.5891,-0.6941,0.0,0.0,-0.6895,-0.6925,-0.6627,-0.5926,-0.5928,-0.6088,-0.623,-0.6254,-0.6338,-0.6338,-0.6338,-0.6338,-0.6338,-0.6338,-0.6338,-0.6338,-0.6338,-0.6268,-0.6278,-0.6119,-0.501,-0.2812,-0.0939,-0.0,-0.0,-0.0,-0.2121,-0.5846,-0.5827,-0.4704,-0.2888,-0.2879,-0.1714,-0.0,-0.0,-0.0,-0.0,-0.0,-0.0,-0.0,-1.855,-1.8118,-1.7742,-1.7191,-1.7412,-1.7605,-1.7465,-1.72,-1.6652,-1.5795,-1.4739,-1.3705,-1.2919,-1.262,-1.2385,-1.2311,-1.1931,-1.1623,-1.1436,-1.1156,-1.0862,-1.0638,-1.0624,-1.0624,-1.0624,-1.0624,-1.0624,-1.0624,-1.0624,-1.0624,-1.0624,-1.0624,-1.0624,-1.0624,-1.0624,-1.0624,-1.0624,-1.0624,-1.0624,-1.0624,-1.0624,-1.0448,-1.0274,-1.016,-1.0007,-0.9833,-0.9726,-0.9686,-0.9699,-0.9813,-0.9535,-0.9199,-0.9624,-0.9511,-0.9186,-0.9518,-0.9968,-1.0257,-0.9759,-0.9198,-0.8835,-0.8924,-0.8327,-0.7636,-0.7059,-0.6876,-0.6561,-0.595,-0.5952,-0.6084,-0.6084,-0.5962,-0.6168,-0.7236,0.0,-0.638,-0.7199,-0.6775,-0.6275,-0.6149,-0.6135,-0.6196,-0.6254,-0.6338,-0.6338,-0.6338,-0.6338,-0.6338,-0.6338,-0.6338,-0.6338,-0.6338,-0.6338,-0.6264,-0.6268,-0.6274,-0.5879,-0.5087,-0.4307,-0.3209,-0.1954,-0.1955,-0.2818,-0.4389,-0.5739,-0.5825,-0.509,-0.5104,-0.4655,-0.3616,-0.102,-0.0,-0.0,-0.0,-0.0,-0.0,-1.9678,-1.921,-1.8784,-1.8022,-1.8383,-1.857,-1.8005,-1.8219,-1.7934,-1.6628,-1.5858,-1.5017,-1.3733,-1.3682,-1.3475,-1.2973,-1.2884,-1.2643,-1.2061,-1.1337,-1.0862,-1.0638,-1.0624,-1.0624,-1.0624,-1.0624,-1.0624,-1.0624,-1.0624,-1.0624,-1.0624,-1.0624,-1.0624,-1.0624,-1.0624,-1.0624,-1.0624,-1.0624,-1.0624,-1.0624,-1.0624,-1.0441,-1.0247,-1.0154,-1.0047,-0.9947,-0.9853,-0.988,-0.996,-0.996,-0.9905,-0.9884,-1.0192,-1.0394,-1.0645,-1.0668,-1.0835,-1.0969,-1.0862,-1.0438,-0.9974,-0.9974,-0.9317,-0.8554,-0.8064,-0.7703,-0.7187,-0.6526,-0.6338,-0.6338,-0.6338,-0.6173,-0.6324,-0.7068,-0.657,-0.6346,-0.7127,-0.6619,-0.621,-0.6315,-0.6288,-0.6338,-0.6338,-0.6338,-0.6338,-0.6338,-0.6338,-0.6338,-0.6338,-0.6338,-0.6338,-0.6338,-0.6338,-0.6338,-0.6338,-0.6271,-0.6274,-0.6274,-0.6285,-0.5491,-0.4142,-0.4066,-0.4066,-0.4217,-0.5637,-0.628,-0.6285,-0.6273,-0.6304,-0.6009,-0.3146,-0.1178,-0.0,-0.0,-0.0,-0.0,-2.0566,-2.0566,-2.0293,-1.9443,-1.9639,-1.9775,-1.9365,-1.8732,-1.8506,-1.8903,-1.7804,-1.6545,-1.5458,-1.5607,-1.5405,-1.4313,-1.48,-1.4662,-1.3352,-1.185,-1.0862,-1.0638,-1.0624,-1.0624,-1.0624,-1.0624,-1.0624,-1.0624,-1.0624,-1.0624,-1.0624,-1.0624,-1.0624,-1.0624,-1.0624,-1.0624,-1.0624,-1.0624,-1.0624,-1.0624,-1.0624,-1.0624,-1.0591,-1.0234,-1.0307,-1.0584,-1.0227,-1.0307,-1.0624,-1.0624,-1.0047,-0.9466,-1.0301,-1.0624,-1.0678,-1.0909,-1.0995,-1.1056,-1.1349,-1.1423,-1.143,-1.1423,-1.0321,-0.961,-1.0548,-0.8865,-0.7258,-0.7702,-0.7022,-0.6338,-0.6338,-0.6264,-0.6342,-0.6342,-0.638,-0.6474,-0.6474,-0.6474,-0.6474,-0.6471,-0.6349,-0.6264,-0.6338,-0.6338,-0.6338,-0.6338,-0.6338,-0.6338,-0.6338,-0.6338,-0.6338,-0.6338,-0.6338,-0.6338,-0.6338,-0.6338,-0.6338,-0.6338,-0.6274,-0.6278,-0.6278,-0.6291,-0.6288,-0.6278,-0.6278,-0.6278,-0.6278,-0.6278,-0.6298,-0.6329,-0.625,-0.3698,-0.0,-0.0,-0.0,-0.0,-2.0566,-2.0312,-2.0127,-2.0176,-2.0039,-1.9971,-2.0156,-2.0053,-1.9693,-1.9107,-1.8602,-1.7864,-1.6569,-1.6198,-1.5889,-1.5348,-1.5225,-1.4662,-1.3352,-1.2446,-1.166,-1.0934,-1.0668,-1.0624,-1.0624,-1.0624,-1.0624,-1.0624,-1.0624,-1.0624,-1.0624,-1.0624,-1.0624,-1.0624,-1.0624,-1.0624,-1.0624,-1.0624,-1.0624,-1.0624,-1.0624,-1.0624,-1.0611,-1.0461,-1.0481,-1.0611,-1.0461,-1.0551,-1.0624,-1.0624,-1.0428,-1.0238,-1.0498,-1.0624,-1.0678,-1.0909,-1.1136,-1.1316,-1.1403,-1.1577,-1.169,-1.1476,-1.1243,-1.095,-1.0443,-0.9974,-0.9295,-0.7878,-0.7462,-0.7099,-0.6416,-0.6342,-0.641,-0.641,-0.6536,-0.663,-0.663,-0.663,-0.6593,-0.6485,-0.6434,-0.6369,-0.6349,-0.6338,-0.6338,-0.6338,-0.6338,-0.6338,-0.6338,-0.6338,-0.6338,-0.6338,-0.6338,-0.6338,-0.6338,-0.6338,-0.6338,-0.6338,-0.6264,-0.6268,-0.6268,-0.6271,-0.6271,-0.6268,-0.6268,-0.6271,-0.6197,-0.4693,-0.4945,-0.6009,-0.3066,-0.1099,-0.0,-0.0,-0.0,-0.0,-2.0566,-2.0352,-2.0195,-2.0293,-2.0234,-2.0205,-2.0293,-2.0449,-2.0401,-1.9678,-1.9599,-1.904,-1.7605,-1.7453,-1.7142,-1.6319,-1.5942,-1.5415,-1.4641,-1.3759,-1.2867,-1.1829,-1.1467,-1.1114,-1.0624,-1.0624,-1.0624,-1.0624,-1.0624,-1.0624,-1.0624,-1.0624,-1.0624,-1.0624,-1.0624,-1.0624,-1.0624,-1.0624,-1.0624,-1.0624,-1.0624,-1.0624,-1.0624,-1.0624,-1.0624,-1.0624,-1.0624,-1.0624,-1.0624,-1.0624,-1.0698,-1.0728,-1.0728,-1.0808,-1.0962,-1.1256,-1.1463,-1.1623,-1.1744,-1.1904,-1.1997,-1.1817,-1.1737,-1.1563,-1.1114,-1.0785,-1.0177,-0.8579,-0.8001,-0.75,-0.6567,-0.6413,-0.6491,-0.6552,-0.6692,-0.679,-0.679,-0.679,-0.6756,-0.6664,-0.66,-0.6505,-0.6359,-0.64,-0.641,-0.6349,-0.6342,-0.6322,-0.6264,-0.6338,-0.6338,-0.6338,-0.6338,-0.6338,-0.6338,-0.6338,-0.6338,-0.6338,-0.6338,-0.6338,-0.6338,-0.6338,-0.6338,-0.6338,-0.6338,-0.6271,-0.6126,-0.43,-0.368,-0.354,-0.102,-0.0,-0.0,-0.0,-0.0,-0.0,-2.0566,-2.0566,-2.0439,-2.0049,-2.0303,-2.043,-2.0029,-2.0312,-2.0566,-2.0566,-2.0566,-2.0091,-1.8693,-1.8947,-1.8749,-1.7343,-1.6899,-1.6706,-1.6636,-1.5506,-1.4258,-1.3057,-1.2722,-1.1939,-1.0751,-1.0624,-1.0624,-1.0624,-1.0624,-1.0624,-1.0624,-1.0624,-1.0624,-1.0624,-1.0624,-1.0624,-1.0624,-1.0624,-1.0624,-1.0624,-1.0624,-1.0624,-1.0624,-1.0651,-1.0665,-1.0665,-1.0665,-1.0665,-1.0665,-1.0665,-1.0788,-1.1035,-1.1035,-1.1209,-1.1483,-1.1784,-1.187,-1.1937,-1.2225,-1.2305,-1.2305,-1.2305,-1.1897,-1.1643,-1.2178,-1.1424,-1.0294,-0.9502,-0.8565,-0.7631,-0.6704,-0.6505,-0.6559,-0.6698,-0.6848,-0.6949,-0.6949,-0.6949,-0.6943,-0.6929,-0.6807,-0.6661,-0.6508,-0.6617,-0.6644,-0.6505,-0.6491,-0.6437,-0.6305,-0.6288,-0.6281,-0.6281,-0.6268,-0.6338,-0.6338,-0.6338,-0.6338,-0.6338,-0.6338,-0.6338,-0.6338,-0.6338,-0.6338,-0.6338,-0.6338,-0.6274,-0.6213,-0.4771,-0.2735,-0.0549,-0.0157,-0.0,-0.0,-0.0,-0.0,-0.0,-2.0566,-2.0566,-2.0537,-2.0439,-2.0498,-2.0537,-2.0439,-2.0508,-2.0566,-2.0566,-2.0566,-2.045,-2.012,-1.9587,-1.9175,-1.8851,-1.8088,-1.7354,-1.6636,-1.612,-1.5193,-1.3908,-1.3542,-1.2743,-1.16,-1.0926,-1.0624,-1.0624,-1.0624,-1.0624,-1.0624,-1.0624,-1.0624,-1.0624,-1.0624,-1.0624,-1.0624,-1.0624,-1.0624,-1.0624,-1.0624,-1.0624,-1.0651,-1.0815,-1.0902,-1.0902,-1.0902,-1.0902,-1.0902,-1.0902,-1.1089,-1.1329,-1.1329,-1.1376,-1.1483,-1.1784,-1.187,-1.1937,-1.2225,-1.2305,-1.2305,-1.2305,-1.2204,-1.2144,-1.2271,-1.2104,-1.1459,-0.9807,-0.9311,-0.8593,-0.6944,-0.6749,-0.6841,-0.6875,-0.7,-0.7095,-0.7095,-0.7095,-0.7054,-0.6943,-0.6898,-0.682,-0.6664,-0.6681,-0.6685,-0.6654,-0.6651,-0.6637,-0.6607,-0.6491,-0.6427,-0.6427,-0.6318,-0.6338,-0.6338,-0.6338,-0.6338,-0.6338,-0.6338,-0.6338,-0.6338,-0.6338,-0.6338,-0.6338,-0.6338,-0.6271,-0.62,-0.4768,-0.4467,-0.457,-0.1254,-0.0,-0.0,-0.0,-0.0,-0.0,-2.0566,-2.0566,-2.0566,-2.0566,-2.0566,-2.0566,-2.0566,-2.0566,-2.0566,-2.0566,-2.0566,-2.0488,-2.0273,-1.9853,-1.9424,-1.9014,-1.8389,-1.7794,-1.7285,-1.7079,-1.6425,-1.5089,-1.4698,-1.3755,-1.2145,-1.1493,-1.0989,-1.0624,-1.0624,-1.0624,-1.0624,-1.0624,-1.0624,-1.0624,-1.0624,-1.0624,-1.0624,-1.0624,-1.0624,-1.0624,-1.0624,-1.0624,-1.0645,-1.0728,-1.0788,-1.0788,-1.0788,-1.0875,-1.1015,-1.1149,-1.1396,-1.1637,-1.1637,-1.1737,-1.1877,-1.2031,-1.2078,-1.2104,-1.2265,-1.2305,-1.2305,-1.2305,-1.2305,-1.2305,-1.2305,-1.1951,-1.1246,-0.9818,-0.9142,-0.8478,-0.7028,-0.6875,-0.6953,-0.7017,-0.7092,-0.7139,-0.7139,-0.7139,-0.7112,-0.7037,-0.7031,-0.6997,-0.6919,-0.6851,-0.681,-0.681,-0.681,-0.6776,-0.6705,-0.6624,-0.6549,-0.6474,-0.64,-0.6329,-0.6338,-0.6338,-0.6338,-0.6338,-0.6338,-0.6338,-0.6338,-0.6338,-0.6338,-0.6338,-0.6338,-0.6268,-0.6278,-0.5476,-0.5652,-0.6006,-0.2741,-0.0861,-0.0,-0.0,-0.0,-0.0,-2.0566,-2.0566,-2.0566,-2.0566,-2.0566,-2.0566,-2.0566,-2.0566,-2.0566,-2.0566,-2.0566,-2.043,-2.0059,-1.9961,-1.957,-1.8711,-1.832,-1.8086,-1.8018,-1.8008,-1.7523,-1.64,-1.5862,-1.4625,-1.2667,-1.2122,-1.1457,-1.0624,-1.0624,-1.0624,-1.0624,-1.0624,-1.0624,-1.0624,-1.0624,-1.0624,-1.0624,-1.0624,-1.0624,-1.0624,-1.0624,-1.0651,-1.0641,-1.0688,-1.0742,-1.0853,-1.0853,-1.0935,-1.1169,-1.1363,-1.1657,-1.1944,-1.1944,-1.2104,-1.2305,-1.2305,-1.2305,-1.2305,-1.2305,-1.2305,-1.2311,-1.2365,-1.2338,-1.2318,-1.2365,-1.1683,-1.0667,-0.9493,-0.8698,-0.7903,-0.71,-0.6966,-0.7004,-0.7122,-0.7139,-0.7139,-0.7139,-0.7139,-0.7139,-0.7139,-0.7139,-0.7139,-0.7139,-0.7034,-0.6966,-0.6966,-0.6966,-0.6909,-0.6783,-0.6753,-0.6681,-0.6556,-0.6525,-0.6454,-0.6335,-0.6335,-0.6322,-0.6298,-0.6298,-0.6285,-0.6338,-0.6338,-0.6338,-0.6338,-0.6338,-0.6268,-0.6278,-0.6268,-0.6291,-0.6087,-0.4314,-0.2192,-0.0,-0.0,-0.0,-0.0,-2.0566,-2.0566,-2.0566,-2.0566,-2.0566,-2.0566,-2.0566,-2.0566,-2.0566,-2.0566,-2.0566,-2.0547,-2.0478,-2.0137,-1.957,-1.8711,-1.8584,-1.8398,-1.8037,-1.8008,-1.7755,-1.7261,-1.6344,-1.5081,-1.349,-1.2598,-1.1617,-1.0624,-1.0624,-1.0624,-1.0624,-1.0624,-1.0624,-1.0624,-1.0624,-1.0624,-1.0624,-1.0624,-1.0624,-1.0624,-1.0624,-1.0715,-1.0962,-1.1209,-1.147,-1.169,-1.169,-1.1717,-1.1717,-1.1503,-1.179,-1.2245,-1.2245,-1.2271,-1.2305,-1.2305,-1.2305,-1.2305,-1.2305,-1.2305,-1.2365,-1.2694,-1.2492,-1.2371,-1.2701,-1.1746,-1.0351,-0.8702,-0.8311,-0.7939,-0.7232,-0.7112,-0.7115,-0.7136,-0.7139,-0.7139,-0.7139,-0.7139,-0.7139,-0.7139,-0.7139,-0.7139,-0.7139,-0.7122,-0.7112,-0.7112,-0.7112,-0.7102,-0.7082,-0.6963,-0.6888,-0.6868,-0.6739,-0.6661,-0.6641,-0.6641,-0.6573,-0.6444,-0.6444,-0.638,-0.6338,-0.6338,-0.6338,-0.6338,-0.6338,-0.6268,-0.6278,-0.6278,-0.6298,-0.625,-0.6002,-0.3459,-0.0,-0.0,-0.0,-0.0,-2.0566,-2.0566,-2.0566,-2.0566,-2.0566,-2.0566,-2.0566,-2.0566,-2.0566,-2.0566,-2.0566,-2.0566,-2.0566,-2.0391,-2.0,-1.9307,-1.8652,-1.8213,-1.8018,-1.8008,-1.793,-1.7744,-1.6578,-1.5305,-1.4045,-1.2794,-1.166,-1.0624,-1.0624,-1.0624,-1.0624,-1.0624,-1.0712,-1.0795,-1.0698,-1.0648,-1.0788,-1.0628,-1.0624,-1.0624,-1.0624,-1.0735,-1.1009,-1.1136,-1.1363,-1.1643,-1.181,-1.187,-1.187,-1.1904,-1.2084,-1.2305,-1.2305,-1.2305,-1.2305,-1.2305,-1.2305,-1.2305,-1.2305,-1.2305,-1.2371,-1.2748,-1.2721,-1.2474,-1.2214,-1.1708,-1.0897,-0.9342,-0.8164,-0.7395,-0.719,-0.7139,-0.7139,-0.7139,-0.7139,-0.7139,-0.7139,-0.7139,-0.7139,-0.7139,-0.7139,-0.7139,-0.7139,-0.7139,-0.7139,-0.7139,-0.7139,-0.7139,-0.7139,-0.7082,-0.701,-0.6929,-0.6865,-0.6787,-0.6702,-0.6702,-0.6668,-0.66,-0.66,-0.6481,-0.6338,-0.6338,-0.6338,-0.6338,-0.6338,-0.6268,-0.6278,-0.6278,-0.6298,-0.6329,-0.6329,-0.3698,-0.0,-0.0,-0.0,-0.0]},{"header":{"parameterUnit":"m.s-1","parameterCategory":1,"la1":30.6,"la2":28.766,"lo1":-90.7593,"lo2":-88.6598,"dy":0.0162,"dx":0.0183,"nx":116,"ny":114,"refTime":"2023-08-18T12:00:00:Z","depth":0,"parameterNumber":3,"parameterNumberName":"V-component_of_WINDS"},"data":[0.0,0.0,0.0,0.0,0.0,0.0,0.0,0.0,0.0,0.0,0.0,0.0,0.0,0.0,0.0,0.0,0.0,0.0,0.0,0.0,0.0,0.0,0.0,0.0,0.0,0.0,0.0,0.0,0.0,0.0,0.0,0.0,0.0,0.0,0.0,0.0,0.0,0.0,0.0,0.0,0.0,0.0,0.0,0.0,0.0,0.0,0.0,0.0,0.0,0.0,0.0,0.0,0.0,0.0,0.0,0.0,0.0,0.0,0.0,0.0,0.0,0.0,0.0,0.0,0.0,0.0,0.0,0.0,0.0,0.0,0.0,0.0,0.0,0.0,0.0,0.0,0.0,0.0,0.0,0.0,0.0,0.0,0.0,0.0,0.0,0.0,0.0,0.0,0.0,0.0,0.0,0.0,0.0,0.0,0.0,0.0,0.0,0.0,0.0,0.0,0.0,0.0,0.0,0.0,0.0,0.0,0.0,0.0,0.0,0.0,0.0,0.0,0.0,0.0,0.0,0.0,0.0,0.0,0.0,0.0,0.0,0.0,0.0,0.0,0.0,0.0,0.0,0.0,0.0,0.0,0.0,0.0,0.0,0.0,0.0,0.0,0.0,0.0,0.0,0.0,0.0,0.0,0.0,0.0,0.0,0.0,0.0,0.0,0.0,0.0,0.0,0.0,0.0,0.0,0.0,0.0,0.0,0.0,0.0,0.0,0.0,0.0,0.0,0.0,0.0,0.0,0.0,0.0,0.0,0.0,0.0,0.0,0.0,0.0,0.0,0.0,0.0,0.0,0.0,0.0,0.0,0.0,0.0,0.0,0.0,0.0,0.0,0.0,0.0,0.0,0.0,0.0,0.0,0.0,0.0,0.0,0.0,0.0,0.0,0.0,0.0,0.0,0.0,0.0,0.0,0.0,0.0,0.0,0.0,0.0,0.0,0.0,0.0,0.0,0.0,0.0,0.0,0.0,0.0,0.0,0.0,0.0,0.0,0.0,0.0,0.0,0.0,0.0,0.0,0.0,0.0,0.0,0.0,0.0,0.0,0.0,0.0,0.0,0.0,0.0,0.0,0.0,0.0,0.0,0.0,0.0,0.0,0.0,0.0,0.0,0.0,0.0,0.0,0.0,0.0,0.0,0.0,0.0,0.0,0.0,0.0,0.0,0.0,0.0,0.0,0.0,0.0,0.0,0.0,0.0,0.0,0.0,0.0,0.0,0.0,0.0,0.0,0.0,0.0,0.0,0.0,0.0,0.0,0.0,0.0,0.0,0.0,0.0,0.0,0.0,0.0,0.0,0.0,0.0,0.0,0.0,0.0,0.0,0.0,0.0,0.0,0.0,0.0,0.0,0.0,0.0,0.0,0.0,0.0,0.0,0.0,0.0,0.0,0.0,0.0,0.0,0.0,0.0,0.0,0.0,0.0,0.0,0.0,0.0,0.0,0.0,0.0,0.0,0.0,0.0,0.0,0.0,0.0,0.0,0.0,0.0,0.0,0.0,0.0,0.0,0.0,0.0,0.0,0.0,0.0,0.0,0.0,0.0,0.0,0.0,0.0,0.0,0.0,0.0,0.0,0.0,0.0,0.0,0.0,0.0,0.0,0.0,0.0,0.0,0.0,0.0,0.0,0.0,0.0,0.0,0.0,0.0,0.0,0.0,0.0,0.0,0.0,0.0,0.0,0.0,0.0,0.0,0.0,0.0,0.0,0.0,0.0,0.0,0.0,0.0,0.0,0.0,0.0,0.0,0.0,0.0,0.0,0.0,0.0,0.0,0.0,0.0,0.0,0.0,0.0,0.0,0.0,0.0,0.0,0.0,0.0,0.0,0.0,0.0,0.0,0.0,0.0,0.0,0.0,0.0,0.0,0.0,0.0,0.0,0.0,0.0,0.0,0.0,0.0,0.0,0.0,0.0,0.0,0.0,0.0,0.0,0.0,0.0,0.0,0.0,0.0,0.0,0.0,0.0,0.0,0.0,0.0,0.0,0.0,0.0,0.0,0.0,0.0,0.0,0.0,0.0,0.0,0.0,0.0,0.0,0.0,0.0,0.0,0.0,0.0,0.0,0.0,0.0,0.0,0.0,0.0,0.0,0.0,0.0,0.0,0.0,0.0,0.0,0.0,0.0,0.0,0.0,0.0,0.0,0.0,0.0,0.0,0.0,0.0,0.0,0.0,0.0,0.0,0.0,0.0,0.0,0.0,0.0,0.0,0.0,0.0,0.0,0.0,0.0,0.0,0.0,0.0,0.0,0.0,0.0,0.0,0.0,0.0,0.0,0.0,0.0,0.0,0.0,0.0,0.0,0.0,0.0,0.0,0.0,0.0,0.0,0.0,0.0,0.0,0.0,0.0,0.0,0.0,0.0,0.0,0.0,0.0,0.0,0.0,0.0,0.0,0.0,0.0,0.0,0.0,0.0,0.0,0.0,0.0,0.0,0.0,0.0,0.0,0.0,0.0,0.0,0.0,0.0,0.0,0.0,0.0,0.0,0.0,0.0,0.0,0.0,0.0,0.0,0.0,0.0,0.0,0.0,0.0,0.0,0.0,0.0,0.0,0.0,0.0,0.0,0.0,0.0,0.0,0.0,0.0,0.0,0.0,0.0,0.0,0.0,0.0,0.0,0.0,0.0,0.0,0.0,0.0,0.0,0.0,0.0,0.0,0.0,0.0,0.0,0.0,0.0,0.0,0.0,0.0,0.0,0.0,0.0,0.0,0.0,0.0,0.0,0.0,0.0,0.0,0.0,0.0,0.0,0.0,0.0,0.0,0.0,0.0,0.0,0.0,0.0,0.0,0.0,0.0,0.0,0.0,0.0,0.0,0.0,0.0,0.0,0.0,0.0,0.0,0.0,0.0,0.0,0.0,0.0,0.0,0.0,0.0,0.0,0.0,0.0,0.0,0.0,0.0,0.0,0.0,0.0,0.0,0.0,0.0,0.0,0.0,0.0,0.0,0.0,0.0,0.0,0.0,0.0,0.0,0.0,0.0,0.0,0.0,0.0,0.0,0.0,0.0,0.0,0.0,0.0,0.0,0.0,0.0,0.0,0.0,0.0,0.0,0.0,0.0,0.0,0.0,0.0,0.0,0.0,0.0,0.0,0.0,0.0,0.0,0.0,0.0,0.0,0.0,0.0,0.0,0.0,0.0,0.0,0.0,0.0,0.0,0.0,0.0,0.0,0.0,0.0,0.0,0.0,0.0,0.0,0.0,0.0,0.0,0.0,0.0,0.0,0.0,0.0,0.0,0.0,0.0,0.0,0.0,0.0,0.0,0.0,0.0,0.0,0.0,0.0,0.0,0.0,0.0,0.0,0.0,0.0,0.0,0.0,0.0,0.0,0.0,0.0,0.0,0.0,0.0,0.0,0.0,0.0,0.0,0.0,0.0,0.0,0.0,0.0,0.0,0.0,0.0,0.0,0.0,0.0,0.0,0.0,0.0,0.0,0.0,0.0,0.0,0.0,0.0,0.0,0.0,0.0,0.0,0.0,0.0,0.0,0.0,0.0,0.0,0.0,0.0,0.0,0.0,0.0,0.0,0.0,0.0,0.0,0.0,0.0,0.0,0.0,0.0,0.0,0.0,0.0,0.0,0.0,0.0,0.0,0.0,0.0,0.0,0.0,0.0,0.0,0.0,0.0,0.0,0.0,0.0,0.0,0.0,0.0,0.0,0.0,0.0,0.0,0.0,0.0,0.0,0.0,0.0,0.0,0.0,0.0,0.0,0.0,0.0,0.0,0.0,0.0,0.0,0.0,0.0,0.0,0.0,0.0,0.0,0.0,0.0,0.0,0.0,0.0,0.0,0.0,0.0,0.0,0.0,0.0,0.0,0.0,0.0,0.0,0.0,0.0,0.0,0.0,0.0,0.0,0.0,0.0,0.0,0.0,0.0,0.0,0.0,0.0,0.0,0.0,0.0,0.0,0.0,0.0,0.0,0.0,0.0,0.0,0.0,0.0,0.0,0.0,0.0,0.0,0.0,0.0,0.0,0.0,0.0,0.0,0.0,0.0,0.0,0.0,0.0,0.0,0.0,0.0,0.0,0.0,0.0,0.0,0.0,0.0,0.0,0.0,0.0,0.0,0.0,0.0,0.0,0.0,0.0,0.0,0.0,0.0,0.0,0.0,0.0,0.0,0.0,0.0,0.0,0.0,0.0,0.0,0.0,0.0,0.0,0.0,0.0,0.0,0.0,0.0,0.0,0.0,0.0,0.0,0.0,0.0,0.0,0.0,0.0,0.0,0.0,0.0,0.0,0.0,0.0,0.0,0.0,0.0,0.0,0.0,0.0,0.0,0.0,0.0,0.0,0.0,0.0,0.0,0.0,0.0,0.0,0.0,0.0,0.0,0.0,0.0,0.0,0.0,0.0,0.0,0.0,0.0,0.0,0.0,0.0,0.0,0.0,0.0,0.0,0.0,0.0,0.0,0.0,0.0,0.0,0.0,0.0,0.0,0.0,0.0,0.0,0.0,0.0,0.0,0.0,0.0,0.0,0.0,0.0,0.0,0.0,0.0,0.0,0.0,0.0,0.0,0.0,0.0,0.0,0.0,0.0,0.0,0.0,0.0,0.0,0.0,0.0,0.0,0.0,0.0,0.0,0.0,0.0,0.0,0.0,0.0,0.0,0.0,0.0,0.0,0.0,0.0,0.0,0.0,0.0,0.0,0.0,0.0,0.0,0.0,0.0,0.0,0.0,0.0,0.0,0.0,0.0,0.0,0.0,0.0,0.0,0.0,0.0,0.0,0.0,0.0,0.0,0.0,0.0,0.0,0.0,0.0,0.0,0.0,0.0,0.0,0.0,0.0,0.0,0.0,0.0,0.0,0.0,0.0,0.0,0.0,0.0,0.0,0.0,0.0,0.0,0.0,0.0,0.0,0.0,0.0,0.0,0.0,0.0,0.0,0.0,0.0,0.0,0.0,0.0,0.0,0.0,0.0,0.0,0.0,0.0,0.0,0.0,0.0,0.0,0.0,0.0,0.0,0.0,0.0,0.0,0.0,0.0,0.0,0.0,0.0,0.0,0.0,0.0,0.0,0.0,0.0,0.0,0.0,0.0,0.0,0.0,0.0,0.0,0.0,0.0,0.0,0.0,0.0,0.0,0.0,0.0,0.0,0.0,0.0,0.0,0.0,0.0,0.0,0.0,0.0,0.0,0.0,0.0,0.0,0.0,0.0,0.0,0.0,0.0,0.0,0.0,0.0,0.0,0.0,0.0,0.0,0.0,0.0,0.0,0.0,0.0,0.0,0.0,0.0,0.0,0.0,0.0,0.0,0.0,0.0,0.0,0.0,0.0,0.0,0.0,0.0,0.0,0.0,0.0,0.0,0.0,0.0,0.0,0.0,0.0,0.0,0.0,0.0,0.0,0.0,0.0,0.0,0.0,0.0,0.0,0.0,0.0,0.0,0.0,0.0,0.0,0.0,0.0,0.0,0.0,0.0,0.0,0.0,0.0,0.0,0.0,0.0,0.0,0.0,0.0,0.0,0.0,0.0,0.0,0.0,0.0,0.0,0.0,0.0,0.0,0.0,0.0,0.0,0.0,0.0,0.0,0.0,0.0,0.0,0.0,0.0,0.0,0.0,0.0,0.0,0.0,0.0,0.0,0.0,0.0,0.0,0.0,0.0,0.0,0.0,0.0,0.0,0.0,0.0,0.0,0.0,0.0,0.0,0.0,0.0,0.0,0.0,0.0,0.0,0.0,0.0,0.0,0.0,0.0,0.0,0.0,0.0,0.0,0.0,0.0,0.0,0.0,0.0,0.0,0.0,0.0,0.0,0.0,0.0,0.0,0.0,0.0,0.0,0.0,0.0,0.0,0.0,0.0,0.0,0.0,0.0,0.0,0.0,0.0,0.0,0.0,0.0,0.0,0.0,0.0,0.0,0.0,0.0,0.0,0.0,0.0,0.0,0.0,0.0,0.0,0.0,0.0,0.0,0.0,0.0,0.0,0.0,0.0,0.0,0.0,0.0,0.0,0.0,0.0,0.0,0.0,0.0,0.0,0.0,0.0,0.0,0.0,0.0,0.0,0.0,0.0,0.0,0.0,0.0,0.0,0.0,0.0,0.0,0.0,0.0,0.0,0.0,0.0,0.0,0.0,0.0,-2.4256,0.0,0.0,0.0,0.0,0.0,0.0,0.0,0.0,0.0,0.0,0.0,0.0,0.0,0.0,0.0,0.0,0.0,0.0,0.0,0.0,0.0,0.0,0.0,0.0,0.0,0.0,0.0,0.0,0.0,0.0,0.0,0.0,0.0,0.0,0.0,0.0,0.0,0.0,0.0,0.0,0.0,0.0,0.0,0.0,0.0,0.0,0.0,0.0,0.0,0.0,0.0,0.0,0.0,0.0,0.0,0.0,0.0,0.0,0.0,0.0,0.0,0.0,0.0,0.0,0.0,0.0,0.0,0.0,0.0,0.0,0.0,0.0,0.0,0.0,0.0,0.0,0.0,0.0,0.0,0.0,0.0,0.0,0.0,0.0,0.0,0.0,0.0,0.0,0.0,0.0,0.0,0.0,0.0,0.0,0.0,0.0,0.0,0.0,0.0,0.0,0.0,0.0,0.0,0.0,0.0,0.0,0.0,0.0,0.0,0.0,0.0,0.0,0.0,0.0,0.0,0.0,-2.7437,0.0,0.0,0.0,0.0,0.0,0.0,0.0,0.0,0.0,0.0,0.0,0.0,0.0,0.0,0.0,0.0,0.0,0.0,0.0,0.0,0.0,0.0,0.0,0.0,0.0,0.0,0.0,0.0,0.0,0.0,0.0,0.0,0.0,0.0,0.0,0.0,0.0,0.0,0.0,0.0,0.0,0.0,0.0,0.0,0.0,0.0,0.0,0.0,0.0,0.0,0.0,0.0,0.0,0.0,0.0,0.0,0.0,0.0,0.0,0.0,0.0,0.0,0.0,0.0,0.0,0.0,0.0,0.0,0.0,0.0,0.0,0.0,0.0,0.0,0.0,0.0,0.0,0.0,0.0,0.0,0.0,0.0,0.0,0.0,0.0,0.0,0.0,0.0,0.0,0.0,0.0,0.0,0.0,0.0,0.0,0.0,0.0,0.0,0.0,0.0,0.0,0.0,0.0,0.0,0.0,0.0,0.0,0.0,-3.2141,-3.4348,-3.6353,-3.7392,-3.8371,-3.9043,-3.5497,-3.3393,-3.2284,-2.9862,0.0,0.0,0.0,0.0,0.0,0.0,0.0,0.0,0.0,0.0,0.0,0.0,0.0,0.0,0.0,0.0,0.0,0.0,0.0,0.0,0.0,0.0,0.0,0.0,0.0,0.0,0.0,0.0,0.0,0.0,0.0,0.0,0.0,0.0,0.0,0.0,0.0,0.0,-1.807,-2.0383,-2.162,-2.1862,-2.1098,0.0,0.0,0.0,0.0,0.0,0.0,0.0,0.0,0.0,0.0,0.0,0.0,0.0,0.0,0.0,0.0,0.0,0.0,0.0,0.0,0.0,0.0,0.0,0.0,0.0,0.0,0.0,0.0,0.0,0.0,0.0,0.0,0.0,0.0,0.0,0.0,0.0,0.0,0.0,0.0,0.0,0.0,0.0,-1.8905,-1.9829,0.0,0.0,0.0,0.0,0.0,0.0,0.0,0.0,0.0,0.0,0.0,0.0,0.0,-2.9342,-3.2416,-3.4234,-3.5656,-3.6699,-3.78,-3.8507,-3.8859,-3.9697,-4.0991,-4.2539,-4.2019,0.0,-3.8348,-3.3553,0.0,0.0,0.0,0.0,0.0,0.0,0.0,0.0,0.0,0.0,0.0,0.0,0.0,0.0,0.0,0.0,0.0,0.0,0.0,0.0,0.0,0.0,0.0,0.0,0.0,0.0,0.0,0.0,0.0,0.0,0.0,0.0,0.0,0.0,0.0,0.0,-1.7206,-1.9223,-2.1269,-2.3289,-2.4787,-2.5857,-2.6543,-2.5467,-2.3123,-2.2868,0.0,0.0,0.0,0.0,0.0,0.0,0.0,0.0,0.0,0.0,0.0,0.0,0.0,0.0,0.0,0.0,0.0,0.0,0.0,0.0,0.0,0.0,0.0,0.0,0.0,0.0,0.0,0.0,0.0,0.0,0.0,0.0,0.0,0.0,0.0,0.0,0.0,0.0,0.0,-2.1063,-2.2747,-2.3571,-2.4052,-2.4044,0.0,0.0,0.0,0.0,0.0,0.0,0.0,0.0,0.0,-2.9589,-3.2138,-3.4171,-3.5624,-3.7352,-3.8609,-3.9431,-4.1331,-4.2447,-4.2893,-4.4335,-4.5423,-4.6171,-4.6278,-4.5764,-4.4472,-3.9731,-3.7598,-3.6957,0.0,0.0,0.0,0.0,-2.9757,-3.0501,0.0,0.0,0.0,0.0,0.0,0.0,0.0,0.0,0.0,0.0,0.0,0.0,0.0,0.0,0.0,-1.173,0.0,0.0,0.0,0.0,0.0,0.0,0.0,0.0,0.0,0.0,0.0,0.0,-1.981,-2.1764,-2.3952,-2.6067,-2.7697,-2.8933,-3.1071,-2.9889,-2.6307,-2.6377,-2.4479,0.0,0.0,0.0,0.0,0.0,0.0,0.0,0.0,0.0,0.0,0.0,0.0,0.0,0.0,0.0,0.0,0.0,0.0,0.0,0.0,0.0,0.0,0.0,0.0,0.0,0.0,0.0,0.0,0.0,0.0,0.0,0.0,0.0,0.0,0.0,0.0,0.0,0.0,-2.3741,-2.5787,-2.6453,-2.7533,-2.7979,0.0,0.0,0.0,0.0,0.0,0.0,-2.8714,-3.1684,-3.373,-3.4571,-3.7076,-3.8584,-3.8969,-4.0489,-4.1643,-4.247,-4.4468,-4.5719,-4.6297,-4.7971,-4.874,-4.8797,-4.9122,-4.9162,-4.8644,-4.4552,-4.1849,-4.0156,-3.8748,-3.7603,-3.6601,-3.5728,-3.5979,-3.6818,0.0,0.0,0.0,0.0,0.0,0.0,0.0,0.0,0.0,0.0,0.0,0.0,0.0,0.0,-1.3553,-1.6742,-1.6357,-1.6309,0.0,0.0,0.0,0.0,0.0,0.0,0.0,0.0,0.0,-1.9771,-2.1521,-2.3201,-2.4809,-2.808,-3.0067,-3.0977,-3.3412,-3.258,-2.9251,-2.8744,-2.7053,-2.4447,0.0,0.0,0.0,0.0,0.0,0.0,0.0,0.0,0.0,0.0,0.0,0.0,0.0,0.0,0.0,0.0,0.0,0.0,0.0,0.0,0.0,0.0,0.0,0.0,0.0,0.0,0.0,0.0,0.0,0.0,0.0,0.0,0.0,0.0,0.0,0.0,0.0,0.0,0.0,-2.632,-3.0017,0.0,0.0,0.0,0.0,-3.2449,-3.2512,-3.3275,-3.4969,-3.6774,-3.8147,-3.8965,-4.145,-4.3547,-4.5124,-4.6067,-4.6932,-4.7721,-4.7855,-4.7932,-4.8009,-4.8933,-4.9432,-4.9586,-5.0433,-5.0387,-4.949,-4.6071,-4.4975,-4.5175,-4.2712,-4.2247,-4.2838,-4.1963,-4.2276,-4.3019,0.0,0.0,0.0,0.0,0.0,0.0,0.0,0.0,0.0,0.0,0.0,0.0,0.0,-1.468,-1.7075,-1.8973,-2.0565,-2.1042,-2.0002,0.0,0.0,0.0,0.0,0.0,0.0,0.0,-1.9833,-2.2604,-2.3744,-2.5718,-2.8441,-3.0737,-3.2462,-3.3764,-3.647,-3.6875,-3.5457,-3.4141,-3.1765,-2.8723,-2.6839,-2.3423,0.0,0.0,0.0,0.0,0.0,0.0,0.0,0.0,0.0,0.0,0.0,0.0,0.0,0.0,0.0,0.0,0.0,0.0,0.0,0.0,0.0,0.0,0.0,0.0,0.0,0.0,0.0,0.0,0.0,0.0,0.0,0.0,0.0,0.0,0.0,0.0,0.0,-3.049,-3.343,0.0,-3.493,-3.4693,-3.504,-3.6164,-3.6741,-3.7791,-3.9465,-4.1697,-4.3313,-4.4162,-4.5566,-4.6605,-4.7201,-4.7528,-4.7817,-4.8105,-4.8663,-4.8933,-4.8971,-4.9837,-5.0587,-5.1222,-5.1537,-5.1525,-5.1182,-4.999,-4.8664,-4.7317,-4.6417,-4.6268,-4.652,-4.6309,-4.645,-4.6725,0.0,0.0,0.0,0.0,0.0,0.0,0.0,0.0,0.0,0.0,0.0,-1.2087,-1.3807,-1.6986,-1.9631,-2.1214,-2.3073,-2.3474,-2.1847,0.0,0.0,0.0,0.0,0.0,0.0,-2.0345,-2.2207,-2.4505,-2.6197,-2.8321,-3.0891,-3.2872,-3.4438,-3.5755,-3.8501,-3.9772,-3.9827,-3.8967,-3.6583,-3.3233,-3.1073,-2.735,-2.2814,0.0,0.0,0.0,0.0,0.0,0.0,0.0,0.0,0.0,0.0,0.0,0.0,0.0,0.0,0.0,0.0,0.0,0.0,0.0,0.0,0.0,0.0,0.0,0.0,0.0,0.0,0.0,0.0,0.0,0.0,0.0,0.0,0.0,0.0,0.0,-3.3205,-3.4083,-3.6978,-3.9028,-3.9326,-3.908,-3.9509,-4.0964,-4.1559,-4.2604,-4.4278,-4.5682,-4.6971,-4.8144,-4.8702,-4.9106,-4.9394,-4.9394,-4.9394,-4.9394,-4.9683,-4.9837,-4.9856,-5.0433,-5.1048,-5.1722,-5.1943,-5.1889,-5.1702,-5.1933,-5.1068,-4.9567,-4.9586,-4.9616,-4.9683,-4.9795,-4.9887,-4.9855,0.0,0.0,0.0,0.0,0.0,0.0,0.0,0.0,0.0,0.0,-0.9991,-1.2889,-1.6176,-1.8669,-2.1105,-2.3626,-2.3645,-2.3265,-2.269,-2.1878,0.0,0.0,0.0,0.0,-1.9225,-2.33,-2.5447,-2.5457,-2.8802,-3.091,-3.1872,-3.4372,-3.6007,-3.693,-3.9431,-4.1046,-4.1931,-4.2777,-4.1239,-3.793,-3.4438,-3.0904,-2.7338,0.0,0.0,0.0,0.0,0.0,0.0,0.0,0.0,0.0,0.0,0.0,0.0,0.0,0.0,0.0,0.0,0.0,0.0,0.0,0.0,0.0,0.0,0.0,0.0,0.0,0.0,0.0,0.0,0.0,0.0,0.0,0.0,0.0,-2.9398,-3.291,-3.594,-3.6801,-4.0642,-4.2893,-4.2085,-4.422,-4.6028,-4.6913,-4.7009,-4.774,-4.9394,-4.8702,-4.9029,-5.0721,-5.0779,-5.1144,-5.1933,-5.1952,-5.1952,-5.1933,-5.1144,-5.0779,-5.0779,-5.0779,-5.0856,-5.1049,-5.1702,-5.1606,-5.1068,-5.1722,-5.203,-5.2088,-5.2088,-5.2195,-5.2327,-5.2459,-5.258,-5.2422,0.0,0.0,0.0,0.0,0.0,0.0,0.0,0.0,0.0,0.0,-1.1891,-1.5077,-1.7208,-2.0059,-2.2637,-2.4704,-2.4164,-2.3709,-2.3689,0.0,0.0,0.0,0.0,0.0,-2.3608,-2.537,-2.7159,-2.8994,-3.0583,-3.241,-3.4487,-3.5776,-3.7469,-3.9508,-4.0854,-4.2258,-4.3624,-4.3874,-4.3778,-4.3201,-3.9762,-3.5897,-3.2039,0.0,0.0,0.0,0.0,0.0,0.0,0.0,0.0,0.0,0.0,0.0,0.0,0.0,0.0,0.0,0.0,0.0,0.0,0.0,0.0,0.0,0.0,0.0,0.0,0.0,0.0,0.0,0.0,0.0,0.0,0.0,0.0,-3.3821,-3.2929,-3.7016,-4.0419,-4.1239,-4.4008,-4.599,-4.6336,-4.7009,-4.7778,-4.8644,-4.9298,-5.0106,-5.1164,-5.1587,-5.2029,-5.2491,-5.251,-5.2626,-5.2837,-5.2837,-5.2837,-5.2837,-5.2626,-5.251,-5.251,-5.251,-5.2876,-5.351,-5.3703,-5.3683,-5.351,-5.3703,-5.3049,-5.1972,-5.2165,-5.2337,-5.2469,-5.2598,-5.2267,-5.1699,0.0,0.0,0.0,0.0,0.0,0.0,0.0,0.0,0.0,0.0,-1.2376,-1.5901,-1.7613,-2.0352,-2.2805,-2.463,-2.3946,-2.318,-2.2593,0.0,0.0,0.0,0.0,-2.4039,-2.5871,-2.7054,-2.8736,-3.0948,-3.1795,-3.3506,-3.6026,-3.6853,-3.8604,-4.1085,-4.197,-4.3278,-4.4874,-4.522,-4.5682,-4.599,-4.4355,-4.0899,-3.6554,-3.497,-3.2632,-3.0085,-2.9146,-2.9484,-2.9785,-2.6026,0.0,0.0,0.0,0.0,0.0,0.0,0.0,0.0,0.0,0.0,0.0,0.0,0.0,0.0,0.0,0.0,0.0,0.0,0.0,0.0,0.0,0.0,0.0,0.0,-3.5194,-3.8248,-3.8411,-4.1001,-4.3365,-4.4547,-4.6624,-4.8125,-4.8606,-4.9279,-4.9913,-5.0414,-5.1241,-5.2106,-5.2953,-5.3126,-5.353,-5.4222,-5.3914,-5.3914,-5.4241,-5.3914,-5.3741,-5.3741,-5.3376,-5.3203,-5.3203,-5.3203,-5.3491,-5.3972,-5.4337,-5.4087,-5.3433,-5.3799,-5.3183,0.0,0.0,0.0,0.0,0.0,-5.2148,-5.1406,0.0,0.0,0.0,0.0,0.0,0.0,0.0,0.0,0.0,0.0,0.0,-1.5438,-1.7175,-1.9586,-2.1823,-2.3648,-2.3083,-2.2023,0.0,0.0,0.0,-2.3095,-2.4684,-2.6006,-2.7005,-2.8659,-3.0333,-3.1987,-3.2891,-3.4545,-3.6873,-3.7834,-3.9585,-4.1989,-4.2854,-4.4162,-4.5797,-4.6567,-4.6951,-4.7105,-4.7817,-4.5337,-4.096,-3.8712,-3.6761,-3.5119,-3.4193,-3.3963,-3.3786,-3.168,0.0,0.0,0.0,0.0,0.0,0.0,0.0,0.0,0.0,0.0,0.0,0.0,0.0,0.0,0.0,0.0,0.0,0.0,0.0,0.0,0.0,0.0,0.0,0.0,-3.9339,-4.3057,-4.4795,-4.5105,-4.5663,-4.7028,-4.8663,-4.9683,-4.9683,-5.1125,-5.2106,-5.2202,-5.2914,-5.3722,-5.4587,0.0,0.0,0.0,0.0,-5.4972,-5.5684,-5.4991,-5.4645,-5.4626,-5.3857,-5.3491,-5.3491,-5.3491,-5.3491,-5.353,-5.4203,-5.3626,-5.226,-5.2933,-5.2779,-5.2184,-5.313,-5.3018,-5.2353,-5.249,-5.2051,-5.1406,0.0,0.0,0.0,0.0,0.0,0.0,0.0,0.0,0.0,-0.9436,-1.1092,-1.2798,-1.4533,-1.6992,-1.9464,-2.1803,-2.1308,-2.1051,0.0,0.0,-2.2429,-2.4806,-2.5851,-2.74,-2.9621,-3.1314,-3.266,-3.3718,-3.5238,-3.6584,-3.7777,-3.9296,-4.1027,-4.2874,-4.3701,-4.5028,-4.6663,-4.6836,-4.7278,-4.7875,-4.8048,-4.7124,-4.5607,-4.5107,-4.3838,-4.2223,-4.138,-4.1514,-4.1495,-3.7736,-3.6272,-3.5556,-3.3012,0.0,0.0,0.0,0.0,0.0,0.0,0.0,0.0,0.0,0.0,0.0,0.0,0.0,0.0,0.0,0.0,0.0,0.0,0.0,0.0,-4.0877,-4.3946,-4.6758,-4.9125,-5.0029,-5.0048,-4.9048,-5.0394,-5.1433,-5.1433,-5.2356,-5.3241,-5.3933,-5.4145,-5.4607,-5.5415,-5.5299,-5.5376,-5.5684,-5.5549,-5.553,-5.5703,-5.5549,-5.5472,-5.5472,0.0,0.0,-5.5222,-5.5222,-5.5222,-5.5184,-5.4703,-5.4318,-5.3953,-5.3414,-5.2779,-5.2146,-5.2545,-5.2687,-5.2533,-5.1894,-5.1543,-5.1406,0.0,0.0,0.0,0.0,0.0,0.0,0.0,0.0,0.0,0.0,-1.1114,-1.277,-1.3878,-1.55,-1.734,-1.9453,-1.9335,0.0,0.0,-2.1448,-2.2973,-2.5918,-2.6814,-2.8448,-3.1006,-3.1872,-3.291,-3.4199,-3.5488,-3.6757,-3.8046,-3.9719,-4.1431,-4.3143,-4.3932,-4.5028,-4.6297,-4.7144,-4.774,-4.8182,-4.9048,-4.9163,-4.8702,-4.7836,-4.6971,-4.6105,-4.5297,-4.5259,-4.522,-4.2646,-4.1508,-4.0854,-3.9185,-3.5771,-3.1854,0.0,0.0,0.0,0.0,0.0,0.0,0.0,0.0,0.0,0.0,0.0,0.0,0.0,0.0,-3.5369,0.0,0.0,-4.32,-4.5307,-4.7758,-4.9856,-5.1125,-5.2395,-5.2568,-5.0856,-5.1779,-5.2549,-5.2549,-5.3337,-5.403,-5.4472,-5.4876,-5.528,-5.5684,-5.5703,-5.5703,-5.5703,-5.5703,-5.5703,-5.5703,-5.5703,-5.5703,-5.5703,-5.5703,-5.5703,-5.5703,-5.5703,-5.5703,-5.5684,-5.528,-5.4876,-5.4395,-5.3087,-5.2684,-5.2781,-5.2071,-5.1868,-5.1894,-5.1543,-5.1406,-5.1406,0.0,0.0,0.0,0.0,0.0,0.0,0.0,0.0,0.0,0.0,-1.0995,-1.2699,-1.3437,-1.4238,-1.5505,0.0,0.0,0.0,0.0,-2.1501,-2.3447,-2.6805,-2.7574,-2.9179,-3.1872,-3.1929,-3.2833,-3.468,-3.5565,-3.6834,-3.8527,-4.02,-4.1835,-4.3374,-4.4355,-4.5278,-4.6163,-4.7528,-4.8202,-4.8471,-4.9702,-5.0183,-5.0029,-4.8625,-4.8105,-4.8029,-4.7375,-4.6605,-4.5892,-4.5663,-4.4814,-4.3833,-4.3835,-4.187,-3.87,-3.4295,-3.3399,0.0,0.0,0.0,0.0,0.0,0.0,0.0,0.0,0.0,-3.3276,-3.6173,-3.8672,-4.0951,-4.285,-4.5796,-4.8214,-4.9025,-5.0991,-5.2472,-5.2626,-5.3857,-5.4203,-5.2818,-5.326,-5.3626,-5.3472,-5.4222,-5.4722,-5.4722,-5.5318,-5.5703,-5.5703,-5.5703,-5.5703,-5.5703,-5.5857,-5.5857,-5.5703,-5.5857,-5.5857,-5.5703,-5.5703,-5.5703,-5.5703,-5.5703,-5.5703,-5.5684,-5.553,-5.4914,-5.3895,-5.2683,-5.255,-5.2974,-5.1819,-5.1296,-5.1226,-5.1346,-5.1406,-5.1406,0.0,0.0,0.0,0.0,0.0,0.0,0.0,0.0,0.0,0.0,0.0,0.0,0.0,0.0,0.0,0.0,0.0,0.0,-2.1494,-2.2364,-2.4361,-2.771,-2.7937,-2.9494,-3.2699,-3.2776,-3.3968,-3.643,-3.7296,-3.8584,-4.0258,-4.1989,-4.3297,-4.4239,-4.5874,-4.7067,-4.7836,-4.8029,-4.8548,-4.9202,-4.8625,-4.8394,-4.8375,-4.8182,-4.8105,-4.8086,-4.8009,-4.5582,-4.278,-4.4891,-4.4078,-4.2665,-4.5565,-4.3698,-4.0034,-3.7924,0.0,-3.1236,-2.7421,-2.6787,-2.7516,-2.8772,-2.9525,-3.1769,0.0,0.0,-4.0617,-4.4658,-4.6912,-4.7989,-4.7508,-4.9567,-5.1625,-5.2491,-5.351,-5.4453,-5.5164,-5.5434,-5.5491,-5.5299,-5.5357,-5.5145,-5.4414,-5.5088,-5.5568,-5.5568,-5.5645,-5.5703,-5.5703,-5.5703,-5.5703,-5.5703,-5.6434,-5.6472,-5.5703,-5.6472,-5.6472,-5.5703,-5.5703,-5.5703,-5.5703,-5.5703,-5.5703,-5.5665,-5.4934,-5.3703,-5.2241,-5.2934,-5.2415,-5.1279,-5.203,-5.1875,-5.1219,-5.1351,-5.1406,-5.1406,0.0,0.0,0.0,0.0,0.0,0.0,0.0,0.0,0.0,0.0,0.0,0.0,0.0,0.0,0.0,0.0,0.0,0.0,-2.0936,-2.1848,-2.4037,-2.7959,-2.8036,-2.934,-3.2204,-3.2692,-3.393,-3.6007,-3.7334,-3.8854,-4.0527,-4.2277,-4.3528,-4.4355,-4.5586,-4.6336,-4.6701,-4.7682,-4.8317,-4.8702,-4.9356,-4.9317,-4.8856,-4.8856,-4.7625,-4.5817,-4.5351,-4.4075,0.0,0.0,-4.2337,-4.2298,-4.4641,-4.3192,-4.0169,-3.7945,-3.6095,0.0,-3.2441,-3.0844,-3.0348,0.0,-3.5027,-3.7596,-4.2248,-4.4542,-4.6371,-4.8625,-5.1221,-5.2953,-5.2587,-5.3818,-5.4991,0.0,-5.528,-5.5318,-5.5645,-5.5703,-5.5338,-5.4357,-5.4684,-5.5049,-5.5184,-5.5491,-5.5703,-5.5703,-5.5703,-5.5703,-5.5703,-5.5703,-5.5703,-5.5703,-5.6549,-5.6819,-5.6453,-5.6819,-5.6819,-5.6434,-5.5934,-5.5703,-5.5703,-5.5703,-5.5703,-5.5684,-5.5338,-5.4818,-5.4222,-5.4185,-5.3839,-5.328,-5.2723,-5.2339,-5.2026,-5.1572,-5.1406,-5.1406,0.0,0.0,0.0,0.0,0.0,0.0,0.0,0.0,0.0,0.0,0.0,0.0,0.0,0.0,0.0,0.0,0.0,0.0,0.0,-2.1073,-2.3398,-2.6973,-2.7705,-2.9205,-3.1742,-3.2519,-3.3853,-3.5834,-3.7296,-3.8854,-4.0527,-4.2047,-4.3297,-4.4335,-4.5201,-4.572,-4.6028,-4.7259,-4.7778,-4.7855,-4.8875,-4.8759,-4.7932,-4.7471,-4.5622,-4.3269,-4.3146,-4.2198,0.0,0.0,-3.9534,-3.9824,-4.1677,-4.0858,-3.8865,-3.7011,-3.585,-3.5078,-3.4657,0.0,0.0,-3.7236,-4.026,-4.3111,-4.6084,-4.8856,-5.1183,-5.251,-5.453,-5.6049,-5.6049,-5.6376,-5.6626,-5.6626,-5.6107,-5.5703,-5.5703,-5.5299,-5.4568,-5.3337,-5.3356,-5.3683,-5.426,-5.4953,-5.5376,-5.5376,-5.5568,-5.5703,-5.5703,-5.5703,-5.5703,-5.5703,-5.678,-5.7242,-5.6992,-5.7453,-5.7453,-5.6973,-5.6357,-5.5934,-5.5703,-5.5703,-5.5703,-5.5703,-5.5742,-5.5665,-5.5551,-5.5282,-5.4858,-5.43,-5.3301,-5.2677,-5.2259,-5.1636,-5.1406,-5.1406,0.0,0.0,0.0,0.0,0.0,0.0,0.0,0.0,0.0,0.0,0.0,0.0,0.0,0.0,0.0,0.0,0.0,0.0,0.0,-2.0388,-2.2578,-2.4336,-2.6778,-2.9264,-3.1744,-3.2526,-3.4141,-3.6661,-3.7565,-3.8854,-4.0508,-4.1412,-4.272,-4.4335,-4.5201,-4.6067,-4.6874,-4.6913,-4.6951,-4.6874,-4.6067,-4.522,-4.4278,-4.2662,-4.1493,-4.093,-4.2526,0.0,0.0,0.0,-3.5427,-3.3885,-3.6346,-3.6491,0.0,-3.5665,-3.3345,-3.0967,0.0,0.0,-3.6493,-4.0684,-4.4251,-4.7798,-5.1991,-5.3664,-5.5049,-5.755,-5.7473,-5.6953,-5.6953,-5.628,-5.5742,-5.5742,-5.5722,-5.5703,-5.5703,-5.4299,-5.326,-5.3222,-5.1779,-5.0818,0.0,-5.3087,-5.453,-5.453,-5.5261,-5.5703,-5.5703,-5.5703,-5.5703,-5.5703,-5.7376,-5.7857,-5.6992,-5.8607,-5.8607,-5.6992,-5.6953,-5.6511,-5.5703,-5.5703,-5.5703,-5.5703,-5.5838,-5.5455,-5.482,-5.5898,-5.486,-5.2666,-5.3591,-5.2916,-5.1445,-5.1406,-5.1406,-5.1406,0.0,0.0,0.0,0.0,0.0,0.0,0.0,0.0,0.0,0.0,0.0,0.0,0.0,0.0,0.0,0.0,0.0,0.0,0.0,-1.8929,-2.1094,-2.3398,-2.5383,-2.7362,-2.9363,-3.065,-3.2327,-3.4372,-3.5166,-3.6748,-3.9054,-3.9262,-4.0566,-4.2739,-4.3566,-4.4393,-4.5259,-4.6413,-4.6913,-4.6817,-4.5951,-4.4771,-4.3462,-4.229,-3.9625,-3.6635,0.0,0.0,0.0,0.0,0.0,0.0,-3.4623,0.0,-3.1484,-3.1495,-3.184,-3.2793,-3.5295,0.0,-4.1437,-4.5098,-4.8566,-5.1606,-5.3606,-5.5607,-5.6934,-5.6646,-5.6403,-5.5943,-5.4814,-5.3031,-5.2078,-5.3144,-5.3301,-5.3668,-5.4762,-5.4876,-5.403,-5.1798,-5.151,0.0,0.0,0.0,0.0,-5.2779,-5.4107,-5.4895,-5.4895,-5.5415,-5.5703,-5.5703,-5.6819,-5.73,-5.6992,-5.755,-5.755,-5.6973,-5.6395,-5.5972,-5.5703,-5.5703,-5.5703,-5.5703,-5.5838,-5.5826,-5.5724,-5.6213,-5.5587,-5.4392,-5.4723,-5.3799,-5.2266,-5.2266,-5.1894,-5.1406,0.0,0.0,0.0,0.0,0.0,0.0,0.0,0.0,0.0,0.0,0.0,0.0,0.0,0.0,0.0,0.0,0.0,0.0,0.0,0.0,-1.8958,-2.0672,-2.2925,-2.4809,-2.6234,-2.7514,-2.8907,-3.0385,-3.151,-3.3082,-3.5104,-3.5618,-3.7043,-3.9231,-3.9753,-4.06,-4.1716,-4.2848,-4.3684,-4.4141,-4.2969,-4.2063,-4.1197,-3.912,-3.6346,0.0,0.0,0.0,0.0,0.0,0.0,0.0,0.0,-3.0937,-2.953,-3.0095,-3.2264,-3.5291,-3.8891,-4.2575,-4.6188,-4.9548,-5.226,-5.4395,-5.5588,-5.6876,-5.736,-5.5671,-5.4901,-5.3935,-5.1991,-5.0066,-4.9141,-5.0124,-5.0797,-5.1759,-5.3358,-5.3491,-5.2991,-5.1741,-5.126,-5.0279,0.0,0.0,0.0,-5.1471,-5.3626,-5.4799,-5.4511,-5.5261,-5.5703,-5.5703,-5.6549,-5.6992,-5.6992,-5.73,-5.73,-5.6973,-5.6107,-5.5703,-5.5703,-5.5703,-5.5722,-5.578,-5.5955,-5.6097,-5.6267,-5.6412,-5.6004,-5.5273,-5.4961,-5.3965,-5.2656,-5.2344,-5.1875,-5.1406,0.0,0.0,0.0,0.0,0.0,0.0,0.0,0.0,0.0,0.0,0.0,0.0,0.0,0.0,0.0,0.0,0.0,0.0,0.0,0.0,0.0,-1.6361,-1.9503,-2.1645,-2.2536,-2.3327,-2.4196,-2.5118,-2.6825,-2.8144,-2.9071,-3.0661,-3.2348,-3.4068,-3.4108,-3.5044,-3.6638,-3.6733,-3.7714,-3.9081,-3.7373,-3.7181,-3.7444,-3.3382,0.0,0.0,0.0,0.0,0.0,0.0,0.0,0.0,0.0,-2.916,-3.0244,-3.1798,-3.472,-3.8334,-4.2449,-4.6629,-5.0583,-5.3819,-5.5203,-5.6184,-5.78,-5.7415,-5.6305,-5.4727,-5.2947,-5.0893,0.0,0.0,-4.6873,-4.6819,-4.833,-5.0086,-5.1741,-5.0644,-5.0548,0.0,0.0,0.0,0.0,0.0,0.0,-5.076,0.0,-5.5261,-5.453,-5.5261,-5.5703,-5.5703,-5.6492,-5.6915,-5.6915,-5.7742,-5.7742,-5.6915,-5.6088,-5.5703,-5.5703,-5.5703,-5.578,-5.5895,-5.6128,-5.6282,-5.6404,-5.6536,-5.6094,-5.5215,-5.4394,-5.3516,-5.2598,-5.1777,-5.1445,-5.1406,0.0,0.0,0.0,0.0,0.0,0.0,0.0,0.0,0.0,0.0,0.0,0.0,0.0,0.0,0.0,0.0,0.0,0.0,0.0,0.0,0.0,0.0,0.0,0.0,0.0,0.0,0.0,0.0,0.0,-2.4033,-2.5585,-2.5913,-2.7288,-2.9508,-3.0102,-3.1313,-3.296,-3.427,-3.5093,-3.5464,0.0,-3.3807,-3.3322,0.0,0.0,0.0,0.0,0.0,0.0,0.0,0.0,0.0,0.0,-3.3274,-3.629,-3.7892,-4.0783,-4.4394,-4.8526,-5.1857,-5.4494,-5.5994,-5.6511,-5.6607,-5.6415,-5.4804,-5.3048,-5.2003,-4.8532,-4.5103,0.0,0.0,0.0,-4.407,-4.6723,0.0,-5.2472,-5.3068,0.0,-5.3203,0.0,-5.1837,-5.0798,-5.1837,0.0,0.0,-5.2991,-5.403,-5.4472,-5.5261,-5.5703,-5.5703,-5.5915,-5.603,-5.603,-5.6242,-5.6242,-5.603,-5.5799,-5.5703,-5.5703,-5.5799,-5.5857,-5.5915,-5.6225,-5.6359,-5.6404,-5.6536,-5.6094,-5.5273,-5.5058,-5.4043,-5.2676,-5.2441,-5.1953,-5.1406,0.0,0.0,0.0,0.0,0.0,0.0,0.0,0.0,0.0,0.0,0.0,0.0,0.0,0.0,0.0,0.0,0.0,0.0,0.0,0.0,0.0,0.0,0.0,0.0,0.0,0.0,0.0,0.0,0.0,0.0,0.0,-2.1059,-2.2305,-2.4014,-2.4822,-2.5915,-2.724,-2.8572,0.0,0.0,0.0,0.0,0.0,0.0,0.0,0.0,0.0,0.0,0.0,0.0,0.0,-3.5235,-3.566,-3.7713,-4.0477,-4.3131,0.0,-4.8769,-5.253,-5.5434,-5.7492,-5.7973,-5.7819,-5.7052,-5.5093,-5.3032,-5.0564,-4.7168,-4.3974,0.0,-3.8082,0.0,0.0,0.0,0.0,0.0,-5.0548,-5.2049,-5.3068,0.0,-5.378,0.0,-5.2953,-5.3433,-5.3703,0.0,-5.403,-5.4357,-5.4491,-5.5261,-5.5703,-5.5703,-5.5703,-5.5703,-5.5703,-5.5703,-5.5703,-5.5703,-5.5703,-5.5703,-5.5703,-5.5838,-5.5962,-5.6048,0.0,-5.6422,-5.65,-5.6563,-5.6094,-5.5254,-5.4883,-5.3906,-5.2656,-5.2266,-5.1816,-5.1445,0.0,0.0,0.0,0.0,0.0,0.0,0.0,0.0,0.0,0.0,0.0,0.0,0.0,0.0,0.0,0.0,0.0,0.0,0.0,0.0,0.0,0.0,0.0,0.0,0.0,0.0,0.0,0.0,0.0,0.0,0.0,0.0,0.0,0.0,0.0,0.0,0.0,0.0,0.0,0.0,0.0,0.0,0.0,0.0,0.0,0.0,0.0,0.0,0.0,0.0,-3.5697,-3.7356,-4.037,-4.2244,-4.4078,-4.7703,-5.0047,-5.2107,-5.5205,-5.7819,-5.9627,-5.9396,-5.8646,-5.7093,-5.3724,-5.1241,-4.7951,-4.1964,0.0,-3.7598,-3.3682,-3.5139,-3.6968,-3.7046,0.0,-4.5295,-4.8067,-4.974,-5.1645,-5.4203,-5.4491,-5.4818,-5.5607,-5.5068,-5.4953,-5.5645,-5.5703,-5.5395,-5.4703,-5.5318,-5.5703,-5.5703,-5.5703,-5.5703,-5.5703,-5.5703,-5.5703,-5.5703,-5.5703,-5.5703,-5.5722,-5.5857,-5.6036,-5.6239,-5.6375,-5.6489,-5.6582,-5.6484,-5.5918,-5.5058,-5.4297,-5.3398,-5.2461,-5.1933,-5.168,-5.1699,0.0,0.0,0.0,0.0,0.0,0.0,0.0,0.0,0.0,0.0,-0.7705,-0.8109,0.0,0.0,0.0,0.0,0.0,0.0,0.0,0.0,0.0,0.0,0.0,0.0,0.0,0.0,0.0,0.0,0.0,0.0,0.0,0.0,0.0,0.0,0.0,0.0,0.0,0.0,0.0,0.0,0.0,0.0,0.0,0.0,0.0,0.0,0.0,0.0,0.0,0.0,-3.8154,-4.1449,-4.3355,-4.6441,-4.9797,-5.174,-5.3531,-5.5282,-5.73,-5.9184,-6.0242,-5.8858,-5.7319,-5.5283,-5.1987,-4.724,0.0,0.0,-3.6966,-3.3819,-3.1635,-3.3871,-3.6448,-3.7679,0.0,0.0,0.0,0.0,-5.1645,0.0,0.0,0.0,0.0,0.0,0.0,0.0,0.0,-5.5645,-5.5491,-5.5607,-5.5703,-5.5703,-5.5703,-5.5703,-5.5703,-5.5703,-5.5703,-5.5703,-5.5703,-5.5761,-5.5857,-5.6071,-5.6228,-5.6367,-5.6511,0.0,-5.6543,-5.582,-5.5019,-5.4219,-5.4062,-5.3027,-5.1777,-5.3066,-5.3086,-5.2572,0.0,0.0,0.0,0.0,0.0,0.0,0.0,0.0,-0.7026,-0.7725,-0.8074,-0.8365,-0.863,-0.8749,0.0,0.0,0.0,0.0,0.0,0.0,0.0,0.0,0.0,0.0,0.0,0.0,0.0,0.0,0.0,0.0,0.0,0.0,0.0,0.0,0.0,0.0,0.0,0.0,0.0,0.0,0.0,0.0,0.0,0.0,0.0,0.0,0.0,0.0,0.0,0.0,-3.645,-4.0499,-4.5714,-4.9322,-5.1606,-5.1432,-5.3745,-5.6282,-5.5825,-5.819,-6.0492,-5.9242,-5.73,-5.438,-4.9347,0.0,0.0,0.0,-3.3771,-3.1561,-2.9762,0.0,0.0,0.0,0.0,0.0,0.0,0.0,0.0,0.0,0.0,0.0,0.0,0.0,0.0,0.0,0.0,-5.5703,-5.5703,-5.5703,-5.5703,-5.5703,-5.5703,-5.5703,-5.5703,-5.5703,-5.5703,-5.5703,-5.5703,-5.5761,-5.5917,-5.6111,-5.6267,-5.6403,-5.655,-5.6601,-5.6523,-5.5664,-5.4785,-5.3983,-5.3911,-5.3114,-5.2113,-5.3345,-5.3532,-5.3273,0.0,0.0,0.0,0.0,0.0,0.0,0.0,-0.6016,-0.7311,-0.8269,-0.858,-0.8804,-0.9004,-0.9034,-0.9022,0.0,0.0,0.0,0.0,0.0,0.0,0.0,0.0,0.0,0.0,0.0,0.0,-0.9971,0.0,0.0,0.0,0.0,0.0,0.0,0.0,0.0,0.0,0.0,0.0,0.0,0.0,0.0,0.0,0.0,0.0,0.0,0.0,0.0,0.0,0.0,-3.3243,-3.7129,-4.4562,-4.8525,-5.0276,-4.9586,-5.2374,-5.54,-5.415,-5.7116,-6.0262,-5.9223,-5.6915,-5.3263,-4.6964,-4.3013,0.0,0.0,-3.1033,-2.9844,-2.8223,0.0,-3.136,0.0,0.0,0.0,0.0,0.0,0.0,0.0,0.0,0.0,0.0,0.0,0.0,0.0,0.0,0.0,-5.5703,-5.5703,-5.5703,-5.5703,-5.5703,-5.5703,-5.5703,-5.5703,-5.5703,-5.5703,-5.5703,-5.578,-5.5955,-5.6121,-5.6291,-5.6446,-5.6558,-5.6601,-5.6523,-5.5664,-5.4761,-5.3967,-5.4061,-5.3409,-5.2604,-5.3731,-5.4052,-5.4013,0.0,0.0,0.0,0.0,0.0,0.0,0.0,-0.732,-0.8275,-0.861,-0.895,-0.9222,-0.9419,-0.9067,-0.8832,0.0,0.0,0.0,0.0,0.0,0.0,0.0,0.0,0.0,0.0,0.0,0.0,-0.9904,-1.0025,0.0,0.0,0.0,0.0,0.0,0.0,-1.2815,0.0,0.0,0.0,0.0,0.0,0.0,0.0,0.0,0.0,0.0,0.0,0.0,0.0,0.0,0.0,-3.2063,-3.5955,-4.0468,-4.4841,-4.7549,0.0,0.0,-5.4725,-5.7492,-5.9223,-5.7627,-5.4722,-5.0933,-4.586,0.0,0.0,-3.1736,-2.9684,-2.822,-2.7205,-2.7908,-2.9355,0.0,0.0,-3.5823,0.0,0.0,0.0,0.0,0.0,0.0,0.0,0.0,0.0,0.0,0.0,0.0,-5.5703,-5.5703,-5.5703,-5.5703,-5.5703,-5.5703,-5.5703,-5.5703,-5.5703,-5.5703,-5.5703,-5.5857,-5.6169,-5.6199,-5.634,-5.6575,-5.6581,-5.6601,0.0,-5.5664,-5.471,-5.3895,-5.4667,-5.3891,-5.2619,-5.5052,-5.5458,-5.488,0.0,0.0,0.0,0.0,0.0,0.0,0.0,-0.776,-0.8655,-0.9333,-0.9295,-0.9363,-0.9764,-0.9491,-0.9224,0.0,0.0,0.0,0.0,0.0,0.0,0.0,0.0,0.0,0.0,0.0,0.0,-1.0024,-1.0063,0.0,0.0,0.0,0.0,0.0,0.0,-1.2661,-1.2695,0.0,0.0,0.0,0.0,0.0,0.0,0.0,0.0,0.0,0.0,0.0,0.0,0.0,0.0,0.0,-2.8487,-3.1034,0.0,0.0,-4.4041,-4.8555,-4.8913,-5.3417,-5.7703,-5.6511,-5.2895,-4.8315,-4.3371,0.0,0.0,-3.0004,-2.8366,-2.7394,-2.703,-2.7272,-2.7984,0.0,0.0,0.0,0.0,0.0,0.0,0.0,0.0,0.0,0.0,0.0,0.0,0.0,0.0,0.0,-5.5703,-5.5703,-5.5703,-5.5703,-5.5703,-5.5703,-5.5703,-5.5703,-5.5703,-5.5703,-5.578,-5.5955,-5.6167,-5.573,-5.5636,-5.5781,-5.5254,-5.5284,0.0,-5.4838,-5.4532,-5.4604,-5.4875,-5.453,-5.4026,-5.5415,-5.5684,-5.5434,0.0,0.0,0.0,0.0,0.0,-0.6841,-0.7206,-0.8066,-0.8975,-0.9766,-0.9626,-0.9582,-0.9923,-0.9671,-0.9451,-0.9357,0.0,0.0,0.0,0.0,0.0,0.0,0.0,0.0,0.0,0.0,-1.0051,-1.0078,-1.0109,-1.0437,0.0,0.0,-1.1372,-1.1952,0.0,0.0,0.0,0.0,0.0,0.0,0.0,0.0,0.0,0.0,0.0,0.0,0.0,0.0,0.0,0.0,0.0,0.0,0.0,0.0,0.0,0.0,-3.8316,-4.3482,-4.462,-4.9556,-5.4436,-5.4549,-5.076,-4.5847,0.0,0.0,0.0,-2.848,-2.7222,-2.6615,-2.6627,-2.661,-2.6958,0.0,0.0,-2.9685,-3.3922,0.0,0.0,0.0,0.0,0.0,0.0,0.0,0.0,0.0,0.0,0.0,-5.5703,-5.5703,-5.5703,-5.5703,-5.5703,-5.5703,-5.5703,-5.5742,-5.5761,-5.5761,-5.5915,-5.5955,-5.5857,-5.5607,-5.5401,-5.5204,-5.4622,-5.48,0.0,-5.4654,-5.4616,-5.504,-5.5172,-5.5032,-5.4855,-5.5472,-5.5703,-5.5703,0.0,0.0,0.0,0.0,0.0,0.0,0.0,-0.836,-0.9265,-0.9746,-0.9908,-0.9967,-0.9917,-0.9486,-0.9342,-0.9665,0.0,0.0,0.0,0.0,0.0,0.0,0.0,0.0,0.0,0.0,-1.0079,-0.9999,-1.0125,-1.0207,-1.0209,-1.0213,-1.0213,-1.0229,0.0,0.0,0.0,0.0,0.0,0.0,0.0,0.0,0.0,0.0,0.0,0.0,0.0,0.0,0.0,0.0,0.0,0.0,0.0,0.0,0.0,0.0,-3.3206,-3.6251,-4.3665,-4.6957,-4.8885,-5.1337,-4.8158,-4.3564,0.0,0.0,-2.8981,-2.734,-2.6322,-2.5716,-2.5718,-2.5718,-2.6253,-2.7926,-2.8193,0.0,-3.3994,0.0,0.0,0.0,0.0,0.0,0.0,0.0,0.0,0.0,0.0,0.0,-5.5703,-5.5703,-5.5703,-5.5703,-5.5703,-5.5703,-5.5703,-5.5818,-5.5895,-5.5895,-5.6109,-5.5818,-5.5124,-5.6013,-5.5917,-5.5111,-5.5223,-5.5703,0.0,-5.5451,-5.5026,-5.4972,-5.5615,-5.5318,-5.4607,-5.5395,-5.5703,-5.5703,0.0,0.0,0.0,0.0,0.0,0.0,0.0,-0.7812,-0.8258,-0.8787,-0.9131,-0.9377,-0.9548,-0.9629,-0.9656,-0.9629,0.0,0.0,0.0,0.0,0.0,0.0,0.0,0.0,0.0,0.0,-0.9823,-0.9244,-0.9891,-1.0206,-1.0203,-1.0208,-1.0192,-1.0195,-1.025,0.0,0.0,0.0,0.0,0.0,0.0,0.0,0.0,0.0,0.0,0.0,0.0,0.0,0.0,0.0,0.0,0.0,0.0,0.0,0.0,0.0,0.0,0.0,-3.6192,-3.9657,-4.2444,-4.3235,-4.0463,-3.7001,-3.4851,0.0,0.0,-2.5434,-2.4537,-2.4082,-2.4642,-2.4743,-2.5303,-2.7029,-2.7818,0.0,0.0,0.0,0.0,0.0,0.0,0.0,0.0,0.0,0.0,0.0,0.0,0.0,-5.5703,-5.5703,-5.5703,-5.5703,-5.5703,-5.5703,-5.5703,-5.5818,-5.5895,-5.5895,-5.5493,-5.5243,-5.5109,-5.4777,-5.4152,-5.3359,-5.3998,-5.4299,-5.4386,-5.4793,-5.5203,-5.5613,-5.5825,-5.5703,-5.5472,-5.5626,-5.5703,-5.5703,0.0,0.0,0.0,0.0,0.0,0.0,0.0,-0.8014,-0.8478,-0.8806,-0.9127,-0.9325,-0.9297,-0.9319,-0.9332,-0.93,0.0,0.0,0.0,0.0,0.0,0.0,0.0,0.0,0.0,-0.9505,-0.959,-0.9392,-0.9941,-1.0195,-1.0195,-1.0191,-1.0204,-1.02,-1.0211,-1.0197,0.0,0.0,0.0,0.0,0.0,0.0,-1.356,0.0,0.0,0.0,0.0,0.0,0.0,0.0,0.0,0.0,0.0,0.0,0.0,0.0,-2.3465,0.0,0.0,-3.3701,-3.5979,-3.7238,-3.5013,0.0,0.0,0.0,0.0,-2.4446,-2.3965,-2.3835,-2.4637,-2.4788,-2.5249,-2.6638,-2.7324,0.0,0.0,0.0,0.0,0.0,0.0,0.0,0.0,0.0,0.0,0.0,0.0,0.0,-5.5703,-5.5703,-5.5703,-5.5703,-5.5703,-5.5703,-5.5703,-5.5818,-5.5748,-5.5441,-5.5415,-5.4919,-5.4051,-5.4167,-5.3702,-5.2858,-5.3126,-5.3664,0.0,-5.4326,-5.4951,-5.5876,-5.5838,-5.5818,-5.5799,-5.5722,-5.5703,-5.5703,0.0,0.0,0.0,0.0,0.0,0.0,0.0,0.0,0.0,-0.9476,-0.9694,-0.9651,-0.916,-0.8753,-0.8601,-0.8836,0.0,0.0,0.0,0.0,0.0,0.0,0.0,0.0,0.0,-0.939,-0.9426,-1.011,-1.0166,-1.0201,-1.0201,-1.0261,-1.0249,-1.0188,-1.0186,-1.0167,0.0,0.0,0.0,0.0,0.0,0.0,0.0,0.0,0.0,0.0,0.0,0.0,0.0,0.0,0.0,0.0,0.0,0.0,0.0,0.0,0.0,0.0,0.0,0.0,0.0,0.0,0.0,0.0,0.0,0.0,0.0,0.0,0.0,0.0,-2.525,-2.541,-2.5692,-2.6558,0.0,0.0,0.0,0.0,0.0,0.0,0.0,0.0,0.0,0.0,0.0,0.0,0.0,0.0,-5.5607,-5.5665,-5.5665,-5.5607,-5.5607,-5.5607,-5.5607,-5.5742,-5.5441,-5.4701,-5.552,-5.4677,-5.2435,-5.4058,-5.4217,0.0,-5.2762,-5.3763,-5.5588,-5.4164,-5.4491,-5.5857,-5.5742,-5.5703,-5.5703,-5.5703,-5.5703,-5.5703,0.0,0.0,0.0,0.0,0.0,0.0,0.0,0.0,0.0,0.0,-0.8915,-0.9134,-0.9106,-0.9409,-0.9591,0.0,0.0,0.0,0.0,0.0,0.0,0.0,0.0,0.0,0.0,-0.9557,-0.9714,-0.9283,-0.9894,-1.0205,-1.0212,-1.0839,-1.0757,-1.0143,-1.0791,-1.0729,0.0,0.0,0.0,0.0,0.0,0.0,0.0,0.0,0.0,0.0,-1.4137,-1.4271,0.0,0.0,0.0,0.0,0.0,0.0,0.0,0.0,-1.8994,-2.0287,-2.2105,0.0,-2.4775,-2.5535,-2.5149,-2.4522,0.0,0.0,0.0,0.0,0.0,0.0,0.0,0.0,0.0,0.0,0.0,0.0,0.0,0.0,0.0,0.0,0.0,0.0,0.0,0.0,0.0,0.0,0.0,-5.478,-5.478,-5.5376,-5.5415,-5.4799,-5.478,-5.478,-5.478,-5.4935,-5.4879,-5.4689,-5.3588,-5.3146,-5.33,-5.3609,-5.2915,-5.1606,-5.4031,-5.4589,-5.3895,-5.4799,-5.5395,-5.5742,-5.5703,-5.5703,-5.5703,-5.5703,-5.5703,-5.5703,0.0,0.0,0.0,0.0,0.0,0.0,0.0,0.0,0.0,0.0,0.0,0.0,0.0,0.0,0.0,0.0,0.0,0.0,0.0,0.0,0.0,0.0,0.0,0.0,-0.9061,-0.9349,-0.9501,-0.9498,-0.9932,-1.0151,-1.0173,-1.0976,-1.0914,-1.0116,-1.0498,-1.0399,0.0,0.0,0.0,0.0,-1.1866,0.0,0.0,0.0,0.0,0.0,-1.3335,-1.3481,0.0,-1.4481,-1.5226,-1.5864,0.0,0.0,0.0,0.0,-1.8795,-1.9893,-2.0348,-2.1175,-2.1993,-2.2396,-2.2181,-2.1975,0.0,0.0,0.0,0.0,0.0,0.0,0.0,0.0,0.0,0.0,0.0,0.0,0.0,0.0,0.0,0.0,0.0,0.0,0.0,0.0,0.0,0.0,0.0,-5.4087,-5.4472,-5.4914,-5.4953,-5.4511,-5.4491,-5.4491,-5.4491,-5.4164,-5.3799,-5.3413,-5.2877,-5.2492,-5.2279,-5.2588,-5.2222,-5.1452,-5.328,-5.3953,-5.3876,-5.478,-5.5145,-5.5145,-5.5145,-5.4914,-5.4549,-5.4549,-5.4549,-5.4549,0.0,0.0,0.0,0.0,0.0,0.0,0.0,0.0,0.0,0.0,0.0,0.0,0.0,0.0,0.0,0.0,0.0,0.0,0.0,0.0,0.0,0.0,0.0,-0.8829,-0.9566,-0.9066,-0.9214,-1.0048,-1.0177,-1.0268,-1.0306,-1.1245,-1.1249,-1.0441,-1.0148,-0.9924,0.0,0.0,-0.9805,-1.0082,-1.1514,0.0,0.0,0.0,0.0,0.0,0.0,0.0,0.0,-1.3912,-1.4559,-1.5274,-1.5274,0.0,0.0,0.0,0.0,0.0,-2.0312,-2.0437,-2.0692,-2.1558,-2.1167,-2.0773,0.0,0.0,0.0,0.0,0.0,0.0,0.0,0.0,0.0,0.0,0.0,0.0,0.0,0.0,0.0,0.0,0.0,0.0,0.0,0.0,0.0,0.0,0.0,-5.3318,-5.4068,-5.4222,-5.4241,-5.4107,-5.4107,-5.4107,-5.4107,-5.3376,-5.2645,-5.1914,-5.2529,-5.2145,-5.0914,-5.1587,-5.1837,-5.1741,0.0,0.0,-5.4107,-5.4241,-5.4299,-5.4299,-5.4299,-5.3857,-5.3203,-5.3203,-5.3203,-5.3203,0.0,0.0,0.0,0.0,0.0,0.0,0.0,0.0,0.0,0.0,0.0,0.0,0.0,0.0,0.0,0.0,0.0,0.0,0.0,0.0,0.0,0.0,-0.8223,-0.888,-0.902,-0.9206,-0.9451,-0.9761,-1.0551,-1.099,-1.1155,-1.2699,-1.2954,-1.211,-1.1275,-1.0499,-0.9803,-0.9728,-1.0102,-1.0753,-1.1012,0.0,0.0,0.0,0.0,0.0,0.0,0.0,0.0,-1.366,-1.4497,-1.5214,-1.522,0.0,0.0,0.0,0.0,0.0,-1.9926,-2.0355,-2.0612,-2.1422,-2.1526,-2.1443,-2.1512,0.0,0.0,0.0,0.0,0.0,0.0,0.0,0.0,0.0,0.0,0.0,0.0,0.0,0.0,0.0,0.0,0.0,0.0,0.0,0.0,0.0,0.0,-5.2164,-5.2299,-5.301,-5.3068,-5.2318,-5.2299,-5.2299,-5.2299,-5.2183,-5.2029,-5.1895,-5.1356,-5.1318,-5.1722,-5.1856,-5.1529,-5.0952,0.0,-5.2741,-5.2375,-5.3106,-5.3395,-5.3395,-5.3395,-5.3318,-5.3203,-5.3203,-5.3203,-5.3203,0.0,0.0,0.0,0.0,0.0,0.0,0.0,0.0,0.0,0.0,0.0,0.0,0.0,0.0,0.0,0.0,0.0,0.0,0.0,0.0,0.0,-0.6397,-0.7183,-0.7932,-0.862,-0.9018,-0.939,-0.9705,-1.0611,-1.1104,-1.1251,-1.1995,-1.235,-1.2274,-1.087,-0.9992,-0.9581,-0.9547,-0.9782,-1.0188,0.0,0.0,0.0,0.0,0.0,0.0,0.0,0.0,0.0,0.0,-1.401,-1.5106,-1.5133,0.0,0.0,0.0,0.0,0.0,-1.9858,-2.0188,-2.0463,-2.1692,-2.1751,-2.1891,-2.3198,0.0,0.0,0.0,0.0,0.0,0.0,0.0,0.0,0.0,0.0,0.0,0.0,0.0,0.0,0.0,0.0,0.0,0.0,0.0,0.0,0.0,0.0,0.0,-5.1895,-5.2279,-5.2318,-5.1914,-5.1914,-5.1702,-5.126,-5.1241,-5.1241,-5.1241,-5.0875,-5.0894,-5.1241,-5.1241,-5.1048,-5.076,0.0,-5.2279,-5.1972,-5.2837,-5.2933,-5.251,-5.251,-5.2241,-5.1856,-5.1856,-5.1856,-5.1914,0.0,0.0,0.0,0.0,0.0,0.0,0.0,0.0,0.0,0.0,0.0,0.0,0.0,0.0,0.0,0.0,0.0,0.0,0.0,0.0,-0.4248,-0.5466,-0.6079,-0.7021,-0.8388,-0.881,-0.9294,-0.9892,-1.0809,-1.1543,-1.2055,-1.1805,-1.1879,-1.2132,-1.0493,-0.9609,-0.935,-0.9332,-0.9359,-0.9492,0.0,0.0,0.0,0.0,0.0,0.0,0.0,0.0,0.0,0.0,0.0,0.0,0.0,0.0,0.0,-1.7371,-1.807,-1.8771,-1.9755,-1.9869,-2.0074,-2.1607,0.0,-2.2393,-2.5018,0.0,0.0,0.0,0.0,0.0,0.0,0.0,0.0,0.0,0.0,0.0,0.0,0.0,0.0,0.0,0.0,0.0,0.0,0.0,0.0,0.0,-5.0394,-5.0741,-5.1587,-5.1625,-5.1625,-5.1625,-5.1625,-5.1318,-5.0702,-5.0491,-5.0491,-5.0702,-5.0702,-5.0702,-5.0702,-5.0702,-5.0702,-5.0721,-5.1356,-5.1625,-5.1683,-5.2337,-5.2222,-5.1625,-5.1625,-5.1241,-5.0664,-5.0471,-5.0529,-5.0837,0.0,0.0,0.0,0.0,0.0,0.0,0.0,0.0,0.0,0.0,0.0,0.0,0.0,0.0,0.0,0.0,0.0,0.0,0.0,0.0,-0.3084,-0.3757,-0.5223,-0.6816,-0.8457,-0.8653,-0.9291,-1.0434,-1.1498,-1.2927,-1.4621,-1.3793,-1.2984,-1.2157,-1.1013,-1.0031,-0.9202,-0.9159,-0.9157,-0.9224,-0.9356,0.0,0.0,0.0,0.0,0.0,0.0,0.0,0.0,0.0,0.0,0.0,0.0,0.0,-1.629,-1.717,-1.7454,-1.7841,-1.9409,-1.9328,-1.9168,-2.0722,0.0,0.0,-2.6161,-2.7362,0.0,0.0,0.0,0.0,0.0,0.0,0.0,0.0,0.0,0.0,0.0,0.0,0.0,0.0,0.0,0.0,0.0,0.0,0.0,-4.9433,-4.949,-4.9875,-5.0741,-5.0779,-5.0779,-5.0779,-5.0779,-5.076,-5.0702,-4.9894,-4.9894,-5.0702,-5.0702,-5.0702,-5.0702,-5.0702,-5.0702,-5.0702,-5.076,-5.0779,-5.0779,-5.0837,-5.0837,-5.0779,-5.0779,-5.0741,-5.0587,-4.9779,-5.0067,-5.0914,0.0,0.0,0.0,0.0,0.0,0.0,0.0,0.0,0.0,0.0,0.0,0.0,0.0,0.0,0.0,0.0,0.0,0.0,0.0,0.0,-0.1512,-0.3328,-0.4552,-0.6016,-0.7776,-0.8977,-0.9941,-1.0694,-1.2225,-1.3309,-1.3952,-1.2956,-1.1964,-1.0985,-0.9978,-0.9342,-0.9026,-0.9075,-0.9123,-0.9146,-0.9265,-0.9322,0.0,0.0,0.0,0.0,0.0,0.0,0.0,0.0,-1.2761,-1.3626,-1.4494,-1.5365,-1.6209,-1.7079,-1.7342,-1.7576,-1.8692,-1.9495,-2.0019,-2.0019,0.0,0.0,0.0,0.0,0.0,0.0,0.0,0.0,0.0,0.0,0.0,0.0,0.0,0.0,0.0,0.0,0.0,0.0,0.0,0.0,0.0,-4.7857,-4.7924,-4.8271,-4.8471,-4.874,-4.9067,-4.9086,-4.9086,-4.9086,-4.9086,-4.9086,-4.9086,-4.8759,-4.8759,-4.9086,-4.9086,-4.9086,-4.9106,-4.9644,-4.9894,-4.9894,-4.9894,-4.9894,-4.9856,-4.9317,-4.9086,-4.9086,-4.9086,-4.9471,-4.999,-4.9644,-5.0163,-5.1029,0.0,0.0,0.0,0.0,0.0,0.0,0.0,0.0,0.0,0.0,0.0,0.0,0.0,0.0,0.0,0.0,0.0,0.0,0.0,0.0988,-0.0418,-0.273,-0.4001,-0.5345,-0.6806,-0.8841,-1.023,-1.0979,-1.2811,-1.3583,-1.3279,-1.2151,-1.1315,-1.0673,-0.9732,-0.9304,-0.9282,-0.9433,-0.9299,-0.9054,-0.9187,-0.9245,0.0,0.0,0.0,0.0,0.0,0.0,0.0,0.0,-1.2453,-1.3147,-1.4288,-1.5407,-1.6425,-1.7037,-1.7403,-1.7764,-1.854,-1.9351,-1.994,0.0,0.0,0.0,0.0,0.0,0.0,0.0,0.0,0.0,0.0,0.0,0.0,0.0,0.0,0.0,0.0,0.0,0.0,0.0,0.0,-4.6657,-4.6671,-4.667,-4.6754,-4.7001,-4.7348,-4.7645,-4.7933,-4.8049,-4.8105,-4.8105,-4.8105,-4.8105,-4.8105,-4.7855,-4.7721,-4.7721,-4.7432,-4.7586,-4.8125,-4.8721,-4.899,-4.899,-4.899,-4.899,-4.8933,-4.8355,-4.8105,-4.8067,-4.7817,-4.8317,-4.9163,-4.8874,-4.9433,-5.0356,0.0,0.0,0.0,0.0,0.0,0.0,0.0,0.0,0.0,0.0,0.0,0.0,0.0,0.0,0.0,0.0,0.0,0.0,0.2315,0.1335,0.0021,-0.1735,-0.3589,-0.491,-0.5597,-0.8101,-1.0057,-1.1398,-1.3262,-1.3799,-1.3043,-1.1848,-1.1398,-1.1547,-1.0615,-1.0173,-1.0108,-1.0239,-0.9755,-0.8902,-0.9039,-0.9147,-0.9206,0.0,0.0,0.0,0.0,0.0,0.0,0.0,-1.1949,-1.2304,-1.3981,0.0,-1.7006,-1.7001,-1.7567,-1.8365,-1.9081,-1.8779,-1.8605,0.0,0.0,0.0,0.0,0.0,0.0,0.0,0.0,0.0,0.0,0.0,0.0,0.0,0.0,0.0,0.0,0.0,0.0,0.0,-4.5606,-4.49,-4.5693,-4.5051,-4.4919,-4.5712,-4.6098,-4.6663,-4.7522,-4.7894,-4.8067,-4.8067,-4.8067,-4.8086,-4.8086,-4.7298,-4.6894,-4.6894,-4.6009,-4.6471,-4.8086,-4.8086,-4.8086,-4.8086,-4.8086,-4.8086,-4.8086,-4.8086,-4.8086,-4.8009,-4.7201,-4.7471,-4.8183,-4.7317,-4.7722,-4.8702,0.0,0.0,0.0,0.0,0.0,0.0,0.0,0.0,0.0,0.0,0.0,0.0,0.0,0.0,0.0,0.0,0.0,0.0,0.3367,0.2143,0.0358,-0.2053,-0.3503,-0.4975,-0.6549,-0.8301,-0.9954,-1.1534,-1.2097,-1.1872,-1.0913,-1.1041,-1.0811,-1.0352,-1.0626,-1.046,-0.9963,-1.0096,-0.968,-0.8902,-0.899,-0.9064,-0.9143,0.0,0.0,0.0,0.0,0.0,0.0,0.0,0.0,0.0,-1.4659,0.0,-1.6863,-1.6922,-1.75,-1.8037,-1.765,-1.9091,0.0,0.0,0.0,0.0,0.0,0.0,0.0,0.0,0.0,0.0,0.0,0.0,0.0,0.0,0.0,0.0,0.0,0.0,0.0,-4.4907,-4.4475,-4.417,-4.417,-4.4195,-4.4288,-4.4512,-4.4893,-4.523,-4.5477,-4.5799,-4.5988,-4.5988,-4.6206,-4.6336,-4.6336,-4.6105,-4.599,-4.597,-4.572,-4.5855,-4.6355,-4.699,-4.7259,-4.7259,-4.7259,-4.7259,-4.7221,-4.6586,-4.6336,-4.6317,-4.6182,-4.67,-4.7488,-4.7237,-4.7856,-4.8833,0.0,0.0,0.0,0.0,0.0,0.0,0.0,0.0,0.0,0.0,0.0,0.0,0.0,0.0,0.0,0.0,0.0,0.0,0.0,0.0,0.0625,-0.1877,-0.3276,-0.5055,-0.7389,-0.8549,-0.9671,-1.0776,-1.0978,-1.0634,-0.9824,-1.0435,-1.0528,-1.0227,-1.1026,-1.1171,-1.0784,-1.089,-1.0492,-0.9777,-0.9838,-0.9897,-0.9927,0.0,0.0,0.0,0.0,0.0,0.0,0.0,0.0,0.0,0.0,0.0,0.0,-1.6602,-1.7563,-1.848,-1.8206,0.0,0.0,0.0,0.0,0.0,0.0,0.0,0.0,0.0,0.0,0.0,0.0,0.0,0.0,0.0,-4.3042,-4.3575,-4.408,-4.4154,0.0,-4.3836,-4.3804,-4.3726,-4.3513,-4.366,-4.3804,-4.3804,-4.4165,-4.4346,-4.4346,-4.483,-4.5096,-4.5096,-4.5419,-4.5586,-4.5586,-4.5586,-4.5586,-4.5586,-4.5586,-4.5586,-4.5605,-4.6144,-4.6374,-4.6374,-4.6374,-4.6374,-4.6336,-4.5817,-4.5586,-4.5605,-4.5699,-4.6095,-4.665,-4.667,-4.7151,-4.7782,0.0,0.0,0.0,0.0,0.0,0.0,0.0,0.0,0.0,0.0,0.0,0.0,0.0,0.0,0.0,0.0,0.0,0.0,0.0,0.0,0.0738,-0.1551,-0.326,-0.5418,-0.8122,-0.8756,-0.917,-0.9438,-0.9878,-0.9876,-0.9487,-1.0018,-1.0511,-1.1006,-1.176,-1.2124,-1.2172,-1.2135,-1.1728,-1.1045,-1.1118,-1.1147,-1.1172,-1.1192,0.0,0.0,0.0,0.0,0.0,0.0,0.0,0.0,-1.375,-1.4548,-1.535,-1.6154,-1.7653,-1.9208,-1.9885,0.0,0.0,0.0,0.0,0.0,0.0,0.0,0.0,0.0,0.0,0.0,0.0,0.0,0.0,0.0,-4.3387,-4.3406,-4.3479,-4.3497,-4.3497,-4.3497,-4.3497,-4.3497,-4.3497,-4.3497,-4.3497,-4.3497,-4.3772,-4.3955,-4.3955,-4.4612,-4.503,-4.5052,-4.5381,-4.5549,-4.5549,-4.5586,-4.5586,-4.5549,-4.5586,-4.5586,-4.5586,-4.5586,-4.5586,-4.5586,-4.5586,-4.5586,-4.5586,-4.5586,-4.5586,-4.5586,-4.5605,-4.5692,-4.582,-4.589,-4.6002,-4.6119,0.0,0.0,0.0,0.0,0.0,0.0,0.0,0.0,0.0,0.0,0.0,0.0,0.0,0.0,0.0,0.0,0.0,0.0,0.0,0.0,0.0159,-0.2631,-0.545,-0.7554,-0.8866,-0.8213,-0.8209,-0.8947,-0.8588,-0.8734,-0.9362,-0.9836,-1.0866,-1.2306,-1.2647,-1.2732,-1.2611,-1.1989,-1.1303,-1.0621,-1.07,-1.0776,-1.0912,-1.0999,-1.0591,0.0,0.0,0.0,0.0,0.0,0.0,0.0,-1.4581,-1.4929,-1.5194,-1.6006,-1.7044,-1.8125,0.0,-2.1442,0.0,0.0,0.0,0.0,0.0,0.0,0.0,0.0,0.0,0.0,0.0,0.0,0.0,-4.2396,-4.2561,-4.2782,-4.3406,-4.3497,-4.3497,-4.3497,-4.3497,-4.3497,-4.3497,-4.3497,-4.3497,-4.3497,-4.3582,-4.3597,-4.3597,-4.4016,-4.4373,-4.4682,-4.5033,-4.5201,-4.5201,-4.5476,-4.5476,-4.5222,-4.5457,-4.5586,-4.5586,-4.5586,-4.5586,-4.5586,-4.5586,-4.5586,-4.5586,-4.5586,-4.5586,-4.5605,-4.5776,-4.5849,-4.5896,-4.6005,-4.6133,-4.626,0.0,0.0,0.0,0.0,0.0,0.0,0.0,0.0,0.0,0.0,0.0,0.0,0.0,0.0,0.0,0.0,0.0,0.0,0.0,0.0,0.0,-0.3159,-0.5886,-0.7572,-0.8073,-0.7854,-0.8027,-0.8605,-0.7815,-0.8003,0.0,0.0,-1.1201,-1.2122,-1.2851,-1.2927,-1.2478,-1.1964,-1.1621,-1.1399,-1.1381,-1.1522,-1.176,-1.1694,-1.109,-1.0425,-1.1529,0.0,0.0,0.0,0.0,0.0,0.0,0.0,-1.4445,-1.5261,-1.6431,-1.7737,0.0,0.0,0.0,0.0,0.0,0.0,0.0,0.0,0.0,0.0,0.0,0.0,0.0,0.0,-4.1258,-4.1662,-4.1735,-4.1882,-4.2286,-4.2359,-4.2359,-4.2359,-4.2359,-4.2506,-4.2892,-4.2928,-4.3075,-4.3461,-4.3497,-4.3314,-4.2947,-4.3614,-4.3988,-4.3976,-4.471,-4.497,-4.471,-4.4898,-4.4898,-4.4729,-4.4898,-4.5201,-4.5586,-4.5586,-4.5586,-4.5586,-4.5586,-4.5586,-4.5586,-4.568,-4.5699,-4.5719,-4.5853,-4.5908,-4.5924,-4.6053,-4.6137,-4.6208,0.0,0.0,0.0,0.0,0.0,0.0,0.0,0.0,0.0,0.0,0.0,0.0,0.0,0.0,0.0,0.0,0.0,0.0,0.0,0.0,0.0,-0.347,-0.5547,-0.6798,-0.7143,-0.7472,-0.7876,-0.8343,-0.7393,0.0,0.0,0.0,0.0,-1.1944,-1.311,-1.3112,-1.2234,-1.2078,-1.2088,-1.2174,-1.204,-1.224,-1.2569,-1.236,-1.1648,-1.0946,-1.2308,-1.2073,-1.1339,-1.2839,0.0,0.0,0.0,0.0,-1.3632,-1.4435,-1.5714,-1.7293,0.0,0.0,0.0,0.0,0.0,0.0,0.0,0.0,0.0,0.0,0.0,0.0,0.0,-4.0708,-4.0744,-4.0873,-4.0891,-4.0946,-4.1093,-4.1111,-4.1111,-4.1111,-4.1111,-4.1368,-4.2029,-4.2084,-4.2378,-4.3039,-4.3075,-4.28,-4.2139,-4.3013,-4.337,-4.3089,-4.4056,-4.4397,-4.3978,-4.4068,-4.4126,-4.4226,-4.428,-4.4682,-4.5374,-4.5374,-4.5451,-4.5586,-4.5605,-4.5624,-4.5624,-4.5776,-4.5811,-4.5838,-4.5907,-4.5926,-4.5958,-4.6093,-4.6134,-4.6158,0.0,0.0,0.0,0.0,0.0,0.0,0.0,0.0,0.0,0.0,0.0,0.0,0.0,0.0,0.0,0.0,0.0,0.0,0.1786,0.0,0.0,-0.3781,-0.5241,-0.6539,-0.7672,-0.6695,-0.6839,-0.8139,0.0,0.0,0.0,0.0,0.0,-1.3853,0.0,0.0,-1.2394,-1.2464,-1.2039,-1.1279,-1.125,-1.1439,-1.1753,-1.1775,-1.1475,-1.1175,-1.214,-1.2093,-1.176,-1.2788,-1.314,0.0,0.0,0.0,-1.3481,-1.4296,-1.4796,-1.5645,0.0,0.0,0.0,0.0,0.0,0.0,0.0,0.0,0.0,0.0,0.0,0.0,-3.9148,-3.9019,-3.9258,-3.9955,-4.0065,-4.0304,-4.102,-4.1111,-4.1111,-4.1111,-4.1111,-4.1148,-4.1258,-4.1277,-4.1313,-4.1423,-4.1423,-4.1387,-4.1277,-4.1383,-4.1716,-4.2234,-4.2421,-4.2587,-4.2735,-4.3097,-4.3462,-4.3861,-4.4153,-4.4355,-4.447,-4.447,-4.4893,-4.5605,-4.5719,-4.5776,-4.5776,-4.5853,-4.5887,-4.591,-4.602,-4.6061,-4.6074,-4.6215,-4.6276,-4.6278,0.0,0.0,0.0,0.0,0.0,0.0,0.0,0.0,0.0,0.0,0.0,0.0,0.0,0.0,0.0,-0.0314,0.0228,0.0332,-0.0293,-0.1143,-0.2201,-0.3511,-0.4428,-0.5292,-0.6152,-0.5953,-0.6315,-0.7248,0.0,0.0,0.0,-1.1466,-1.2739,0.0,0.0,0.0,0.0,-1.255,-1.1994,-1.1215,-1.1164,-1.1287,-1.149,-1.1482,-1.126,-1.1124,-1.2026,-1.2069,-1.1856,-1.2873,-1.3192,-1.3192,-1.3463,0.0,0.0,0.0,-1.4264,0.0,-1.8226,0.0,0.0,0.0,0.0,0.0,0.0,0.0,0.0,0.0,0.0,-3.7771,-3.7422,-3.7367,-3.7459,-3.7826,-3.7881,-3.8157,-3.8964,-3.9074,-3.9258,-3.9698,-3.9772,-3.9937,-4.0377,-4.0432,-4.0616,-4.1075,-4.1111,-4.0988,-4.067,-4.1095,-4.1456,-4.1642,-4.2101,-4.225,-4.2105,-4.2285,-4.2477,-4.2679,-4.3323,-4.3643,-4.3682,-4.3682,-4.3893,-4.4316,-4.5336,-4.5295,-4.4499,-4.5051,-4.5279,-4.5299,-4.5424,-4.5784,-4.6215,-4.628,-4.6308,-4.6308,0.0,0.0,0.0,0.0,0.0,0.0,0.0,0.0,0.0,0.0,0.0,0.0,0.0,0.0,0.0,0.0,-0.0567,-0.1026,-0.1918,-0.2355,-0.2855,-0.3513,-0.4036,-0.4521,-0.4927,-0.5404,-0.5913,0.0,0.0,0.0,-1.0792,-1.1852,-1.3286,0.0,-1.5587,0.0,0.0,0.0,0.0,0.0,-1.1608,-1.1684,-1.1653,-1.2159,-1.2052,-1.1803,-1.2838,-1.2888,-1.2565,-1.3254,-1.3459,-1.3443,-1.3447,-1.3329,0.0,0.0,0.0,0.0,0.0,0.0,0.0,0.0,0.0,0.0,0.0,0.0,0.0,0.0,0.0,-3.5037,-3.5037,-3.5734,-3.6303,-3.6303,-3.6303,-3.6505,-3.7092,-3.7349,-3.7643,-3.8046,-3.845,-3.8854,-3.9239,-3.9478,-3.9845,-4.0451,-4.0565,-4.0418,-4.0021,-4.0476,-4.0835,-4.0997,-4.1359,-4.1533,-4.147,-4.17,-4.17,-4.1489,-4.2393,-4.2739,-4.2566,-4.2795,-4.2815,-4.2739,-4.4489,-4.4553,-4.3516,-4.4221,-4.4525,-4.4536,-4.4621,-4.5195,-4.5976,-4.5976,-4.6113,-4.6308,0.0,0.0,0.0,0.0,0.0,0.0,0.0,0.0,0.0,0.0,0.0,0.0,0.0,-0.3427,-0.3268,-0.3797,-0.2778,-0.228,-0.2708,-0.4108,-0.4729,-0.4276,-0.4628,0.0,-0.5096,-0.511,0.0,0.0,0.0,0.0,-1.1292,-1.1912,-1.3389,-1.553,-1.694,-1.5738,-1.2747,0.0,0.0,0.0,0.0,0.0,0.0,0.0,-1.4603,-1.3928,-1.5233,-1.5204,-1.4491,-1.4092,-1.3999,-1.3963,-1.3462,-1.3209,-1.3139,0.0,0.0,0.0,0.0,0.0,0.0,0.0,0.0,0.0,0.0,0.0,0.0,0.0,0.0,-3.1641,-3.1641,-3.4192,-3.6303,-3.6303,-3.6303,-3.6303,-3.6358,-3.7,-3.7221,-3.6505,-3.7771,-3.8414,-3.7679,-3.8303,-3.8781,-3.8836,-3.9063,-3.9183,-3.9154,-3.8726,-3.8972,-4.0119,-3.9395,-3.9506,-4.0546,-4.1393,-4.1393,-4.0566,-4.1585,-4.1623,-4.0866,-4.175,-4.1787,-4.1216,-4.2956,-4.3667,-4.3596,-4.3699,-4.3768,-4.3768,-4.3769,-4.4297,-4.5078,-4.5078,-4.5586,-4.6308,0.0,0.0,0.0,0.0,0.0,0.0,0.0,0.0,0.0,0.0,0.0,0.0,0.0,-0.3292,-0.3178,-0.3208,-0.3371,-0.36,-0.3875,-0.4719,-0.5037,-0.4566,-0.5054,-0.5259,-0.5049,-0.5415,0.0,0.0,0.0,-0.7904,-0.9264,-1.0431,-1.1692,-1.3095,-1.5445,-1.5525,-1.3993,-1.4779,0.0,0.0,0.0,0.0,0.0,0.0,0.0,0.0,0.0,0.0,-1.5622,-1.627,-1.6181,-1.5745,-1.5536,-1.4718,-1.382,-1.3895,0.0,0.0,0.0,0.0,0.0,0.0,0.0,0.0,0.0,0.0,0.0,0.0,-2.9558,-3.0632,-3.0632,-3.2008,-3.3146,-3.3146,-3.3587,-3.4119,-3.4614,-3.5385,-3.6009,-3.6266,-3.6798,-3.7239,-3.7489,-3.7753,-3.8138,-3.867,-3.847,-3.8637,-3.9395,-3.8388,-3.8575,-4.0298,-3.955,-3.9314,-3.9719,-3.9488,-3.9238,-3.8969,-3.9319,-3.9396,-3.9246,-4.0139,-4.0467,-4.0335,-4.0948,-4.1538,-4.2097,-4.2648,-4.2871,-4.2871,-4.2871,-4.373,-4.5,-4.5,-4.5547,-4.6308,0.0,0.0,0.0,0.0,0.0,0.0,0.0,0.0,0.0,0.0,0.0,0.0,0.0,0.0,-0.3586,-0.3734,-0.467,-0.5211,-0.5076,-0.5465,-0.5516,-0.5112,-0.5326,-0.5443,-0.5392,-0.5725,-0.6024,0.0,0.0,0.0,0.0,-0.9599,-1.0636,-1.1635,-1.3668,-1.4573,0.0,0.0,0.0,-1.2937,0.0,0.0,-1.4771,0.0,0.0,0.0,0.0,0.0,0.0,-1.796,-1.7901,-1.7436,-1.6881,-1.5765,0.0,0.0,0.0,0.0,-1.6553,0.0,0.0,0.0,0.0,0.0,0.0,0.0,0.0,0.0,-2.7574,-2.8664,-2.8664,-2.9174,-2.9978,-3.1049,-3.1689,-3.2237,-3.2748,-3.3835,-3.4724,-3.5018,-3.5789,-3.6395,-3.6633,-3.7006,-3.745,-3.8003,-3.7884,0.0,-3.8864,-3.8118,-3.829,-3.9623,-3.9142,-3.8873,-3.8892,-3.8315,-3.7916,-3.7743,-3.8055,-3.8131,-3.8016,-3.8919,-3.9372,-3.946,-3.9456,-4.0116,-4.1211,-4.1465,-4.1738,-4.1992,-4.1992,-4.2871,-4.4121,-4.4121,-4.4687,-4.5469,0.0,0.0,0.0,0.0,0.0,0.0,0.0,0.0,0.0,0.0,0.0,0.0,0.0,0.0,0.0,-0.5766,-0.6787,-0.7069,-0.6297,-0.6429,-0.6348,-0.595,-0.5499,-0.5552,-0.6171,-0.6004,-0.6116,0.0,0.0,0.0,0.0,0.0,-1.0397,-1.1374,-1.19,-1.2841,-1.4063,0.0,-1.4613,-1.4327,0.0,-1.6701,-1.7097,0.0,0.0,0.0,-2.0709,-2.0528,0.0,-1.9027,0.0,0.0,0.0,0.0,0.0,0.0,0.0,0.0,0.0,0.0,0.0,0.0,0.0,0.0,-2.2297,0.0,0.0,0.0,-2.4974,-2.5539,-2.5575,-2.5853,-2.7109,-3.0234,-3.0794,-3.0839,-3.0839,-3.252,-3.344,-3.2669,-3.4688,-3.5844,-3.5055,-3.5962,-3.6652,-3.6708,-3.7175,-3.747,-3.7508,-3.7808,-3.7988,-3.7969,-3.7969,-3.7988,-3.8031,-3.8027,-3.7647,-3.694,-3.7886,-3.7916,-3.7192,-3.8137,-3.8559,-3.8555,-3.8555,-3.9531,-4.1055,-4.0215,-4.0371,-4.1152,-4.1152,-4.168,-4.2402,-4.2402,-4.2969,-4.3867,0.0,0.0,0.0,0.0,0.0,0.0,0.0,0.0,0.0,0.0,0.0,0.0,0.0,0.0,-0.5185,-0.6624,-0.6925,-0.708,-0.7198,-0.7309,-0.7061,-0.6367,-0.6391,-0.6283,-0.5981,-0.622,-0.6323,-0.6283,0.0,0.0,0.0,0.0,0.0,0.0,-1.0456,-1.1278,-1.2533,-1.3779,0.0,0.0,-1.7125,-1.8243,0.0,0.0,0.0,0.0,0.0,-2.0948,-2.0676,0.0,-2.134,-2.0622,0.0,0.0,0.0,0.0,0.0,0.0,-1.7315,0.0,0.0,0.0,0.0,0.0,0.0,0.0,0.0,-2.2925,-2.3654,-2.4207,-2.4662,-2.5237,-2.5964,-2.6836,-2.8424,-2.9533,-2.9533,-3.1004,-3.1971,-3.1751,-3.2339,-3.3195,-3.4309,-3.4705,-3.5464,0.0,-3.6765,-3.6898,-3.747,-3.7808,-3.7719,-3.7084,-3.7147,-3.6901,-3.631,-3.6345,-3.5996,-3.5268,-3.6166,-3.6501,-3.6364,-3.7258,-3.7656,-3.7656,-3.7656,-3.8281,-3.9297,-3.9062,-3.9473,-4.0254,-4.0254,-4.1133,-4.2402,-4.2402,-4.3359,-4.4668,0.0,0.0,0.0,0.0,0.0,0.0,0.0,0.0,0.0,0.0,0.0,0.0,0.0,0.0,-0.7308,-0.7779,-0.8299,-0.8469,-0.8114,-0.8101,-0.7806,-0.7115,-0.6764,-0.6529,-0.6353,-0.6429,-0.6366,-0.6188,0.0,0.0,0.0,0.0,0.0,0.0,0.0,0.0,0.0,0.0,0.0,0.0,-1.7603,0.0,0.0,-2.0926,-2.1396,0.0,0.0,0.0,-2.1962,-2.2683,-2.2366,0.0,0.0,0.0,0.0,0.0,0.0,0.0,0.0,0.0,0.0,0.0,0.0,0.0,-2.0585,-2.0504,-2.0529,0.0,-2.2436,-2.29,-2.3525,-2.4176,-2.4626,-2.4675,-2.624,-2.7537,-2.7734,-2.9002,-3.0055,-3.0503,-3.0859,-3.1658,-3.3178,-3.3759,-3.4504,-3.5646,-3.5869,-3.6348,-3.719,-3.7107,-3.6969,-3.6839,-3.6551,-3.5998,-3.5196,-3.5218,-3.4865,-3.412,-3.4614,-3.5076,-3.5469,-3.5976,-3.6406,-3.6758,-3.6758,-3.7051,-3.7519,-3.7519,-3.8242,-3.9394,-3.9766,-4.0508,-4.1406,-4.1777,-4.2539,-4.3516,0.0,0.0,0.0,0.0,0.0,0.0,0.0,0.0,0.0,0.0,0.0,0.0,0.0,0.0,0.0,0.0,-1.0183,-1.0346,-0.903,-0.885,-0.8524,-0.7979,-0.6932,-0.6544,-0.6954,-0.6664,-0.6426,-0.6303,0.0,0.0,0.0,0.0,0.0,0.0,0.0,0.0,0.0,0.0,0.0,-1.6219,-1.7636,-1.9369,0.0,0.0,-2.2797,-2.2772,-2.3117,-2.3212,-2.3212,-2.3259,-2.2606,0.0,0.0,0.0,0.0,0.0,-1.8961,0.0,0.0,0.0,0.0,0.0,0.0,0.0,-1.9893,-1.9757,-1.9711,-2.0951,-2.1282,-2.1596,-2.2246,-2.281,-2.3187,-2.3275,-2.4278,-2.526,-2.585,-2.6932,-2.8025,-2.9018,-2.982,-3.0727,-3.177,-3.2874,-3.3576,-3.3688,-3.4659,-3.5584,-3.6452,-3.5797,-3.5778,-3.6554,-3.5834,-3.507,-3.4332,-3.4411,-3.4054,-3.3262,-3.3359,-3.3867,-3.4707,-3.4707,-3.5176,-3.5996,-3.5996,-3.5996,-3.5996,-3.5996,-3.6973,-3.8535,-3.9316,-3.9726,-3.998,-4.0762,-4.1172,-4.1543,-0.9374,0.0,0.0,0.0,0.0,0.0,0.0,0.0,0.0,0.0,0.0,0.0,0.0,0.0,0.0,0.0,-1.0356,-1.0142,-0.9862,-0.9446,-0.891,-0.8315,-0.7738,-0.7203,-0.6773,-0.6956,-0.7022,-0.7018,0.0,0.0,0.0,0.0,0.0,0.0,0.0,0.0,0.0,0.0,0.0,-1.5542,-1.739,0.0,-2.2852,-2.3041,-2.3259,-2.35,-2.3566,-2.3414,-2.3259,-2.3645,-2.3034,-2.2127,0.0,0.0,0.0,-2.0298,0.0,0.0,0.0,0.0,0.0,0.0,0.0,0.0,-1.9613,-1.9689,-1.9872,0.0,-2.0303,-2.0201,-2.0935,-2.1412,-2.1742,-2.186,-2.2813,-2.3989,-2.534,-2.6277,-2.6954,-2.7344,-2.8109,-2.9064,-3.0288,-3.1241,-3.2148,-3.2999,-3.3333,-3.3612,-3.3902,-3.3774,-3.3774,-3.3949,-3.3824,-3.335,-3.2516,-3.3252,-3.3233,-3.2441,-3.3086,-3.3867,-3.4707,-3.4707,-3.5176,-3.5996,-3.5996,-3.5996,-3.5996,-3.5996,-3.6601,-3.7578,-3.7734,-3.8652,-3.9922,-4.0098,-4.1016,-4.2207,-1.0042,0.0,0.0,0.0,0.0,0.0,0.0,0.0,0.0,0.0,0.0,0.0,0.0,0.0,0.0,0.0,0.0,-1.1563,-1.0568,-1.0736,-1.0373,-0.9342,-0.832,-0.7796,-0.7806,-0.756,-0.7357,-0.7154,0.0,0.0,0.0,0.0,0.0,0.0,0.0,0.0,0.0,0.0,-1.4303,-1.6831,-1.7845,0.0,-2.1988,-2.2783,-2.3224,-2.3414,-2.3628,-2.3692,-2.381,-2.4461,-2.3959,0.0,-2.3719,-2.3302,-2.2478,0.0,-2.1868,-2.1788,0.0,0.0,0.0,-1.9393,0.0,0.0,0.0,-1.9609,-1.9573,-2.017,-1.9781,-1.966,-2.0843,0.0,-2.0933,-2.1019,-2.192,-2.2736,-2.311,-2.4542,-2.5783,-2.6386,-2.6914,-2.7669,-2.8843,-2.9755,-3.0682,-3.168,-3.1814,-3.1878,-3.195,-3.2013,-3.2248,-3.2697,-3.2316,-3.2091,-3.2091,-3.2131,-3.1953,-3.1562,-3.1953,-3.2617,-3.3457,-3.3457,-3.4141,-3.5351,-3.5351,-3.5605,-3.5996,-3.5996,-3.6269,-3.6699,-3.7129,-3.8105,-3.9297,-3.9746,-4.0703,-4.1855,-1.1344,0.0,0.0,0.0,0.0,0.0,0.0,0.0,0.0,0.0,0.0,0.0,0.0,0.0,0.0,0.0,0.0,0.0,0.0,-1.217,-1.2033,-1.078,-0.9202,-0.8575,-0.9036,-0.8197,-0.7655,-0.751,0.0,0.0,0.0,0.0,0.0,0.0,0.0,0.0,0.0,0.0,0.0,-1.8264,0.0,-1.9498,-2.0954,-2.2461,-2.3041,-2.3132,-2.3617,-2.3976,-2.4301,-2.5041,-2.4707,-2.411,-2.4908,-2.4727,0.0,0.0,0.0,0.0,0.0,0.0,0.0,0.0,0.0,-1.9522,0.0,0.0,0.0,-1.9878,-1.9372,0.0,0.0,0.0,0.0,0.0,0.0,0.0,0.0,-2.2431,0.0,-2.5225,-2.5646,-2.6262,-2.7332,-2.8384,-2.9305,-3.0068,-3.019,-3.0228,-3.0232,-3.0334,-3.0723,-3.1426,-3.0762,-3.0742,-3.1445,-3.0742,-3.0488,-3.0644,-3.0644,-3.1191,-3.2207,-3.2207,-3.3027,-3.4453,-3.4453,-3.4844,-3.5508,-3.5684,-3.5742,-3.584,-3.6719,-3.7676,-3.8691,-3.9394,-4.0312,-4.1289,-1.2836,-1.2155,0.0,0.0,0.0,0.0,0.0,0.0,0.0,0.0,0.0,0.0,0.0,0.0,0.0,0.0,0.0,0.0,-1.3368,0.0,0.0,-1.2686,-1.0921,-0.9827,-0.9616,-0.848,-0.8227,-0.8958,0.0,0.0,0.0,0.0,0.0,0.0,-1.0443,0.0,0.0,0.0,-1.5643,0.0,-1.9138,-2.0475,0.0,-2.2829,-2.3074,-2.303,-2.3857,-2.417,-2.4228,0.0,-2.4358,-2.419,0.0,-2.4405,-2.4251,-2.3252,0.0,0.0,0.0,0.0,0.0,0.0,-2.0629,0.0,0.0,0.0,-2.0265,-1.9694,0.0,0.0,0.0,0.0,0.0,0.0,0.0,0.0,-1.904,-2.0516,-2.1983,-2.2876,-2.3698,-2.4595,-2.5677,-2.7261,-2.8299,-2.8449,-2.8483,-2.8519,-2.8561,-2.8593,-2.8633,-2.873,-2.8652,-2.8633,-2.873,-2.8633,-2.8984,-2.9746,-2.9746,-3.0605,-3.2207,-3.2207,-3.2695,-3.3555,-3.3555,-3.3594,-3.3769,-3.4531,-3.4844,-3.4922,-3.5801,-3.7148,-3.8613,-3.8711,-3.9785,-4.1211,-1.3683,-1.3327,0.0,0.0,0.0,0.0,0.0,0.0,0.0,0.0,0.0,0.0,0.0,0.0,0.0,0.0,0.0,-1.7786,0.0,0.0,0.0,-1.5687,-1.3553,-1.2443,-1.2655,-1.1139,-1.0242,-1.0059,-0.9702,0.0,0.0,0.0,0.0,0.0,-1.1813,0.0,-1.4742,0.0,-1.8136,0.0,0.0,0.0,0.0,-2.2389,-2.2821,-2.3181,-2.3926,-2.419,-2.4228,0.0,-2.4478,0.0,0.0,0.0,0.0,-2.4879,0.0,0.0,0.0,0.0,0.0,0.0,0.0,0.0,-2.0577,0.0,-2.0133,0.0,0.0,0.0,0.0,0.0,0.0,0.0,-1.9109,0.0,0.0,0.0,-1.9788,0.0,0.0,0.0,-2.3954,-2.4693,-2.532,-2.5898,-2.5944,-2.5948,-2.5976,-2.6504,-2.7012,-2.7539,-2.7051,-2.7285,-2.8281,-2.7793,-2.8242,-2.9609,-2.9609,-3.0254,-3.1445,-3.1445,-3.1914,-3.2695,-3.2695,-3.2969,-3.3476,-3.4336,-3.4707,-3.4785,-3.5664,-3.707,-3.8535,-3.8027,-3.9277,-4.1133,-1.4319,0.0,0.0,0.0,0.0,0.0,0.0,0.0,0.0,0.0,0.0,0.0,-1.7422,-1.757,0.0,0.0,-2.0952,-2.0804,0.0,0.0,-1.8711,0.0,0.0,0.0,-1.5535,-1.3634,-1.2316,-1.1621,0.0,0.0,0.0,0.0,0.0,0.0,0.0,-1.4625,-1.6144,0.0,-2.0018,-2.1209,-2.3095,-2.2994,-2.1793,-2.2297,-2.288,-2.3544,-2.4016,-2.4247,-2.4303,-2.4444,-2.461,0.0,-2.5508,-2.5494,-2.5275,0.0,0.0,0.0,-2.389,0.0,0.0,0.0,0.0,0.0,0.0,0.0,0.0,0.0,0.0,0.0,0.0,0.0,0.0,0.0,0.0,-1.8455,0.0,-1.7513,0.0,0.0,0.0,0.0,0.0,-2.2832,-2.3182,-2.3871,-2.3678,-2.3753,-2.4258,-2.4707,-2.5488,-2.6602,-2.6035,-2.6309,-2.7578,-2.6953,-2.7402,-2.8887,-2.9121,-2.9707,-3.0547,-3.0781,-3.125,-3.1836,-3.1836,-3.2187,-3.2773,-3.3652,-3.4141,-3.4434,-3.5293,-3.6719,-3.8203,-3.7793,-3.9004,-4.0781,-1.4814,-1.4571,0.0,0.0,0.0,0.0,0.0,0.0,0.0,0.0,0.0,0.0,0.0,0.0,0.0,0.0,0.0,-2.3139,-2.2045,0.0,-1.9736,0.0,0.0,-1.7061,0.0,-1.5191,-1.4008,-1.4003,0.0,0.0,0.0,0.0,0.0,0.0,0.0,-1.4962,-1.7296,-1.8373,-2.0313,-2.2626,-2.2721,-2.2923,-2.3117,0.0,-2.3417,-2.417,-2.419,0.0,0.0,-2.4495,-2.4623,0.0,0.0,0.0,0.0,0.0,0.0,0.0,0.0,0.0,0.0,-2.3601,0.0,0.0,0.0,0.0,-2.1177,0.0,0.0,0.0,0.0,0.0,0.0,0.0,0.0,0.0,0.0,0.0,0.0,0.0,0.0,0.0,0.0,-2.2449,-2.2914,-2.2936,-2.2105,-2.2346,-2.4101,-2.3496,-2.3906,-2.5684,-2.5703,-2.5723,-2.5781,-2.5762,-2.6191,-2.709,-2.7949,-2.8809,-2.9668,-3.0527,-3.0918,-3.0937,-3.0937,-3.0957,-3.1055,-3.1914,-3.2734,-3.3535,-3.4394,-3.5801,-3.7441,-3.8262,-3.9141,-4.0059,-1.6626,0.0,0.0,0.0,0.0,0.0,0.0,-1.499,0.0,0.0,-1.7573,0.0,0.0,-2.3693,-2.4384,0.0,0.0,-2.5982,-2.4943,-2.3796,0.0,0.0,0.0,-2.0527,0.0,0.0,0.0,0.0,0.0,0.0,0.0,0.0,0.0,0.0,0.0,-1.6395,0.0,0.0,0.0,0.0,0.0,-2.3746,-2.5015,0.0,-2.3817,-2.3917,-2.4266,-2.4426,0.0,-2.4766,-2.4872,-2.5063,-2.5822,-2.5732,-2.5407,-2.579,-2.5762,-2.5509,0.0,0.0,-2.5644,-2.4161,0.0,0.0,0.0,0.0,0.0,0.0,0.0,0.0,0.0,0.0,0.0,0.0,0.0,0.0,0.0,0.0,0.0,0.0,0.0,0.0,0.0,0.0,-2.0347,-2.0259,-2.0527,-2.1224,-2.2411,-2.2806,-2.3828,-2.5644,-2.5703,-2.5703,-2.5703,-2.5703,-2.6133,-2.7012,-2.7871,-2.8769,-2.9629,-3.0508,-3.0898,-3.0898,-3.0898,-3.0898,-3.0976,-3.1836,-3.2363,-3.2754,-3.4141,-3.5059,-3.5684,-3.6562,-3.8164,-3.9941,-1.7579,0.0,0.0,0.0,0.0,0.0,0.0,0.0,0.0,0.0,-1.9976,0.0,-2.4875,0.0,-2.6627,0.0,-2.8283,-2.7873,-2.6955,-2.6106,0.0,-2.4956,-2.3872,-2.3127,0.0,0.0,0.0,0.0,0.0,-1.6704,0.0,0.0,0.0,0.0,0.0,-1.7594,-1.8489,0.0,-2.1939,0.0,0.0,-2.4791,0.0,0.0,-2.4552,-2.4136,0.0,-2.4636,-2.4708,-2.4937,-2.5065,-2.5256,-2.5955,-2.587,-2.5611,-2.6168,-2.6238,-2.6043,-2.5692,-2.6076,0.0,-2.5002,-2.4929,0.0,-2.3677,0.0,-2.4473,0.0,0.0,0.0,0.0,0.0,0.0,0.0,0.0,0.0,0.0,-1.6006,0.0,0.0,0.0,0.0,0.0,-1.8299,-1.853,-1.8406,-1.8621,-1.958,0.0,-2.1838,-2.3137,-2.5625,-2.5703,-2.5703,-2.5703,-2.5703,-2.5977,-2.6543,-2.7422,-2.8281,-2.918,-3.0039,-3.0605,-3.0898,-3.0898,-3.0898,-3.0937,-3.1504,-3.1914,-3.2305,-3.3398,-3.418,-3.4844,-3.6035,-3.793,-3.9902,-1.7767,0.0,0.0,0.0,-1.6177,0.0,0.0,0.0,-1.9869,0.0,-2.2329,-2.4247,-2.536,-2.6946,-2.8253,-2.9102,-2.9159,-2.8871,-2.8118,-2.7234,0.0,0.0,-2.5225,-2.4834,-2.4087,0.0,0.0,0.0,0.0,0.0,0.0,0.0,0.0,0.0,-1.78,0.0,-1.9409,-2.0767,-2.1917,-2.2977,-2.4945,-2.5876,-2.6052,-2.6055,-2.5539,-2.4828,-2.4818,-2.4891,-2.501,-2.501,-2.519,-2.5409,-2.5399,-2.5457,-2.5495,-2.5498,-2.6144,-2.6651,-2.5842,-2.6865,-2.7754,-2.6035,-2.6268,0.0,0.0,0.0,-2.5506,0.0,0.0,0.0,0.0,0.0,0.0,0.0,0.0,0.0,0.0,0.0,-1.5405,0.0,0.0,0.0,0.0,-1.7634,-1.7549,-1.7384,-1.6593,-1.7629,0.0,-2.0634,-2.1889,-2.5449,-2.5644,-2.5703,-2.5703,-2.5703,-2.5703,-2.5703,-2.6582,-2.7461,-2.832,-2.9199,-3.0078,-3.0898,-3.0898,-3.0898,-3.0898,-3.0898,-3.1387,-3.2148,-3.2226,-3.3281,-3.4961,-3.668,-3.832,-3.9707,-1.9558,-1.8815,-1.7849,0.0,-1.7129,-1.7449,0.0,0.0,0.0,0.0,-2.3883,-2.4979,-2.7876,-2.9118,-2.984,-3.0121,-3.014,0.0,0.0,0.0,0.0,-2.6456,-2.6373,-2.6008,-2.5212,-2.4326,-2.412,-2.4627,0.0,0.0,-2.1796,0.0,0.0,0.0,0.0,0.0,-1.9578,-2.1369,-2.2937,-2.432,-2.4842,-2.5178,-2.5357,0.0,-2.5301,-2.5301,-2.5046,-2.5006,-2.5107,-2.5258,-2.5379,-2.5476,-2.5473,-2.5511,-2.5582,-2.556,-2.5788,-2.5952,-2.5735,-2.6009,-2.6269,-2.5781,-2.6328,-2.6855,0.0,0.0,0.0,0.0,0.0,0.0,0.0,0.0,0.0,0.0,0.0,0.0,0.0,0.0,0.0,-1.7008,0.0,-1.7012,-1.6034,-1.7083,-1.7215,-1.5754,-1.7063,0.0,0.0,0.0,-2.1841,-2.3633,-2.5,-2.5703,-2.5703,-2.5703,-2.5703,-2.5703,-2.6582,-2.7461,-2.832,-2.9199,-3.0078,-3.0898,-3.0898,-3.0898,-3.0898,-3.0898,-3.1035,-3.1367,-3.2617,-3.4141,-3.5801,-3.6894,-3.7168,-3.709,-2.0291,0.0,0.0,-1.8357,0.0,0.0,-2.0317,-2.1482,0.0,-2.557,-2.6414,0.0,-2.9105,-3.0017,-3.0506,-3.0544,-3.0539,0.0,-2.9502,0.0,0.0,-2.6921,-2.6791,-2.6386,-2.5565,-2.5078,0.0,-2.5667,0.0,0.0,-2.2958,0.0,0.0,0.0,0.0,-1.9593,-1.9977,-2.1739,-2.3668,-2.5543,-2.5516,-2.5638,0.0,-2.5801,-2.5665,-2.547,-2.529,-2.5235,-2.5294,-2.5404,-2.55,-2.5534,-2.5546,-2.5596,-2.5638,-2.5638,-2.5668,-2.5703,-2.5703,-2.5703,-2.5703,-2.5703,-2.6367,-2.6894,-2.6523,-2.7089,-2.7691,0.0,-2.7342,-2.7094,0.0,0.0,0.0,0.0,0.0,0.0,0.0,0.0,0.0,0.0,-1.7702,-1.7381,-1.6438,-1.7211,-1.6991,-1.5109,-1.6534,0.0,0.0,0.0,-2.1468,-2.4091,-2.5133,-2.5839,-2.6221,-2.6249,-2.6269,-2.6269,-2.6387,-2.709,-2.832,-2.8809,-2.9726,-3.0898,-3.0898,-3.0898,-3.0898,-3.0898,-3.1113,-3.1621,-3.3301,-3.457,-3.5547,-3.6406,-3.666,-3.6641,-2.0574,0.0,0.0,0.0,0.0,0.0,0.0,-2.4775,0.0,-2.7266,0.0,-3.0337,-2.9793,-3.0347,-3.0761,-3.0781,0.0,-3.0328,-2.9699,-2.937,-2.858,-2.7113,-2.6833,-2.6327,-2.5526,-2.5503,-2.5511,0.0,0.0,0.0,0.0,0.0,0.0,0.0,0.0,0.0,0.0,-2.2199,-2.4184,-2.6372,-2.6312,-2.6405,-2.6631,-2.6626,-2.6151,-2.5515,-2.5512,-2.5503,-2.5505,-2.5512,-2.555,-2.5605,-2.5605,-2.5656,-2.5696,-2.5696,-2.568,-2.5662,-2.5662,-2.5662,-2.5662,-2.5662,-2.6347,-2.6797,-2.6015,-2.6441,-2.7026,-2.7127,-2.6405,-2.6247,-2.7838,0.0,0.0,0.0,0.0,0.0,0.0,0.0,0.0,0.0,0.0,0.0,-1.7874,-1.7692,-1.6907,-1.5203,-1.58,0.0,0.0,0.0,-2.0916,-2.5014,-2.5342,-2.5909,-2.6897,-2.6845,-2.6932,-2.7168,-2.6289,-2.6777,-2.8476,-2.8476,-2.9355,-3.0898,-3.0898,-3.0898,-3.0918,-3.1016,-3.1641,-3.2676,-3.4121,-3.4766,-3.4961,-3.5723,-3.6484,-3.7129,-2.158,0.0,0.0,0.0,0.0,-2.5329,-2.75,-2.6635,-2.6776,-2.9707,-3.0419,-3.0888,-3.1472,-3.1569,-3.1606,-3.1665,-3.0969,0.0,0.0,0.0,0.0,-2.7933,-2.7177,-2.6384,-2.5513,-2.5504,-2.5447,0.0,0.0,0.0,0.0,0.0,0.0,0.0,0.0,0.0,-2.2589,-2.3529,0.0,-2.5667,-2.5597,-2.564,-2.5723,-2.5737,-2.5667,-2.5572,-2.5581,-2.5582,-2.5572,-2.5581,-2.5626,-2.5672,-2.5672,-2.5651,-2.5611,-2.5611,-2.5589,-2.5539,-2.5539,-2.5539,-2.5539,-2.5539,-2.6234,-2.6854,-2.6656,-2.6767,-2.712,-2.7775,-2.7203,-2.6848,-2.772,0.0,0.0,0.0,0.0,0.0,0.0,0.0,0.0,0.0,0.0,-2.1039,-1.8745,-1.8002,-1.7224,-1.6135,0.0,0.0,0.0,0.0,-2.0474,0.0,-2.3753,-2.5359,0.0,0.0,-2.6642,-2.8066,-2.7187,-2.7695,-2.9375,-2.9375,-2.9922,-3.0898,-3.0898,-3.0898,-3.0957,-3.168,-3.2871,-3.4297,-3.459,-3.5137,-3.5781,-3.5937,-3.6094,-3.623,0.0,0.0,0.0,0.0,0.0,0.0,0.0,-2.9907,-3.0042,-3.1714,-3.1919,-3.207,-3.2567,-3.2154,-3.1863,-3.1896,-3.1067,-3.0581,-3.0595,-2.9392,-2.8487,-2.8077,-2.6747,-2.5823,-2.5409,-2.5399,-2.5572,-2.5932,0.0,0.0,0.0,0.0,0.0,0.0,0.0,-2.2535,0.0,0.0,0.0,-2.5542,-2.5486,-2.5479,-2.5553,-2.5561,-2.5586,-2.5657,-2.5607,-2.5605,-2.5605,-2.5605,-2.562,-2.5649,-2.5606,-2.5576,-2.5546,-2.5543,-2.553,-2.5495,-2.5495,-2.5495,-2.5611,-2.6068,-2.6501,-2.6951,-2.739,-2.7156,-2.6968,-2.735,-2.6738,-2.6326,-2.7002,-2.6783,0.0,0.0,0.0,0.0,0.0,0.0,-2.2092,0.0,0.0,0.0,0.0,0.0,0.0,0.0,0.0,0.0,0.0,0.0,-1.9898,0.0,0.0,0.0,-2.6878,0.0,-2.7449,-2.825,-2.785,-2.8359,-2.9609,-2.9609,-3.0078,-3.0898,-3.0898,-3.0898,-3.0976,-3.1836,-3.293,-3.4062,-3.4512,-3.4961,-3.5371,-3.582,-3.5996,-3.5996,0.0,-2.4521,0.0,0.0,-2.6525,0.0,-3.1478,-3.2825,-3.3596,-3.3813,-3.3695,-3.3604,-3.3713,-3.278,-3.2169,-3.2162,-3.1172,-3.0564,-3.0564,-2.894,-2.7988,-2.7988,-2.6255,-2.5303,-2.5303,-2.5303,-2.559,0.0,0.0,0.0,0.0,0.0,0.0,0.0,0.0,0.0,0.0,0.0,-2.5138,-2.5564,-2.5512,-2.5522,-2.5576,-2.5576,-2.5615,-2.5643,-2.56,-2.5572,-2.5582,-2.5563,-2.5563,-2.5562,-2.5518,-2.5485,-2.548,-2.5484,-2.5466,-2.5466,-2.5466,-2.5466,-2.5668,-2.6542,-2.6628,-2.6775,-2.7818,-2.7379,-2.6766,-2.6766,-2.6361,-2.6167,-2.673,-2.7551,0.0,0.0,0.0,0.0,0.0,0.0,-2.2966,0.0,0.0,0.0,-2.155,0.0,0.0,0.0,0.0,0.0,-1.8864,0.0,0.0,0.0,0.0,-2.4788,-2.6813,0.0,-2.8172,-2.8508,-2.8552,-2.9023,-2.9883,-2.9883,-3.0254,-3.0918,-3.1094,-3.1269,-3.1465,-3.1992,-3.2773,-3.373,-3.4434,-3.4805,-3.5059,-3.5742,-3.5996,-3.5996,0.0,0.0,0.0,0.0,0.0,-3.1118,-3.2412,-3.3869,-3.5258,-3.6473,-3.5926,-3.5451,-3.5451,-3.3981,-3.2979,-3.2993,-3.141,-3.0417,-3.0417,-2.8832,-2.7909,-2.7909,-2.6236,-2.5303,-2.5303,-2.5303,-2.5311,0.0,0.0,-2.5366,0.0,0.0,0.0,0.0,0.0,0.0,0.0,-2.5952,-2.6209,-2.5507,-2.5507,-2.5503,-2.5519,-2.5519,-2.5519,-2.5512,-2.5508,-2.551,-2.5505,-2.5447,-2.5466,-2.5505,-2.5495,-2.5466,-2.5418,-2.5409,-2.537,-2.5322,-2.5322,-2.5322,-2.5534,-2.6409,-2.6071,-2.5945,-2.7545,-2.7285,-2.6687,-2.6621,-2.7178,-2.7706,-2.7838,-2.8425,-2.8326,0.0,0.0,0.0,0.0,0.0,-2.3878,-2.3625,0.0,0.0,-2.23,-2.1119,0.0,0.0,-1.7862,0.0,0.0,0.0,0.0,-2.3719,-2.3179,-2.4055,-2.6599,-2.6899,-2.7839,-2.9472,-2.9473,-2.9922,-3.0781,-3.0781,-3.082,-3.0937,-3.1738,-3.248,-3.3125,-3.2461,-3.3144,-3.459,-3.4668,-3.5176,-3.5898,-3.5976,-3.5996,-3.5996,0.0,0.0,0.0,0.0,0.0,0.0,0.0,-3.5398,-3.5913,-3.6919,-3.6205,-3.5584,-3.5584,-3.4487,-3.3558,-3.3038,-3.1872,-3.0968,-3.0417,-2.9275,-2.839,-2.7909,-2.6736,-2.5851,-2.5303,-2.5303,-2.5493,0.0,0.0,0.0,0.0,0.0,0.0,0.0,0.0,-2.652,-2.5753,-2.6525,-2.6321,-2.5509,-2.5498,-2.5499,-2.5569,-2.6075,-2.6288,-2.6268,-2.623,-2.6216,-2.613,-2.5534,-2.539,-2.5428,-2.539,-2.537,-2.5341,-2.5341,-2.5322,-2.5303,-2.5303,-2.5303,-2.5514,-2.639,-2.636,-2.6561,-2.8236,-2.7582,-2.6783,-2.7274,-2.7659,-2.8063,-2.8571,-2.8887,-2.8964,-2.8692,0.0,0.0,0.0,0.0,0.0,-2.5068,0.0,-2.3648,-2.3186,-2.207,0.0,0.0,0.0,0.0,0.0,0.0,0.0,-2.3013,0.0,-2.4571,-2.6829,-2.7366,-2.8274,-2.9546,-3.0113,-3.0566,-3.0898,-3.0898,-3.0898,-3.0918,-3.1269,-3.1894,-3.2617,-3.1777,-3.2402,-3.3926,-3.3926,-3.4453,-3.5273,-3.5801,-3.5996,-3.5996,-3.4,0.0,-3.3111,0.0,-3.4591,-3.531,-3.6045,-3.6152,-3.6208,-3.6373,-3.572,-3.5254,-3.5254,-3.4293,-3.3485,-3.3196,-3.1968,-3.1092,-3.0802,-2.9506,-2.8486,-2.7909,-2.6813,0.0,-2.5303,-2.5553,-2.581,-2.609,-2.7254,0.0,0.0,0.0,0.0,0.0,-2.7285,-2.7123,-2.6366,-2.6948,-2.667,-2.5855,-2.5841,-2.5986,-2.6217,-2.6311,-2.6677,-2.7042,-2.6495,-2.6456,-2.6533,-2.561,-2.5322,-2.537,-2.5303,-2.5303,-2.5303,-2.5303,-2.5303,-2.5303,-2.5303,-2.5303,-2.5514,-2.639,-2.6409,-2.6659,-2.8352,-2.7621,-2.6909,-2.8025,-2.8255,-2.8506,-2.9333,-2.9486,-2.9562,-2.9736,0.0,0.0,0.0,-2.7159,0.0,-2.5926,-2.4628,-2.3846,-2.4002,-2.2765,0.0,0.0,0.0,0.0,0.0,0.0,0.0,0.0,0.0,0.0,-2.6855,-2.7682,-2.8589,-2.955,-3.0463,-3.0898,-3.0898,-3.0898,-3.1172,-3.1621,-3.1387,-3.1914,-3.2851,-3.1738,-3.2129,-3.3398,-3.3398,-3.3926,-3.4805,-3.5684,-3.5996,-3.5996,-3.7121,-3.6214,-3.5412,-3.6215,-3.6362,-3.5943,-3.4629,-3.572,-3.6235,-3.4898,-3.4713,-3.4694,-3.4694,-3.3223,-3.2655,-3.3696,-3.1482,-3.0486,-3.1609,-2.9313,-2.7909,0.0,0.0,-2.5303,-2.5303,-2.614,-2.6178,-2.5303,0.0,0.0,-2.6404,0.0,-2.6434,-2.6507,-2.6581,-2.617,-2.5531,-2.7332,-2.7544,-2.6687,-2.6687,-2.7149,-2.7678,-2.5967,-2.639,-2.7659,-2.5947,-2.587,-2.6467,-2.5591,-2.5303,-2.5303,-2.5303,-2.5303,-2.5303,-2.5303,-2.5303,-2.5303,-2.5303,-2.5303,-2.5514,-2.639,-2.5947,-2.5764,-2.7525,-2.7236,-2.7063,-2.8736,-2.9083,-2.9352,-3.0217,-3.0379,-3.0042,-2.8992,0.0,0.0,0.0,-2.6666,0.0,-2.5864,-2.4557,-2.3983,-2.4714,-2.3112,0.0,0.0,0.0,0.0,0.0,0.0,0.0,-2.3819,-2.3893,0.0,-2.6597,-2.7604,-2.8595,-2.9609,-3.0488,-3.0898,-3.0898,-3.0898,-3.1797,-3.332,-3.2539,-3.3125,-3.4531,-3.2871,-3.2656,-3.3398,-3.3398,-3.3926,-3.4805,-3.5684,-3.5996,-3.5996,-3.7991,-3.7911,-3.7665,-3.7923,-3.7978,-3.764,-3.6676,-3.6464,-3.6058,-3.5036,-3.4414,-3.4105,-3.4105,-3.3974,-3.3582,0.0,-3.1973,-3.1174,0.0,-2.957,-2.862,-2.7476,-2.6892,-2.6075,-2.4987,-2.59,-2.6266,-2.5968,0.0,0.0,0.0,-2.9084,-2.914,-2.9137,-2.8549,-2.8157,-2.7918,-2.7948,-2.7794,-2.7525,-2.7525,-2.7313,-2.7024,-2.7063,-2.7044,-2.6948,-2.639,-2.637,-2.6467,-2.5591,-2.5303,-2.5303,-2.5303,-2.5303,-2.5303,-2.5303,-2.5303,-2.5303,-2.5303,-2.5303,-2.536,-2.563,-2.5947,-2.6486,-2.764,-2.8102,-2.8294,-2.8294,-2.8717,-2.9371,-3.0237,-2.991,-2.9363,-2.8878,-2.8492,0.0,-2.7215,0.0,-2.6313,-2.5992,-2.5058,-2.459,-2.4898,-2.4312,0.0,0.0,0.0,0.0,0.0,0.0,0.0,0.0,-2.5576,0.0,-2.8633,-2.8879,-2.9497,-3.0488,-3.0762,-3.1211,-3.1797,-3.1797,-3.2383,-3.3398,-3.3125,-3.332,-3.373,-3.2656,-3.3027,-3.4238,-3.3633,-3.4297,-3.5625,-3.5898,-3.5996,-3.5996,-3.8505,-3.8707,-3.8707,-3.8707,-3.845,-3.7973,-3.7165,-3.634,-3.5514,-3.4669,-3.4119,-3.3807,-3.3807,-3.4136,0.0,-3.3025,-3.2105,-3.1337,-3.0676,-2.9734,-2.8734,-2.7697,-2.7358,-2.6736,-2.5718,-2.6607,0.0,-2.6189,-2.7357,-2.8402,-2.9346,-2.9425,-2.9467,-2.9448,-2.889,-2.864,-2.864,-2.8429,-2.8352,-2.8313,-2.8025,-2.7755,-2.7486,-2.7082,-2.6986,-2.6995,-2.6261,-2.622,-2.6411,-2.5864,-2.5461,-2.5261,-2.5658,-2.5553,-2.5303,-2.5303,-2.5303,-2.5303,-2.5303,-2.5303,-2.5303,-2.5303,-2.5967,-2.6832,-2.7698,-2.8294,-2.8582,-2.839,-2.9006,-2.9756,-3.0302,-2.9967,-2.9433,-2.8989,-2.8603,-2.8107,-2.7373,-2.6803,-2.6358,-2.5997,-2.5315,-2.4924,-2.503,-2.5241,-2.5323,0.0,0.0,0.0,0.0,0.0,-2.4495,-2.5466,-2.6352,-2.7682,-2.9513,-2.9463,-3.0086,-3.1387,-3.1699,-3.2129,-3.2656,-3.2656,-3.293,-3.3418,-3.375,-3.3887,-3.3848,-3.3359,-3.3769,-3.4648,-3.4101,-3.4551,-3.5547,-3.5879,-3.5996,-3.5996,-3.8707,-3.8707,-3.8707,0.0,-3.8028,-3.7221,-3.6413,-3.5569,-3.4697,-3.3917,-3.3807,-3.377,-3.3715,-3.377,-3.3865,-3.398,0.0,0.0,-3.1921,-2.9774,-2.842,-2.8363,-2.765,-2.7219,-2.7163,-2.7911,-2.7568,-2.6079,-2.6322,-2.6962,-2.7956,-2.7956,-2.7995,-2.8063,-2.8005,-2.7986,-2.8025,-2.8775,-2.9063,-2.8948,-2.8255,-2.8352,-2.8659,-2.6294,-2.6341,-2.7465,-2.565,-2.5513,-2.6206,-2.6263,-2.5761,-2.5263,-2.6337,-2.6091,-2.538,-2.538,-2.5341,-2.5303,-2.536,-2.5341,-2.5303,-2.538,-2.6101,-2.6986,-2.7794,-2.8025,-2.8275,-2.8948,-2.9794,-3.0398,-3.0398,-3.0302,-2.9967,-2.914,-2.8909,-2.8456,-2.7399,-2.6814,-2.6328,-2.5895,0.0,0.0,-2.5191,-2.5932,-2.618,0.0,0.0,0.0,0.0,0.0,-2.4932,-2.5765,-2.6631,-2.7915,-2.9656,-2.9725,-3.0607,-3.2285,-3.3047,-3.3437,-3.3496,-3.3496,-3.3516,-3.3633,-3.4434,-3.4785,-3.4785,-3.4726,-3.4746,-3.4785,-3.4726,-3.4746,-3.4883,-3.5703,-3.5996,-3.5996,0.0,0.0,-3.8707,-3.8707,-3.8028,-3.7221,-3.6413,-3.5569,-3.4697,-3.3917,-3.3807,-3.3568,-3.2963,-3.344,-3.3319,-3.217,-3.1544,-3.0793,-2.981,-2.92,-2.859,-2.7962,-2.7758,-2.7389,-2.6759,-2.7084,-2.7169,-2.699,-2.7661,-2.8179,-2.86,-2.86,-2.9015,-2.9775,-2.9102,-2.8813,-2.8832,-2.9006,-2.8736,-2.8217,-2.864,-2.8159,-2.7121,-2.6524,-2.6039,-2.5631,-2.5175,-2.5076,-2.5239,-2.5868,-2.6043,-2.6136,-2.702,-2.683,-2.6294,-2.6294,-2.5832,-2.5437,-2.612,-2.5813,-2.5457,-2.614,-2.7409,-2.8563,-2.8775,-2.9333,-2.9679,-2.9198,-2.9794,-3.0398,-3.0398,-2.9352,-2.8409,-2.8217,-2.7063,-2.6069,-2.5703,-2.5547,-2.5413,0.0,-2.5755,-2.6113,-2.6233,-2.702,-2.7731,0.0,0.0,-2.8357,-2.7452,-2.8509,-2.898,-2.8649,-2.9458,-3.072,-3.2365,-3.2391,-3.2615,-3.3047,-3.3281,-3.375,-3.4394,-3.4394,-3.4766,-3.5391,-3.5605,-3.5684,-3.5644,-3.4961,-3.5098,-3.5625,-3.4961,-3.5117,-3.5723,-3.5918,-3.5996,-3.5996,-3.8707,-3.8707,-3.8707,-3.8707,-3.7734,-3.6798,-3.6358,-3.5257,-3.4302,-3.3862,-3.3807,-3.3495,-3.2706,-3.2999,-3.2596,-3.098,-3.1182,-3.087,-2.9641,-2.9195,-2.8815,-2.8374,-2.8356,-2.8154,-2.7714,-2.744,-2.7251,-2.7129,-2.7561,-2.7869,-2.8074,-2.8449,-2.8989,-2.9666,-2.957,-2.9358,-2.9102,-2.9102,-2.8799,-2.8286,-2.7941,-2.7445,-2.6823,-2.6479,-2.5742,-2.4942,-2.521,-2.5047,-2.4842,-2.6008,-2.6299,-2.6393,-2.7698,-2.7407,-2.6755,-2.7525,-2.6582,-2.5495,-2.637,-2.6255,-2.6197,-2.7428,-2.814,-2.8756,-2.9525,-2.9756,-2.9775,-2.9717,-3.0083,-3.0398,-3.0398,-2.9333,-2.8332,-2.7948,-2.6713,-2.5631,-2.5172,-2.5428,-2.5676,-2.5676,-2.6845,-2.7651,-2.7736,-2.889,-2.9679,-2.9794,-3.0173,0.0,-2.9236,-3.0448,-3.0636,-2.9491,-3.0684,-3.1959,-3.3246,-3.3686,-3.3905,-3.3945,-3.4375,-3.4844,-3.5293,-3.5293,-3.5332,-3.541,-3.541,-3.541,-3.5371,-3.4902,-3.5215,-3.5957,-3.5488,-3.5586,-3.5957,-3.5547,-3.5664,-3.5898,-3.8658,-3.8707,-3.8707,-3.8707,-3.7459,-3.6431,-3.6227,-3.4935,-3.3908,-3.3726,-3.3762,-3.3495,-3.2706,-3.2614,-3.2008,-3.0503,-3.0889,-3.087,-3.0081,-2.936,-2.8994,-2.8994,-2.8994,-2.8994,-2.8994,-2.8338,-2.7619,-2.6841,-2.6971,-2.714,-2.7351,-2.8026,-2.8555,-2.8979,-2.965,-2.9598,-2.8994,-2.9128,-2.8945,-2.8432,-2.7151,-2.6845,-2.7132,-2.6437,-2.5649,-2.5013,-2.5515,-2.5168,-2.4685,-2.6321,-2.6555,-2.6514,-2.8365,-2.8026,-2.7274,-2.8832,-2.7582,-2.589,-2.6736,-2.6986,-2.7313,-2.8736,-2.8679,-2.864,-3.0083,-2.9833,-2.9506,-3.0256,-3.0398,-3.0398,-3.0398,-2.9583,-2.8736,-2.8126,-2.7106,-2.6123,-2.5335,0.0,-2.6574,-2.6574,-2.8188,-2.9352,-2.9467,-3.0948,-3.166,-3.1121,-3.1655,-3.1692,-3.1002,-3.1813,-3.1529,-2.9901,-3.1437,-3.2714,-3.3577,-3.4375,-3.4806,-3.489,-3.5643,-3.5996,-3.5996,-3.5996,-3.5605,-3.4902,-3.4902,-3.4902,-3.4902,-3.4902,-3.5332,-3.5996,-3.5996,-3.5996,-3.5918,-3.5176,-3.5351,-3.5781,-3.8627,-3.8707,-3.8707,-3.8707,-3.7918,-3.6948,-3.5864,-3.5203,-3.4467,-3.3422,-3.3578,-3.3495,-3.2706,-3.2614,-3.2228,-3.1292,-3.0705,-3.0044,-2.9232,-2.9067,-2.8994,-2.8994,-2.8994,-2.8994,-2.8994,-2.8865,-2.8099,-2.6657,-2.7337,-2.7761,-2.7961,-2.8091,-2.8651,-2.9559,-2.9691,-2.9274,-2.855,-2.9288,-2.878,-2.7468,-2.79,-2.7714,-2.7194,-2.7062,-2.6418,-2.5555,-2.5669,-2.506,-2.4486,-2.6105,-2.686,-2.7384,-2.9047,-2.916,-2.8909,-2.991,-2.8929,-2.7659,-2.8486,-2.8698,-2.8775,-2.9044,-2.9563,-3.0083,-3.034,-3.0314,-3.0237,-3.0359,-3.0398,-3.0398,-3.0398,-2.914,-2.8211,-2.8612,-2.7345,-2.6212,-2.5897,0.0,-2.7402,-2.7408,-2.907,-3.0487,-3.1237,-3.216,-3.2987,-3.366,-3.3814,-3.3519,-3.2678,-3.4135,-3.418,-3.2396,-3.3487,-3.4501,-3.5303,-3.5456,-3.5591,-3.5728,-3.5916,-3.5996,-3.5996,-3.5996,-3.5937,-3.5801,-3.5801,-3.5801,-3.5801,-3.5801,-3.5879,-3.5996,-3.5996,-3.5996,-3.5976,-3.5859,-3.5879,-3.5957,-3.8183,-3.8267,-3.835,-3.8658,-3.7807,-3.6989,-3.6687,-3.5496,-3.452,-3.4215,-3.3954,-3.3495,-3.2706,-3.2614,-3.2284,-3.1458,-3.065,-3.0044,-2.9677,-2.9232,-2.8994,-2.8994,-2.8994,-2.8792,-2.8356,-2.8796,-2.8407,-2.7255,-2.8062,-2.8496,-2.8572,-2.8572,-2.8922,-2.9551,-2.9551,-2.9101,-2.8433,-2.8829,-2.8479,-2.768,-2.7604,-2.7289,-2.6879,-2.6879,-2.6061,-2.4949,-2.5374,-2.4948,-2.4373,-2.5548,-2.6451,-2.7281,-2.8464,-2.8801,-2.8898,-2.9775,-2.9254,-2.8472,-2.8836,-2.8932,-2.9028,-2.9487,-2.9992,-3.0398,-3.0398,-3.0756,-3.1102,-3.1102,-3.1448,-3.1756,-3.1756,-3.039,-2.9294,-2.9422,-2.8063,-2.7069,-2.7308,-2.8303,-2.9167,-2.9601,-3.1296,-3.2602,-3.3006,-3.3814,-3.4487,-3.4911,-3.4949,-3.4776,-3.4378,-3.5109,-3.5147,-3.4339,-3.4768,-3.5224,-3.5641,-3.5678,-3.5768,-3.5898,-3.5964,-3.5996,-3.5996,-3.5996,-3.5996,-3.5957,-3.5019,-3.5137,-3.5937,-3.498,-3.5156,-3.5996,-3.5996,-3.5996,-3.5937,-3.5469,-3.5605,-3.5879,-3.7649,-3.772,-3.7823,-3.8031,-3.722,-3.66,-3.6717,-3.5503,-3.4677,-3.492,-3.4448,-3.3844,-3.3238,-3.2834,-3.243,-3.199,-3.1054,-3.0485,-3.0485,-2.9732,-2.9195,-2.8994,-2.8994,-2.8723,-2.8081,-2.8686,-2.8705,-2.8081,-2.8705,-2.8994,-2.8994,-2.8994,-2.9112,-2.931,-2.931,-2.9021,-2.8539,-2.8539,-2.8446,-2.8248,-2.7636,-2.7294,-2.7145,-2.6961,-2.6117,-2.5089,-2.5511,-2.5273,-2.4887,-2.5676,-2.6542,-2.7399,-2.8166,-2.8576,-2.8896,-2.9525,-2.9328,-2.8947,-2.8992,-2.9007,-2.9197,-3.0,-3.0275,-3.0407,-3.0797,-3.1315,-3.1756,-3.1948,-3.2468,-3.2891,-3.2891,-3.1698,-3.0676,-3.0624,0.0,-2.864,-2.9093,-3.0098,-3.1011,-3.167,-3.3204,-3.4276,-3.4468,-3.5122,-3.5493,-3.5493,-3.5493,-3.5493,-3.5493,-3.5493,-3.5493,-3.5493,-3.5493,-3.5545,-3.5603,-3.5649,-3.5729,-3.5852,-3.5937,-3.5976,-3.5976,-3.5996,-3.5992,-3.5907,-3.456,-3.4725,-3.5833,-3.4484,-3.4743,-3.5976,-3.5976,-3.5996,-3.5918,-3.5254,-3.543,-3.5801,-3.7135,-3.7248,-3.7017,-3.6327,-3.6114,-3.5702,-3.4606,-3.5046,-3.5343,-3.4887,-3.4878,-3.488,-3.4825,-3.3495,-3.2889,-3.355,-3.221,-3.1311,-3.1311,-3.0558,-2.9787,-2.9012,-2.8994,-2.8957,-2.8902,-2.8957,-2.8957,-2.8902,-2.8957,-2.8994,-2.8994,-2.8994,-2.9017,-2.904,-2.904,-2.8984,-2.8952,-2.8952,-2.8952,-2.8929,-2.8874,-2.8833,-2.8737,-2.8007,-2.764,-2.7438,-2.6759,-2.6484,-2.6557,-2.7346,-2.7958,-2.8491,-2.9119,-2.9567,-2.9863,-2.9746,-2.9533,-2.94,-2.9567,-2.9636,-2.9844,-3.0638,-3.043,-3.0448,-3.1977,-3.201,-3.191,-3.266,-3.2852,-3.2891,-3.2891,-3.2199,-3.1783,-3.231,0.0,0.0,-3.11,-3.1894,-3.2575,-3.2769,-3.3622,-3.4526,-3.5334,-3.5468,-3.5493,-3.5493,-3.5493,-3.5493,-3.5493,-3.5493,-3.5493,-3.5493,-3.5493,-3.5545,-3.5603,-3.5611,-3.5646,-3.5729,-3.5847,-3.5918,-3.5918,-3.5976,-3.5973,-3.5894,-3.5779,-3.5727,-3.5704,-3.5587,-3.5681,-3.5918,-3.5918,-3.5957,-3.5996,-3.5937,-3.5937,-3.5976,-3.6603,-3.6339,-3.6176,-3.6657,-3.6098,-3.57,-3.6007,-3.5658,-3.5508,-3.5897,-3.5584,-3.5241,-3.5017,-3.444,-3.4027,-3.3825,-3.2779,-3.1935,-3.1421,-3.065,-2.9843,-2.903,-2.8994,-2.8994,-2.8994,-2.8994,-2.8994,-2.8994,-2.8994,-2.8994,-2.8994,-2.8994,-2.8994,-2.8994,-2.8994,-2.8994,-2.8994,-2.8994,-2.8994,-2.8994,-2.8994,-2.8705,-2.8227,-2.7915,-2.7493,-2.7016,-2.6722,-2.6612,-2.6649,-2.6961,-2.7495,-2.8103,-2.8352,-2.8843,-2.9358,-2.9293,-2.9576,-2.9787,-2.9379,-2.9395,-2.9588,-2.9887,-3.0282,-3.0625,-3.0883,-3.2004,-3.2986,-3.2904,-3.3757,-3.4507,-3.4507,-3.3814,-3.3281,-3.3325,0.0,-3.2445,-3.2813,-3.3302,-3.3857,-3.4436,-3.4795,-3.5141,-3.5468,-3.5493,-3.5493,-3.5493,-3.5493,-3.5493,-3.5493,-3.5493,-3.5493,-3.5493,-3.5493,-3.5526,-3.5545,-3.5584,-3.5612,-3.5635,-3.5718,-3.5774,-3.5786,-3.5806,-3.5807,-3.5747,-3.5239,-3.5284,-3.5654,-3.5198,-3.5359,-3.5912,-3.5942,-3.5976,-3.5996,-3.5996,-3.5996,-3.5996,-3.6054,-3.5752,-3.5514,-3.595,-3.5503,-3.5296,-3.5915,-3.5566,-3.558,-3.6487,-3.604,-3.5594,-3.5545,-3.4957,-3.4429,-3.4016,-3.313,-3.2301,-3.1626,-3.0729,-2.9843,-2.903,-2.8994,-2.8994,-2.8994,-2.8994,-2.8994,-2.8994,-2.8994,-2.8994,-2.8994,-2.8994,-2.8994,-2.8994,-2.8994,-2.8994,-2.8994,-2.8994,-2.8994,-2.8994,-2.8994,-2.8686,-2.8154,-2.7897,-2.7603,-2.7328,-2.7071,-2.7145,-2.7365,-2.7365,-2.7779,-2.8304,-2.8195,-2.8558,-2.9049,-2.931,-2.9769,-3.0136,-2.9843,-2.989,-3.0027,-3.0027,-3.0238,-3.0584,-3.1181,-3.2397,-3.3455,-3.3571,-3.462,-3.5493,-3.5493,-3.5007,-3.4543,-3.4359,-3.4199,-3.4241,-3.4645,-3.4865,-3.5218,-3.5815,-3.5661,-3.5493,-3.5493,-3.5493,-3.5493,-3.5493,-3.5493,-3.5493,-3.5493,-3.5493,-3.5493,-3.5493,-3.5493,-3.5493,-3.5493,-3.5565,-3.5584,-3.5584,-3.5641,-3.5674,-3.5659,-3.5687,-3.5687,-3.563,-3.5097,-3.5166,-3.5641,-3.5128,-3.5301,-3.5907,-3.5956,-3.5977,-3.5996,-3.5996,-3.5996,-3.5996,-3.5622,-3.5622,-3.5148,-3.3677,-3.4015,-3.4252,-3.3541,-3.45,-3.555,-3.6312,-3.6103,-3.6096,-3.6638,-3.4848,-3.3804,-3.4344,-3.3241,-3.236,-3.2036,-3.087,-2.9843,-2.903,-2.8994,-2.8994,-2.8994,-2.8994,-2.8994,-2.8994,-2.8994,-2.8994,-2.8994,-2.8994,-2.8994,-2.8994,-2.8994,-2.8994,-2.8994,-2.8994,-2.8994,-2.8994,-2.8994,-2.8994,-2.8902,-2.8117,-2.8319,-2.8883,-2.8099,-2.8319,-2.8994,-2.8994,-2.9178,-2.9351,-2.9089,-2.8994,-2.914,-2.9971,-3.021,-3.0375,-3.1182,-3.1384,-3.1403,-3.1384,-3.0405,-3.0248,-3.3455,-3.3374,-3.308,-3.4742,-3.5304,-3.5493,-3.5493,-3.5526,-3.5512,-3.5512,-3.618,-3.6719,-3.6719,-3.6719,-3.6719,-3.6699,-3.6007,-3.5526,-3.5493,-3.5493,-3.5493,-3.5493,-3.5493,-3.5493,-3.5493,-3.5493,-3.5493,-3.5493,-3.5493,-3.5493,-3.5493,-3.5493,-3.5493,-3.5493,-3.5584,-3.5603,-3.5603,-3.568,-3.5661,-3.5603,-3.5603,-3.5603,-3.5603,-3.5603,-3.5718,-3.5892,-3.5905,-3.5943,-3.5996,-3.5996,-3.5996,-3.5996,-3.5622,-3.5182,-3.4861,-3.4945,-3.4709,-3.459,-3.4912,-3.5263,-3.5711,-3.6316,-3.6313,-3.6225,-3.6149,-3.5137,-3.4269,-3.3873,-3.3027,-3.236,-3.2036,-3.0613,-2.9792,-2.9837,-2.931,-2.8994,-2.8994,-2.8994,-2.8994,-2.8994,-2.8994,-2.8994,-2.8994,-2.8994,-2.8994,-2.8994,-2.8994,-2.8994,-2.8994,-2.8994,-2.8994,-2.8994,-2.8994,-2.8994,-2.8957,-2.8741,-2.8796,-2.8957,-2.8741,-2.8792,-2.8994,-2.8994,-2.9044,-2.9112,-2.904,-2.8994,-2.914,-2.9971,-3.0595,-3.1091,-3.1329,-3.1806,-3.2118,-3.1531,-3.1532,-3.18,-3.2381,-3.3141,-3.3804,-3.4122,-3.4735,-3.5289,-3.5479,-3.5968,-3.6353,-3.6353,-3.7065,-3.7603,-3.7603,-3.7603,-3.7392,-3.6776,-3.6488,-3.6122,-3.5551,-3.5493,-3.5493,-3.5493,-3.5493,-3.5493,-3.5493,-3.5493,-3.5493,-3.5493,-3.5493,-3.5493,-3.5493,-3.5493,-3.5493,-3.5493,-3.5526,-3.5545,-3.5545,-3.5565,-3.5565,-3.5545,-3.5545,-3.5565,-3.5597,-3.5649,-3.5753,-3.5907,-3.5944,-3.5979,-3.5996,-3.5996,-3.5996,-3.5996,-3.5622,-3.525,-3.4979,-3.5148,-3.5047,-3.4996,-3.5148,-3.5419,-3.5694,-3.6054,-3.6097,-3.5998,-3.57,-3.4815,-3.401,-3.3459,-3.2687,-3.2139,-3.1941,-3.0903,-3.0312,-3.0418,-2.9678,-2.9144,-2.8994,-2.8994,-2.8994,-2.8994,-2.8994,-2.8994,-2.8994,-2.8994,-2.8994,-2.8994,-2.8994,-2.8994,-2.8994,-2.8994,-2.8994,-2.8994,-2.8994,-2.8994,-2.8994,-2.8994,-2.8994,-2.8994,-2.8994,-2.8994,-2.8994,-2.8994,-2.9195,-2.9475,-2.9475,-2.9696,-3.0118,-3.0925,-3.1494,-3.1935,-3.2265,-3.2706,-3.2963,-3.2467,-3.2247,-3.2206,-3.2508,-3.3194,-3.3814,-3.4093,-3.4655,-3.5286,-3.5869,-3.6372,-3.6815,-3.7161,-3.795,-3.8507,-3.8507,-3.8507,-3.8315,-3.7796,-3.743,-3.6892,-3.6065,-3.6295,-3.6353,-3.6007,-3.5968,-3.5853,-3.5526,-3.5493,-3.5493,-3.5493,-3.5493,-3.5493,-3.5493,-3.5493,-3.5493,-3.5493,-3.5493,-3.5493,-3.5493,-3.5493,-3.5493,-3.5493,-3.5493,-3.5565,-3.5649,-3.566,-3.5768,-3.5939,-3.5942,-3.5976,-3.5996,-3.5996,-3.5996,-3.5996,-3.5622,-3.5622,-3.5402,-3.4726,-3.5165,-3.5385,-3.4692,-3.5182,-3.5622,-3.5622,-3.5622,-3.5511,-3.5341,-3.4182,-3.3308,-3.3138,-3.2291,-3.1752,-3.1789,-3.1443,-3.1107,-3.0761,-2.997,-2.9365,-2.8947,-2.8994,-2.8994,-2.8994,-2.8994,-2.8994,-2.8994,-2.8994,-2.8994,-2.8994,-2.8994,-2.8994,-2.8994,-2.8994,-2.8994,-2.8994,-2.8994,-2.8994,-2.8994,-2.9067,-2.9104,-2.9104,-2.9104,-2.9104,-2.9104,-2.9104,-2.9641,-3.032,-3.032,-3.0797,-3.1549,-3.2375,-3.2614,-3.2797,-3.3587,-3.3807,-3.3807,-3.3807,-3.2687,-3.199,-3.3458,-3.3414,-3.3411,-3.4557,-3.5002,-3.5518,-3.6618,-3.6892,-3.7199,-3.7988,-3.8834,-3.9411,-3.9411,-3.9411,-3.9373,-3.9296,-3.8604,-3.7777,-3.6911,-3.7526,-3.768,-3.6892,-3.6815,-3.6507,-3.5757,-3.5661,-3.5622,-3.5622,-3.5545,-3.5493,-3.5493,-3.5493,-3.5493,-3.5493,-3.5493,-3.5493,-3.5493,-3.5493,-3.5493,-3.5493,-3.5493,-3.5584,-3.5694,-3.5639,-3.5755,-3.5972,-3.5918,-3.5937,-3.5996,-3.5996,-3.5996,-3.5996,-3.5622,-3.5622,-3.5571,-3.5402,-3.5504,-3.5571,-3.5402,-3.552,-3.5622,-3.5622,-3.5622,-3.5599,-3.5562,-3.427,-3.338,-3.3318,-3.2134,-3.147,-3.1789,-3.1133,-3.0639,-3.0343,-2.9544,-2.8961,-2.8533,-2.8839,-2.8994,-2.8994,-2.8994,-2.8994,-2.8994,-2.8994,-2.8994,-2.8994,-2.8994,-2.8994,-2.8994,-2.8994,-2.8994,-2.8994,-2.8994,-2.8994,-2.9067,-2.9714,-2.9953,-2.9953,-2.9953,-2.9953,-2.9953,-2.9953,-3.0467,-3.1127,-3.1127,-3.1256,-3.1549,-3.2375,-3.2614,-3.2797,-3.3587,-3.3807,-3.3807,-3.3807,-3.3532,-3.3366,-3.3715,-3.3713,-3.4,-3.5364,-3.568,-3.6141,-3.7467,-3.8277,-3.8796,-3.8988,-3.97,-4.0239,-4.0239,-4.0239,-4.0008,-3.9373,-3.9123,-3.8681,-3.7796,-3.7892,-3.7911,-3.7738,-3.7719,-3.7642,-3.7469,-3.6815,-3.6449,-3.6449,-3.5834,-3.5493,-3.5493,-3.5493,-3.5493,-3.5493,-3.5493,-3.5493,-3.5493,-3.5493,-3.5493,-3.5493,-3.5493,-3.5565,-3.5617,-3.562,-3.5737,-3.5921,-3.5916,-3.5937,-3.5996,-3.5996,-3.5996,-3.5996,-3.5622,-3.5622,-3.5622,-3.5622,-3.5622,-3.5622,-3.5622,-3.5622,-3.5622,-3.5622,-3.5622,-3.5487,-3.5115,-3.4387,-3.3643,-3.2933,-3.185,-3.1291,-3.1507,-3.1131,-3.0729,-3.0429,-2.9642,-2.9165,-2.8963,-2.8808,-2.8815,-2.8994,-2.8994,-2.8994,-2.8994,-2.8994,-2.8994,-2.8994,-2.8994,-2.8994,-2.8994,-2.8994,-2.8994,-2.8994,-2.8994,-2.8994,-2.9049,-2.9475,-2.9641,-2.9641,-2.9641,-2.9879,-3.0265,-3.0632,-3.1311,-3.1971,-3.1971,-3.2247,-3.2632,-3.3054,-3.3183,-3.3256,-3.3697,-3.3807,-3.3807,-3.3807,-3.3807,-3.3807,-3.3807,-3.4223,-3.4872,-3.5706,-3.6328,-3.709,-3.8385,-3.8988,-3.9431,-3.9796,-4.0219,-4.0489,-4.0489,-4.0489,-4.0335,-3.9912,-3.9873,-3.9681,-3.9238,-3.8854,-3.8623,-3.8623,-3.8623,-3.843,-3.8027,-3.7565,-3.7142,-3.6719,-3.6295,-3.5892,-3.5493,-3.5493,-3.5493,-3.5493,-3.5493,-3.5493,-3.5493,-3.5493,-3.5493,-3.5493,-3.5493,-3.5545,-3.5603,-3.5577,-3.5688,-3.5888,-3.5833,-3.5888,-3.5996,-3.5996,-3.5996,-3.5996,-3.5622,-3.5622,-3.5622,-3.5622,-3.5622,-3.5622,-3.5622,-3.5622,-3.5622,-3.5622,-3.5622,-3.5385,-3.4742,-3.4573,-3.3897,-3.2408,-3.1732,-3.1326,-3.1207,-3.119,-3.0972,-3.0521,-2.9989,-2.9656,-2.9484,-2.8909,-2.8717,-2.8994,-2.8994,-2.8994,-2.8994,-2.8994,-2.8994,-2.8994,-2.8994,-2.8994,-2.8994,-2.8994,-2.8994,-2.8994,-2.8994,-2.9067,-2.9237,-2.9365,-2.9512,-2.9617,-2.9617,-3.0044,-3.0687,-3.1219,-3.2027,-3.2816,-3.2816,-3.3256,-3.3807,-3.3807,-3.3807,-3.3807,-3.3807,-3.3807,-3.3825,-3.3972,-3.3899,-3.3844,-3.3972,-3.4666,-3.5441,-3.6056,-3.6939,-3.7995,-3.9265,-3.9508,-3.9719,-4.0392,-4.0489,-4.0489,-4.0489,-4.0489,-4.0489,-4.0489,-4.0489,-4.0489,-4.0489,-3.9892,-3.9508,-3.9508,-3.9508,-3.9181,-3.8469,-3.8296,-3.7892,-3.718,-3.7007,-3.6603,-3.593,-3.593,-3.5853,-3.5718,-3.5718,-3.5641,-3.5493,-3.5493,-3.5493,-3.5493,-3.5493,-3.5545,-3.5603,-3.5545,-3.568,-3.5894,-3.5776,-3.5831,-3.5996,-3.5996,-3.5996,-3.5996,-3.5622,-3.5622,-3.5622,-3.5622,-3.5622,-3.5622,-3.5622,-3.5622,-3.5622,-3.5622,-3.5622,-3.5588,-3.547,-3.4878,-3.3897,-3.2408,-3.2188,-3.1867,-3.1241,-3.119,-3.0908,-3.02,-3.0418,-3.0084,-2.9095,-2.9322,-2.9305,-2.8994,-2.8994,-2.8994,-2.8994,-2.8994,-2.8994,-2.8994,-2.8994,-2.8994,-2.8994,-2.8994,-2.8994,-2.8994,-2.8994,-2.9439,-3.0118,-3.0797,-3.1513,-3.2118,-3.2118,-3.2192,-3.2192,-3.1604,-3.2394,-3.3642,-3.3642,-3.3715,-3.3807,-3.3807,-3.3807,-3.3807,-3.3807,-3.3807,-3.3972,-3.4642,-3.4321,-3.399,-3.466,-3.4604,-3.4944,-3.6958,-3.7488,-3.8167,-3.9996,-4.0335,-4.0354,-4.0469,-4.0489,-4.0489,-4.0489,-4.0489,-4.0489,-4.0489,-4.0489,-4.0489,-4.0489,-4.0392,-4.0335,-4.0335,-4.0335,-4.0277,-4.0162,-3.9488,-3.9065,-3.895,-3.8219,-3.7777,-3.7661,-3.7661,-3.7276,-3.6546,-3.6546,-3.618,-3.5493,-3.5493,-3.5493,-3.5493,-3.5493,-3.5545,-3.5603,-3.5603,-3.5718,-3.5905,-3.5868,-3.5927,-3.5996,-3.5996,-3.5996,-3.5996,-3.5622,-3.5622,-3.5622,-3.5622,-3.5622,-3.5622,-3.5622,-3.5622,-3.5622,-3.5622,-3.5622,-3.5622,-3.5622,-3.5318,-3.4641,-3.344,-3.2307,-3.1546,-3.1207,-3.119,-3.1055,-3.0734,-3.0692,-3.0365,-2.9611,-2.96,-2.9414,-2.8994,-2.8994,-2.8994,-2.8994,-2.8994,-2.9232,-2.9659,-2.9195,-2.9255,-2.9641,-2.92,-2.8994,-2.8994,-2.8994,-2.9494,-3.0246,-3.0595,-3.1219,-3.199,-3.2449,-3.2614,-3.2614,-3.2706,-3.3201,-3.3807,-3.3807,-3.3807,-3.3807,-3.3807,-3.3807,-3.3807,-3.3807,-3.3807,-3.399,-3.4789,-3.4715,-3.4743,-3.5724,-3.5769,-3.5923,-3.7124,-3.8,-3.8953,-4.0261,-4.0489,-4.0489,-4.0489,-4.0489,-4.0489,-4.0489,-4.0489,-4.0489,-4.0489,-4.0489,-4.0489,-4.0489,-4.0489,-4.0489,-4.0489,-4.0489,-4.0489,-4.0489,-4.0162,-3.9758,-3.9296,-3.8931,-3.8488,-3.8007,-3.8007,-3.7815,-3.743,-3.743,-3.6757,-3.5493,-3.5493,-3.5493,-3.5493,-3.5493,-3.5545,-3.5603,-3.5603,-3.5718,-3.5892,-3.5892,-3.5943,-3.5996,-3.5996,-3.5996,-3.5996]}]]